[[[{"header":{"parameterUnit":"kt","parameterCategory":2,"dx":1,"dy":1,"la1":29.46422004699707,"la2":30.564109802246094,"lo1":-89.4342041015625,"lo2":-87.934326171875,"nx":46,"ny":34,"refTime":"2022-09-26T00:00:00:Z","depth":"0","parameterNumber":2,"parameterNumberName":"U-component_of_CURRENTS"},"data":[-0.3962,-0.3716,-0.3401,-0.3065,-0.268,-0.2258,-0.204,0,-0.1559,-0.2541,-0.1858,-0.2312,-0.3006,-0.3406,-0.4052,-0.48,-0.5515,-0.6199,-0.6786,-0.7218,-0.7491,-0.7768,-0.8286,-0.9082,-0.9813,-1.0043,-0.9957,-0.9989,-1.0208,-1.0523,-1.086,-1.1228,-1.157,-1.1826,-1.1879,-1.1709,-1.1378,-1.0956,-1.0555,-1.024,-0.9995,-0.9765,-0.9546,-0.945,-0.9541,-0.9819,-0.3849,-0.3652,-0.3454,-0.3289,-0.3187,-0.3289,-0.3753,-0.409,0,-0.0838,-0.1506,-0.2867,-0.417,-0.4042,-0.4522,-0.5227,-0.5884,-0.645,-0.6903,-0.7261,-0.7528,-0.7667,-0.7726,-0.7907,-0.8425,-0.9082,-0.9269,-0.9023,-0.898,-0.9178,-0.9418,-0.969,-1.0096,-1.071,-1.141,-1.2029,-1.2461,-1.26,-1.2365,-1.1911,-1.1506,-1.1196,-1.0977,-1.0977,-1.1249,-1.173,-0.3577,-0.3583,-0.3513,-0.3433,-0.3358,-0.3284,-0.3171,-0.2931,-0.157,-0.0881,-0.1383,0,-0.1682,-0.386,-0.4869,-0.5734,-0.6327,-0.6743,-0.7032,-0.724,-0.7405,-0.7539,-0.7571,-0.7539,-0.763,-0.803,-0.8596,-0.8842,-0.8842,-0.8836,-0.8852,-0.9034,-0.9402,-0.9925,-1.0481,-1.0966,-1.1346,-1.1693,-1.2098,-1.2499,-1.2766,-1.2921,-1.3075,-1.3284,-1.347,-1.347,-0.2531,-0.3075,-0.331,-0.3428,-0.3476,-0.3476,-0.3428,-0.3284,-0.3038,-0.3187,-0.4079,-0.3481,-0.2883,-0.4164,-0.567,-0.6626,-0.6866,-0.7042,-0.7149,-0.7208,-0.7266,-0.7331,-0.7368,-0.7357,-0.7363,-0.7539,-0.8025,-0.8644,-0.9023,-0.9231,-0.9327,-0.9386,-0.9589,-0.9856,-1.0182,-1.0609,-1.1105,-1.1575,-1.1944,-1.2184,-1.2387,-1.2691,-1.3161,-1.3625,-1.3834,-1.37,-0.0918,-0.2024,-0.2782,-0.3225,-0.3492,-0.3631,-0.3663,-0.3609,-0.3502,-0.346,-0.3508,-0.3534,-0.37,-0.4512,-0.6615,-0.7715,-0.7266,-0.7186,-0.7154,-0.7106,-0.709,-0.7101,-0.7096,-0.7085,-0.7101,-0.7197,-0.7453,-0.7993,-0.8783,-0.9536,-0.9861,-0.9883,-0.9829,-0.9744,-0.9813,-1.0016,-1.0155,-1.0304,-1.0635,-1.1148,-1.1703,-1.2141,-1.2419,-1.26,-1.2611,-1.2403,-0.0374,-0.0993,-0.2104,-0.2974,-0.354,-0.3908,-0.401,-0.3892,-0.3759,-0.3668,-0.3625,-0.3524,-0.3284,-0.3118,0,-0.3609,-0.7154,-0.7096,-0.7005,-0.6871,-0.6807,-0.6781,-0.6754,-0.6733,-0.6754,-0.6786,-0.6861,-0.7224,-0.8067,-0.9076,-0.9824,-1.0256,-1.0465,-1.0545,-1.0545,-1.0465,-1.0246,-1.0059,-1.0112,-1.0246,-1.0267,-1.031,-1.0497,-1.07,-1.0785,-1.0732,0.1351,0.0294,-0.1426,-0.2702,-0.3599,-0.4357,-0.4479,-0.4111,-0.3855,-0.3711,-0.3641,-0.3652,-0.3796,-0.4052,-0.4186,0,-0.354,-0.7026,-0.6759,-0.6487,-0.6386,-0.6343,-0.6305,-0.6289,-0.6305,-0.6305,-0.6268,-0.6439,-0.7053,-0.7923,-0.8831,-0.9552,-0.9973,-1.0224,-1.0304,-1.0192,-0.9861,-0.961,-0.9728,-0.984,-0.9653,-0.9386,-0.9263,-0.9349,-0.952,-0.9621,0,-0.0977,-0.2018,-0.2376,-0.3268,-0.4666,-0.4827,-0.3972,-0.3673,-0.3545,-0.347,-0.3438,-0.347,-0.3631,-0.3833,-0.3914,0,-0.3428,-0.6402,-0.5884,-0.5814,-0.5804,-0.5788,-0.5788,-0.5798,-0.5798,-0.5766,-0.5825,-0.6161,-0.6722,-0.748,-0.8329,-0.9002,-0.9429,-0.9616,-0.9589,-0.9349,-0.9092,-0.9119,-0.9231,-0.8954,-0.8687,-0.8783,-0.8895,-0.8884,-0.8756,0,-0.2339,0,-0.079,-0.158,0,-0.1447,-0.3001,-0.315,-0.3182,-0.3123,-0.3027,-0.299,-0.331,-0.3556,-0.3545,-0.3588,0,-0.2333,-0.4859,-0.5126,-0.5206,-0.5232,-0.5254,-0.5275,-0.5318,-0.5355,-0.5462,-0.5809,-0.6327,-0.677,-0.7357,-0.8046,-0.8527,-0.8767,-0.8815,-0.866,-0.8521,-0.866,-0.8644,-0.8238,-0.7939,-0.8073,-0.842,-0.8612,-0.8585,0,-0.0219,-0.0256,-0.0374,0,-0.0625,-0.1783,-0.2547,-0.2856,-0.292,-0.2824,-0.2568,-0.2168,-0.2792,-0.3193,-0.2493,-0.2258,0,-0.2718,-0.5045,-0.4613,-0.4602,-0.4666,-0.473,-0.48,-0.4907,-0.5035,-0.5184,-0.5494,-0.6044,-0.6524,-0.6866,-0.7288,-0.772,-0.7982,-0.8035,-0.7923,-0.7875,-0.8009,-0.7902,-0.7635,-0.7528,-0.7533,-0.7651,-0.7859,-0.8094,0,0,0,0,0,-0.1431,-0.2803,-0.2787,-0.2878,-0.2904,-0.283,-0.2616,-0.2472,0,-0.0796,-0.1452,-0.1319,0,0,-0.157,-0.3417,-0.3849,-0.41,-0.4271,-0.4421,-0.4592,-0.4784,-0.4987,-0.5291,-0.5868,-0.6524,-0.6925,-0.7064,-0.7106,-0.7192,-0.7309,-0.7459,-0.7603,-0.7635,-0.7432,-0.7224,-0.7218,-0.7288,-0.74,-0.7528,-0.7656,0,0,0,0,0,0,-0.1276,-0.268,-0.2888,-0.3027,-0.3155,-0.339,-0.3775,-0.2504,-0.0993,-0.0587,-0.0203,0,0,-0.1319,-0.292,-0.3385,-0.3705,-0.3967,-0.4186,-0.4383,-0.4581,-0.4794,-0.5072,-0.5467,-0.5926,-0.637,-0.6658,-0.677,-0.6882,-0.708,-0.7283,-0.7352,-0.7234,-0.7085,-0.7058,-0.7106,-0.7192,-0.7331,-0.7443,-0.7469,0,0,0,0,0,0,-0.1345,-0.2846,-0.3054,-0.315,-0.3214,-0.3225,-0.3113,-0.2766,-0.2349,-0.2173,0,0,0,-0.1223,-0.2696,-0.3134,-0.3497,-0.3823,-0.4074,-0.4255,-0.4405,-0.456,-0.473,-0.4933,-0.5184,-0.5483,-0.5809,-0.6151,-0.6503,-0.6727,-0.6759,-0.6695,-0.6706,-0.6802,-0.6882,-0.6957,-0.7096,-0.7272,-0.7373,-0.7373,0,0,0,0,0,0,-0.1612,-0.3364,-0.3417,-0.331,-0.3305,-0.3326,-0.3353,-0.3417,-0.3812,-0.4821,-0.4442,-0.3385,0,-0.1196,-0.2616,-0.3043,-0.3433,-0.3775,-0.402,-0.4175,-0.4287,-0.4415,-0.456,-0.4725,-0.4923,-0.5152,-0.5419,-0.5691,-0.5921,-0.6113,-0.6284,-0.6444,-0.6567,-0.6647,-0.6738,-0.6882,-0.708,-0.725,-0.732,-0.7293,0,0,0,0,0,0,0,-0.197,-0.3631,-0.3289,-0.3262,-0.3278,-0.3268,-0.3209,-0.3129,-0.3011,-0.2621,-0.2317,0,-0.1191,-0.2632,-0.3086,-0.347,-0.3791,-0.4031,-0.4218,-0.4405,-0.4624,-0.4869,-0.5099,-0.5296,-0.5473,-0.5622,-0.5756,-0.5894,-0.6049,-0.6225,-0.6402,-0.6556,-0.6674,-0.6797,-0.6957,-0.7144,-0.7272,-0.7304,-0.7256,0,0,0,-0.0646,-0.1297,0,0,0,-0.1335,-0.2846,-0.3091,-0.3182,-0.3171,-0.3022,-0.2723,-0.2232,-0.1634,-0.1329,0,-0.1271,-0.284,-0.3332,-0.3679,-0.3978,-0.4261,-0.456,-0.4885,-0.5184,-0.536,-0.5419,-0.5457,-0.5547,-0.567,-0.583,-0.6022,-0.622,-0.6412,-0.6588,-0.6743,-0.6877,-0.7,-0.7128,-0.724,-0.7299,-0.7299,-0.7245,0,0,-0.0966,-0.2258,-0.299,-0.3817,-0.4287,-0.433,-0.3812,-0.3225,-0.3177,-0.3241,-0.3278,-0.3161,-0.2792,-0.2002,-0.0662,0.0155,0,-0.158,-0.3454,-0.3871,-0.4116,-0.4405,-0.4736,-0.5083,-0.5376,-0.5542,-0.5585,-0.5585,-0.5606,-0.5675,-0.5788,-0.5953,-0.6161,-0.6396,-0.6626,-0.6818,-0.6951,-0.7053,-0.7149,-0.7234,-0.7293,-0.7309,-0.7293,-0.7256,0,0,-0.1415,-0.267,-0.2365,-0.2226,0,0,-0.1217,-0.2659,-0.3065,-0.339,-0.3641,-0.3791,-0.3759,-0.3374,-0.3065,0,-0.2365,-0.4709,-0.4661,-0.4645,-0.4714,-0.4885,-0.5115,-0.5339,-0.5521,-0.5638,-0.5697,-0.5745,-0.5793,-0.5857,-0.5948,-0.6092,-0.6284,-0.6514,-0.6743,-0.6914,-0.7021,-0.709,-0.716,-0.7224,-0.7261,-0.7283,-0.7288,-0.7283,-0.1132,-0.2568,-0.2867,0,0,0,0,0,-0.1175,-0.2654,-0.3235,-0.3743,-0.4234,-0.4794,-0.5654,-0.7277,-1.0086,-1.1009,-0.8607,-0.6482,-0.5681,-0.5302,-0.5179,-0.5222,-0.5339,-0.5467,-0.5563,-0.5659,-0.5782,-0.5916,-0.6006,-0.6049,-0.6071,-0.6135,-0.6252,-0.6434,-0.6636,-0.6802,-0.693,-0.7042,-0.7133,-0.7176,-0.7186,-0.7213,-0.7256,-0.7283,-0.2136,-0.2237,-0.2787,-0.2835,-0.2766,0,0,0,-0.1217,-0.2798,-0.3486,-0.4095,-0.4693,-0.5392,-0.6337,-0.7555,-0.874,-0.9055,-0.8051,-0.6802,-0.6087,-0.5675,-0.5467,-0.5398,-0.5435,-0.5515,-0.5611,-0.5713,-0.5852,-0.6012,-0.6103,-0.6076,-0.6017,-0.6001,-0.6028,-0.6119,-0.6268,-0.6466,-0.6706,-0.6967,-0.717,-0.7218,-0.717,-0.7149,-0.717,-0.7202,0,-0.0892,-0.1965,-0.2403,-0.2867,-0.3065,0,0,-0.1276,-0.2947,-0.3652,-0.4266,-0.4816,-0.5478,-0.6455,-0.7592,-0.8131,-0.7859,-0.7192,-0.6535,-0.6103,-0.5761,-0.5499,-0.5376,-0.5403,-0.5505,-0.559,-0.5659,-0.5756,-0.59,-0.6022,-0.5948,-0.5814,-0.5756,-0.5697,-0.5681,-0.5729,-0.5905,-0.6241,-0.6722,-0.7213,-0.7384,-0.7261,-0.7117,-0.7021,-0.6989,0.141,-0.0027,-0.0737,-0.1361,-0.2285,-0.3534,-0.3903,-0.3337,-0.2819,-0.2867,-0.347,-0.41,-0.4442,-0.4821,-0.5948,-0.7517,-0.7598,-0.6701,-0.6305,-0.6017,-0.5809,-0.5547,-0.5334,-0.5264,-0.5403,-0.5729,-0.6124,-0.6289,-0.5916,-0.551,-0.5617,-0.5601,-0.5451,-0.5473,-0.5403,-0.5323,-0.5259,-0.5275,-0.5441,-0.6028,-0.7331,-0.7779,-0.7315,-0.708,-0.6818,-0.6674,0.0491,0.0774,0.0315,-0.0219,-0.0812,-0.1404,-0.1821,-0.1981,-0.1858,-0.1981,-0.267,-0.3663,-0.3663,-0.3097,0,0,-0.2552,-0.5766,-0.6754,-0.7379,-0.6861,-0.5611,-0.5024,-0.4768,-0.4629,-0.4688,-0.4981,-0.5174,0,0,0,-0.2253,-0.4965,-0.575,-0.5622,-0.504,-0.4698,-0.4501,-0.4175,-0.3268,-0.2696,0,-0.3946,-0.7459,-0.6749,-0.6391,0,0.078,0.1351,0.0886,0.0406,-0.0048,-0.0454,-0.0769,-0.0902,0,0,0,-0.1586,-0.3887,-0.3876,-0.3145,0,-0.2146,-0.4698,-0.5109,0,0,0,0,0,0,0,-0.267,-0.4944,-0.4688,-0.504,-0.4778,-0.4015,-0.3732,0,0,-0.2413,-0.5109,-0.456,-0.2835,-0.1014,-0.1223,-0.2365,0,0,0,0,0,0.078,0.142,0.1191,0.0977,0.0678,0.0251,-0.047,-0.1111,-0.1415,-0.1607,-0.2056,-0.283,-0.3572,-0.4624,-0.5371,-0.5318,-0.5772,-0.6482,-0.5777,-0.4565,-0.4116,-0.3962,-0.3882,-0.4068,-0.449,-0.4186,-0.3759,-0.3882,-0.4031,-0.3972,-0.3775,-0.3919,-0.4079,-0.4383,-0.4271,-0.3855,0,0,0,-0.0865,-0.0646,0.0096,-0.0101,0,0,0,0,0.0566,0.1479,0.1858,0.1778,0.1543,0.0918,0.0171,-0.0166,-0.0443,-0.086,-0.1351,-0.1831,-0.229,-0.2536,-0.229,-0.2077,-0.2189,-0.2488,-0.2771,-0.2931,-0.3444,-0.4164,-0.4052,-0.3059,-0.2216,-0.1997,-0.2024,-0.2066,-0.212,-0.2109,-0.205,-0.1612,-0.1687,-0.213,-0.1773,-0.1313,-0.1105,-0.1586,-0.1933,-0.1143,-0.0635,-0.0609,0,0,0,0,0,0,0,0,0,0.0246,0.0769,0.118,0.0972,0.0438,0.0128,-0.0107,-0.032,-0.0427,-0.0352,-0.0208,-0.0048,-0.0011,-0.0192,-0.0315,-0.0593,-0.1426,-0.2002,0,0,0,0,0.0048,0.0352,0.04,-0.0048,-0.0288,0,0,0,0,0,-0.0977,-0.1709,-0.1228,-0.086,-0.071,0,0,0,0,0,0,0,0,0,0,0,0,0.0256,0.0726,0.0956,0.0897,0.0758,0.0662,0.0625,0.0561,0.0497,0,0,0,0,0,0,0,0,0,0,0,0,0.0203,0.0438,0.047,0,0,0,0,0,-0.0486,-0.1127,-0.1281,-0.1164,-0.0972,0,0,0,0,0,0,0,0,0,0,0,0,0,0,0,0,0,0,0,0,0,0,0,0,0,0,0,0,0,0,0,0,0,0,0,0,0,0,0,0,0,-0.031,-0.0966,-0.1399,-0.1351,-0.1084,0,0,0,0,0,0,0,0,0,0,0,0,0,0,0,0,0,0,0,0,0,0,0,0,0,0,0,0,0,0,0,0,0,0,0,0,0,0,0,0,0,-0.023,-0.0598,-0.0934,-0.1111,-0.086,0,0,0,0,0,0,0,0,0,0,0,0,0,0,0,0,0,0,0,0,0,0,0,0,0,0,0,0,0,0,0,0,0,0,0,0,0,0,0,0,0,0,0.1345,0.0187,-0.055,-0.0619,0,0,0,0,0,0,0,0,0,0,0,0,0,0,0,0,0,0,0,0,0,0,0,0,0,0,0,0,0,0,0,0,0,0,0,0,0,0,0,0,0,0,-0.0171,-0.0427,-0.0555,-0.0518,0,0,0,0,0,0,0,0,0,0,0,0,0,0,0,0,0,0,0,0,0,0,0,0,0,0,0,0,0,0,0,0,0,0,0,0,0,0,0,0,0,0,-0.0208,-0.0272,-0.0288,-0.0454,0,0,0,0,0,0,0,0,0,0,0,0,0,0,0,0,0,0,0,0,0,0,0,0,0,0,0,0,0,0,0,0,0,0,0,0,0,0,0,0,0,0,0.0918,0.1185,-0.008,-0.0502,0]}],[{"header":{"parameterUnit":"kt","parameterCategory":2,"dx":1,"dy":1,"la1":29.46422004699707,"la2":30.564109802246094,"lo1":-89.4342041015625,"lo2":-87.934326171875,"nx":46,"ny":34,"refTime":"2022-09-26T00:00:00:Z","depth":"0","parameterNumber":3,"parameterNumberName":"V-component_of_CURRENTS"},"data":[-0.2632,-0.3198,-0.3604,-0.3817,-0.3999,-0.4346,-0.512,0,-0.2648,-0.5777,-0.6044,-0.5702,-0.7096,-0.7614,-0.7982,-0.8163,-0.8222,-0.8212,-0.8126,-0.7955,-0.772,-0.7619,-0.7827,-0.8244,-0.85,-0.8265,-0.7864,-0.7411,-0.6946,-0.6386,-0.5729,-0.5003,-0.4287,-0.3636,-0.2926,-0.2178,-0.1591,-0.1153,-0.0828,-0.0534,-0.0278,-0.008,0.0075,0.0144,0.0182,0.0262,-0.2995,-0.362,-0.3994,-0.4191,-0.4325,-0.4501,-0.4688,-0.2018,0,-0.6487,-0.6402,-0.5045,-0.7379,-0.7411,-0.7581,-0.7736,-0.7886,-0.8003,-0.8073,-0.8062,-0.7939,-0.7758,-0.7667,-0.7806,-0.819,-0.8361,-0.8046,-0.7395,-0.6802,-0.6247,-0.5665,-0.5051,-0.4544,-0.4159,-0.3716,-0.3193,-0.268,-0.2216,-0.1783,-0.1335,-0.095,-0.0609,-0.0288,0.0016,0.0326,0.0646,-0.3145,-0.3903,-0.4277,-0.4437,-0.4474,-0.4458,-0.4399,-0.4191,-0.2141,-0.598,-0.6364,0,-0.6898,-0.6743,-0.6791,-0.716,-0.7496,-0.7768,-0.7966,-0.8062,-0.8035,-0.7929,-0.7811,-0.7758,-0.788,-0.8238,-0.8308,-0.7603,-0.6572,-0.5723,-0.5003,-0.4335,-0.3844,-0.3529,-0.3358,-0.3251,-0.3086,-0.2872,-0.2632,-0.2306,-0.1943,-0.1484,-0.0972,-0.0464,-0.008,0.0149,-0.2734,-0.3892,-0.4389,-0.4565,-0.4586,-0.457,-0.4554,-0.4463,-0.441,-0.5003,-0.5392,-0.2194,-0.527,-0.5334,-0.5408,-0.6722,-0.7218,-0.7581,-0.7854,-0.8009,-0.8025,-0.7955,-0.788,-0.7816,-0.7774,-0.7902,-0.8228,-0.8094,-0.6962,-0.5793,-0.4821,-0.3978,-0.33,-0.2867,-0.2707,-0.2734,-0.2744,-0.2707,-0.2638,-0.244,-0.2136,-0.1735,-0.1287,-0.087,-0.0625,-0.0662,-0.1735,-0.3321,-0.4159,-0.4474,-0.4544,-0.456,-0.4618,-0.464,-0.4618,-0.4709,-0.4698,-0.4431,-0.4335,-0.3769,-0.457,-0.7106,-0.7229,-0.7475,-0.7768,-0.7929,-0.7945,-0.7875,-0.7784,-0.7699,-0.7619,-0.7581,-0.7715,-0.788,-0.7208,-0.6071,-0.5045,-0.4175,-0.338,-0.2824,-0.2525,-0.2467,-0.2445,-0.2408,-0.2339,-0.2152,-0.1901,-0.1666,-0.142,-0.1239,-0.1175,-0.1356,-0.1196,-0.2322,-0.3406,-0.4074,-0.4245,-0.4357,-0.4682,-0.48,-0.4805,-0.4794,-0.4736,-0.4581,-0.4394,-0.3759,0,-0.7614,-0.7395,-0.74,-0.7726,-0.7854,-0.7816,-0.7694,-0.7544,-0.7411,-0.7293,-0.7181,-0.7117,-0.716,-0.6877,-0.6055,-0.5184,-0.4346,-0.3583,-0.3006,-0.2638,-0.2504,-0.2493,-0.2424,-0.2312,-0.2098,-0.1837,-0.1671,-0.1532,-0.1474,-0.1554,-0.1794,-0.126,-0.0844,-0.212,-0.3342,-0.3572,-0.3823,-0.5024,-0.5131,-0.5067,-0.4949,-0.4816,-0.4666,-0.4538,-0.4383,-0.2104,0,-0.7464,-0.7352,-0.7854,-0.7806,-0.7667,-0.7459,-0.7229,-0.7016,-0.685,-0.6695,-0.6524,-0.6428,-0.6279,-0.5777,-0.5109,-0.4319,-0.3636,-0.3081,-0.2707,-0.2531,-0.2499,-0.2376,-0.2301,-0.2146,-0.1879,-0.1741,-0.1607,-0.1532,-0.1607,-0.1815,0,0.031,-0.1356,-0.2686,-0.2499,-0.3449,-0.6135,-0.5665,-0.5376,-0.5115,-0.488,-0.4634,-0.4405,-0.417,-0.4116,-0.1959,0,-0.7352,-0.8489,-0.78,-0.7501,-0.7202,-0.6887,-0.6604,-0.6375,-0.6177,-0.5974,-0.582,-0.5723,-0.5457,-0.4896,-0.4164,-0.3502,-0.2974,-0.2589,-0.2381,-0.2312,-0.2157,-0.2146,-0.2125,-0.1917,-0.1746,-0.1671,-0.1628,-0.1676,-0.1853,0,-0.0091,0,-0.2648,-0.1874,0,-0.6476,-0.5862,-0.5515,-0.5206,-0.4939,-0.4666,-0.4341,-0.3759,-0.4068,-0.3892,-0.1799,0,-0.7357,-0.7544,-0.7261,-0.6925,-0.6556,-0.6209,-0.5916,-0.5675,-0.5451,-0.5296,-0.5275,-0.5152,-0.456,-0.3919,-0.3278,-0.2808,-0.2461,-0.2232,-0.2088,-0.1901,-0.1949,-0.1997,-0.1815,-0.1618,-0.158,-0.1692,-0.1831,-0.1991,0,-0.0699,0.0,-0.2835,0,-0.1313,-0.535,-0.5505,-0.5408,-0.5211,-0.5045,-0.4891,-0.4613,-0.3449,-0.4656,-0.4175,-0.3817,0,-0.5723,-0.7752,-0.7096,-0.662,-0.6193,-0.582,-0.5494,-0.5206,-0.4955,-0.4784,-0.4794,-0.472,-0.4138,-0.3599,-0.307,-0.2686,-0.2445,-0.2248,-0.2007,-0.1805,-0.1895,-0.197,-0.1778,-0.1543,-0.1436,-0.1559,-0.1735,-0.1885,0,0,0,0,0,-0.2621,-0.4837,-0.52,-0.5238,-0.5174,-0.5179,-0.5286,-0.528,0,-0.535,-0.4725,-0.3721,0,0,-0.7523,-0.6706,-0.6161,-0.5734,-0.5387,-0.5067,-0.4762,-0.4474,-0.4266,-0.4218,-0.4159,-0.3796,-0.3358,-0.2947,-0.2648,-0.2488,-0.2312,-0.2029,-0.1842,-0.1917,-0.1991,-0.1789,-0.1564,-0.1431,-0.1442,-0.149,-0.157,0,0,0,0,0,0,-0.4629,-0.4933,-0.5029,-0.5072,-0.5168,-0.5328,-0.5376,-0.2456,-0.5499,-0.5542,-0.3401,0,0,-0.6359,-0.5974,-0.551,-0.5152,-0.4885,-0.4624,-0.433,-0.4031,-0.3769,-0.3636,-0.3593,-0.3465,-0.3214,-0.292,-0.2648,-0.2467,-0.2269,-0.2018,-0.189,-0.1938,-0.1938,-0.1762,-0.157,-0.1436,-0.1383,-0.1356,-0.1356,0,0,0,0,0,0,-0.3764,-0.4506,-0.4843,-0.4971,-0.5115,-0.5206,-0.5227,-0.5195,-0.5766,-0.6321,0,0,0,-0.5515,-0.5264,-0.4805,-0.4512,-0.4341,-0.4154,-0.3919,-0.3647,-0.338,-0.3198,-0.3129,-0.3065,-0.2947,-0.2771,-0.2568,-0.2387,-0.221,-0.2034,-0.1911,-0.1858,-0.1783,-0.1666,-0.1527,-0.141,-0.134,-0.1281,-0.1249,0,0,0,0,0,0,-0.3241,-0.4148,-0.4949,-0.5019,-0.5174,-0.528,-0.5344,-0.5403,-0.5638,-0.5702,-0.1895,-0.1687,0,-0.4752,-0.456,-0.4063,-0.3849,-0.378,-0.3695,-0.354,-0.3332,-0.3086,-0.2888,-0.2798,-0.2712,-0.2605,-0.2488,-0.2371,-0.2269,-0.2162,-0.2024,-0.1842,-0.1687,-0.158,-0.1516,-0.1447,-0.1383,-0.1319,-0.1239,-0.1185,0,0,0,0,0,0,0,-0.402,-0.5494,-0.5206,-0.5243,-0.5334,-0.5376,-0.5371,-0.5302,-0.4992,-0.4148,-0.3695,0,-0.3962,-0.3775,-0.33,-0.3198,-0.3246,-0.3262,-0.3193,-0.3033,-0.2808,-0.2621,-0.2525,-0.2488,-0.2424,-0.2333,-0.2237,-0.2157,-0.2056,-0.1895,-0.1676,-0.1474,-0.1351,-0.1324,-0.134,-0.1345,-0.1297,-0.1212,-0.1148,0,0,0,-0.0497,-0.0598,0,0,0,-0.5264,-0.5147,-0.5211,-0.5355,-0.5462,-0.5553,-0.5595,-0.5483,-0.4976,-0.3764,0,-0.2985,-0.2846,-0.2547,-0.2605,-0.275,-0.2846,-0.283,-0.2691,-0.2509,-0.2381,-0.2322,-0.2333,-0.2317,-0.2242,-0.2152,-0.205,-0.1917,-0.1719,-0.1474,-0.126,-0.1148,-0.1164,-0.1233,-0.1255,-0.1223,-0.1164,-0.1116,0,0,-0.0219,-0.0844,-0.1052,-0.0384,0.0,0.0,-0.5195,-0.5099,-0.5142,-0.5339,-0.5558,-0.583,-0.6161,-0.6508,-0.6503,-0.3502,0,-0.1463,-0.1831,-0.1885,-0.2082,-0.229,-0.2424,-0.2413,-0.2312,-0.221,-0.2162,-0.2162,-0.2189,-0.2168,-0.2104,-0.2013,-0.1911,-0.1757,-0.1543,-0.1287,-0.1089,-0.102,-0.1062,-0.1116,-0.1111,-0.1084,-0.1057,-0.1046,0,0,0.0246,-0.0689,-0.0913,-0.0769,0,0,-0.5206,-0.4928,-0.496,-0.5184,-0.5489,-0.591,-0.6567,-0.7576,-0.8372,0,0.126,-0.0347,-0.1078,-0.1377,-0.1634,-0.1863,-0.2002,-0.1991,-0.1922,-0.1901,-0.1949,-0.2024,-0.2056,-0.2024,-0.1943,-0.1853,-0.1751,-0.1602,-0.1377,-0.1121,-0.094,-0.0897,-0.0956,-0.1004,-0.0993,-0.0956,-0.094,-0.0945,-0.008,-0.0406,0.0144,0,0,0,0,0,-0.4202,-0.4293,-0.4517,-0.48,-0.5115,-0.5489,-0.6033,-0.6818,-0.7186,-0.1442,0.0982,-0.0459,-0.0822,-0.1078,-0.1297,-0.1522,-0.1655,-0.1639,-0.157,-0.1591,-0.1746,-0.1901,-0.1959,-0.1906,-0.1789,-0.1682,-0.1575,-0.1426,-0.1196,-0.0924,-0.0731,-0.0689,-0.0785,-0.0902,-0.0934,-0.0913,-0.0886,-0.0881,-0.016,-0.04,-0.0481,-0.0635,-0.1276,0,0,0,-0.3187,-0.354,-0.3924,-0.4245,-0.4512,-0.4661,-0.4778,-0.4907,-0.4634,-0.2899,-0.1084,-0.0897,-0.0854,-0.094,-0.1089,-0.1276,-0.1415,-0.1393,-0.1281,-0.1308,-0.1527,-0.1757,-0.1853,-0.1821,-0.1623,-0.1495,-0.1388,-0.1239,-0.0982,-0.0667,-0.0416,-0.0342,-0.0507,-0.0796,-0.0924,-0.0945,-0.0929,-0.0876,0,0.0224,-0.0107,-0.0972,-0.2349,-0.1484,0,0,-0.2045,-0.2718,-0.3241,-0.3604,-0.3871,-0.3748,-0.3486,-0.3577,-0.4063,-0.2985,-0.1735,-0.1052,-0.0844,-0.086,-0.0966,-0.1121,-0.1271,-0.1249,-0.1078,-0.1014,-0.126,-0.1522,-0.1682,-0.1805,-0.1399,-0.1281,-0.1223,-0.1089,-0.078,-0.0336,0.0,0.023,0.0005,-0.0715,-0.0924,-0.0977,-0.1004,-0.0908,0.0731,0.0924,0.0459,-0.0304,-0.1506,-0.2333,-0.0924,-0.0956,-0.173,-0.1991,-0.2493,-0.2883,-0.3438,-0.2888,-0.2835,-0.2969,-0.4805,-0.3262,-0.1997,-0.0747,-0.0705,-0.079,-0.0918,-0.1009,-0.1121,-0.1105,-0.102,-0.0833,-0.1111,-0.1383,-0.157,-0.2082,-0.1004,-0.0876,-0.1073,-0.102,-0.0705,0.0043,0.0427,0.1084,0.149,-0.0689,-0.095,-0.0902,-0.1052,-0.0972,0.1468,0.1698,0.1121,0.0368,-0.0523,-0.1377,-0.1719,-0.189,-0.2093,-0.1682,-0.2098,-0.2488,-0.3908,-0.3417,0,0,-0.5553,-0.2947,-0.2253,-0.0208,-0.0619,-0.0753,-0.0908,-0.0961,-0.102,-0.1004,-0.1036,-0.2723,0,0,0,-0.0454,-0.0208,0.0176,-0.1004,-0.1009,-0.1084,0.039,0.0331,0.1073,0.1789,0,0.3027,-0.0822,-0.1062,-0.1014,0,0.1986,0.1703,0.095,0.0048,-0.0849,-0.141,-0.1709,-0.1943,0,0,0,-0.3332,-0.3481,-0.1276,-0.1618,0,-0.0945,-0.2419,-0.1714,0,0,0,0,0,0,0,-0.205,-0.0699,-0.039,-0.031,0.0844,-0.0149,-0.0422,0,0,-0.0005,0.0641,0.0043,0.0566,0.094,0.0758,0.6097,0,0,0,0,0,0.1975,0.1361,0.0358,-0.0523,-0.1041,-0.126,-0.1196,-0.0251,-0.0288,-0.0368,-0.1692,-0.2125,-0.2173,-0.2493,-0.0448,0.031,-0.1698,-0.2664,-0.0961,-0.0614,-0.047,-0.047,-0.0529,-0.0363,-0.0358,0.0166,-0.1159,-0.0726,-0.0491,0.0091,-0.0539,-0.1393,-0.0507,-0.0443,0.0198,-0.0336,0,0,0,0.1874,0.3599,-0.0443,-0.0731,0,0,0,0,0.15,0.0443,-0.0406,-0.0854,-0.0966,-0.0011,-0.0214,-0.047,-0.0523,-0.0886,-0.1255,-0.1431,-0.1393,-0.0828,-0.0176,-0.078,-0.1628,-0.1377,-0.103,-0.0763,-0.0977,-0.1687,-0.1671,-0.0715,-0.0219,-0.0924,-0.0667,-0.0192,-0.0059,-0.0294,-0.1014,-0.1399,-0.0892,-0.1057,-0.1415,0.0,0.0,0.0358,0.1943,0.1249,-0.078,-0.1367,0,0,0,0,0,0,0,0,0,0.0662,0.008,-0.0358,0.0139,-0.0262,-0.0667,-0.0849,-0.0838,-0.0646,-0.0454,-0.0603,-0.141,-0.0828,-0.0828,-0.0587,-0.1009,-0.2317,-0.2616,0,0,0,0,-0.0016,-0.0027,0.0123,-0.0689,-0.1538,0,0,0,0,0,0.1367,0.1383,0.0272,-0.0753,-0.1265,0,0,0,0,0,0,0,0,0,0,0,0,0.0593,0.0027,-0.0459,-0.0635,-0.063,-0.0539,-0.0475,-0.0587,-0.1404,0,0,0,0,0,0,0,0,0,0,0,0,0.0384,-0.0347,-0.1292,0,0,0,0,0,0.2157,0.1159,0.0117,-0.0956,-0.1329,0,0,0,0,0,0,0,0,0,0,0,0,0,0,0,0,0,0,0,0,0,0,0,0,0,0,0,0,0,0,0,0,0,0,0,0,0,0,0,0,0,0.2264,0.1447,0.0272,-0.1185,-0.1522,0,0,0,0,0,0,0,0,0,0,0,0,0,0,0,0,0,0,0,0,0,0,0,0,0,0,0,0,0,0,0,0,0,0,0,0,0,0,0,0,0,0.2104,0.1714,0.0598,-0.1287,-0.1842,0,0,0,0,0,0,0,0,0,0,0,0,0,0,0,0,0,0,0,0,0,0,0,0,0,0,0,0,0,0,0,0,0,0,0,0,0,0,0,0,0,0,0.2248,0.1233,-0.0993,-0.2093,0,0,0,0,0,0,0,0,0,0,0,0,0,0,0,0,0,0,0,0,0,0,0,0,0,0,0,0,0,0,0,0,0,0,0,0,0,0,0,0,0,0,0.2509,0.1639,-0.0561,-0.2184,0,0,0,0,0,0,0,0,0,0,0,0,0,0,0,0,0,0,0,0,0,0,0,0,0,0,0,0,0,0,0,0,0,0,0,0,0,0,0,0,0,0,0.213,0.1249,-0.0358,-0.2168,0,0,0,0,0,0,0,0,0,0,0,0,0,0,0,0,0,0,0,0,0,0,0,0,0,0,0,0,0,0,0,0,0,0,0,0,0,0,0,0,0,0,0.1991,0.1014,-0.0032,-0.2306,0]}]],[[{"header":{"parameterUnit":"kt","parameterCategory":2,"dx":1,"dy":1,"la1":29.46422004699707,"la2":30.564109802246094,"lo1":-89.4342041015625,"lo2":-87.934326171875,"nx":46,"ny":34,"refTime":"2022-09-26T00:00:00:Z","depth":"2","parameterNumber":2,"parameterNumberName":"U-component_of_CURRENTS"},"data":[-0.2328,-0.2056,-0.1735,-0.1415,-0.1062,-0.0651,-0.0432,0,-0.0758,-0.0998,-0.0395,-0.086,-0.1559,-0.1927,-0.2595,-0.3342,-0.4058,-0.4746,-0.5339,-0.5782,-0.6076,-0.638,-0.6919,-0.7736,-0.85,-0.8745,-0.8676,-0.8719,-0.8943,-0.9269,-0.961,-0.9984,-1.0331,-1.0598,-1.0657,-1.0486,-1.0155,-0.9738,-0.9338,-0.9034,-0.8793,-0.8564,-0.835,-0.826,-0.835,-0.8633,-0.2258,-0.204,-0.1831,-0.1666,-0.158,-0.1703,-0.2162,-0.2483,0,-0.0096,-0.0027,-0.1393,-0.2696,-0.2568,-0.3022,-0.3748,-0.441,-0.4976,-0.5435,-0.5804,-0.6087,-0.6247,-0.6332,-0.654,-0.7085,-0.7768,-0.7977,-0.7752,-0.771,-0.7918,-0.8169,-0.8446,-0.8863,-0.9488,-1.0187,-1.0806,-1.1239,-1.1378,-1.1148,-1.07,-1.0288,-0.9979,-0.9771,-0.9776,-1.0043,-1.0523,-0.2045,-0.2018,-0.1917,-0.1826,-0.1757,-0.1687,-0.1596,-0.1372,-0.0043,0.0614,0.0107,0,-0.0934,-0.2376,-0.3364,-0.4218,-0.4832,-0.5254,-0.5553,-0.5766,-0.5948,-0.6092,-0.6151,-0.6151,-0.6268,-0.669,-0.7293,-0.756,-0.7571,-0.7576,-0.7598,-0.779,-0.8169,-0.8692,-0.9258,-0.9744,-1.0118,-1.0465,-1.0876,-1.1276,-1.1548,-1.1709,-1.1863,-1.2072,-1.2264,-1.2264,-0.1111,-0.158,-0.1757,-0.1837,-0.1874,-0.1879,-0.1837,-0.1714,-0.1506,-0.1682,-0.2563,-0.197,-0.1399,-0.2686,-0.4164,-0.5077,-0.5339,-0.5537,-0.5659,-0.5734,-0.5804,-0.5878,-0.5932,-0.5942,-0.598,-0.6183,-0.6695,-0.7347,-0.7742,-0.7961,-0.8067,-0.8137,-0.8345,-0.8623,-0.8959,-0.9386,-0.9883,-1.0358,-1.0726,-1.0972,-1.1169,-1.1479,-1.1949,-1.2419,-1.2627,-1.2493,0.0342,-0.0635,-0.1297,-0.1676,-0.1906,-0.204,-0.2077,-0.204,-0.1959,-0.1938,-0.2002,-0.204,-0.221,-0.3027,-0.5088,-0.6151,-0.5702,-0.5659,-0.5654,-0.5627,-0.5627,-0.5649,-0.5659,-0.5665,-0.5702,-0.582,-0.6108,-0.6674,-0.7485,-0.8249,-0.8591,-0.8617,-0.8575,-0.85,-0.8585,-0.8788,-0.8938,-0.9092,-0.9429,-0.9941,-1.0502,-1.094,-1.1223,-1.1404,-1.1415,-1.1207,0.0747,0.0288,-0.0694,-0.1474,-0.1981,-0.2328,-0.2424,-0.2322,-0.2205,-0.2136,-0.2109,-0.2029,-0.1783,-0.1607,0,-0.2814,-0.5585,-0.5542,-0.5499,-0.5392,-0.5344,-0.5334,-0.5318,-0.5318,-0.5355,-0.5398,-0.5499,-0.59,-0.677,-0.7784,-0.8543,-0.8986,-0.9205,-0.9295,-0.9311,-0.9237,-0.9028,-0.8847,-0.8911,-0.905,-0.9071,-0.9119,-0.9311,-0.9514,-0.96,-0.9541,0.2339,0.1468,-0.0085,-0.1239,-0.2061,-0.2787,-0.2899,-0.2536,-0.2301,-0.2173,-0.2125,-0.2152,-0.2306,-0.2541,-0.2654,0,-0.2755,-0.5457,-0.5248,-0.5008,-0.4933,-0.4901,-0.488,-0.4885,-0.4912,-0.4917,-0.4907,-0.5104,-0.574,-0.6626,-0.7544,-0.8281,-0.8708,-0.897,-0.906,-0.8964,-0.8644,-0.8398,-0.8527,-0.8644,-0.8462,-0.8201,-0.8089,-0.8174,-0.8334,-0.8441,0,-0.0347,-0.0694,-0.0945,-0.1751,-0.3086,-0.3246,-0.2408,-0.2114,-0.2002,-0.1954,-0.1943,-0.1991,-0.2157,-0.2339,-0.2408,0,-0.2638,-0.4869,-0.4415,-0.4367,-0.4373,-0.4373,-0.4389,-0.4415,-0.4421,-0.4405,-0.4485,-0.4843,-0.5419,-0.6188,-0.7048,-0.7731,-0.8169,-0.8366,-0.8356,-0.8126,-0.7875,-0.7923,-0.8035,-0.7763,-0.7501,-0.7608,-0.7726,-0.771,-0.7587,0,-0.1292,0,-0.0053,-0.0107,0,-0.0651,-0.1431,-0.1602,-0.165,-0.1618,-0.1543,-0.1522,-0.1842,-0.2098,-0.2077,-0.2104,0,-0.1564,-0.3385,-0.3689,-0.3791,-0.3828,-0.386,-0.3898,-0.3946,-0.3999,-0.4122,-0.4485,-0.5019,-0.5478,-0.6071,-0.677,-0.7266,-0.7517,-0.7581,-0.7443,-0.7315,-0.7464,-0.7453,-0.7048,-0.6759,-0.6898,-0.7245,-0.7437,-0.7411,0,0.0822,0.094,0.0897,0,0.0149,-0.024,-0.1009,-0.1324,-0.141,-0.1335,-0.11,-0.071,-0.1329,-0.1746,-0.1057,-0.0806,0,-0.1959,-0.3572,-0.3193,-0.3203,-0.3273,-0.3348,-0.3428,-0.354,-0.3679,-0.3844,-0.417,-0.4736,-0.5232,-0.5585,-0.6012,-0.6455,-0.6733,-0.6802,-0.6706,-0.6674,-0.6813,-0.6711,-0.6444,-0.6348,-0.6364,-0.6476,-0.6685,-0.6925,0,0,0,0,0,-0.0678,-0.1292,-0.1276,-0.1372,-0.142,-0.1361,-0.1148,-0.0993,0,-0.0085,-0.0027,0.0117,0,0,-0.0833,-0.2002,-0.2467,-0.2728,-0.2904,-0.3065,-0.3235,-0.3438,-0.3652,-0.3972,-0.456,-0.5227,-0.5638,-0.5793,-0.5846,-0.5948,-0.6076,-0.6241,-0.6402,-0.6439,-0.6247,-0.6044,-0.6044,-0.6119,-0.6236,-0.6364,-0.6498,0,0,0,0,0,0,-0.0539,-0.1212,-0.1431,-0.157,-0.1698,-0.1933,-0.2312,-0.1068,0.04,0.0812,0.1217,0,0,-0.0593,-0.1516,-0.2018,-0.2355,-0.2616,-0.284,-0.3043,-0.3246,-0.347,-0.3759,-0.4164,-0.4629,-0.5077,-0.5382,-0.5515,-0.5638,-0.5852,-0.6065,-0.6145,-0.6038,-0.5894,-0.5884,-0.5942,-0.6033,-0.6177,-0.6289,-0.6327,0,0,0,0,0,0,-0.0641,-0.1442,-0.1644,-0.1725,-0.1767,-0.1773,-0.1671,-0.1351,-0.094,-0.0758,0,0,0,-0.0513,-0.1303,-0.1789,-0.2162,-0.2488,-0.2744,-0.2931,-0.3081,-0.3241,-0.3428,-0.3636,-0.3898,-0.4202,-0.4538,-0.4891,-0.5254,-0.5494,-0.5542,-0.5489,-0.5505,-0.5617,-0.5718,-0.5804,-0.5953,-0.6129,-0.6236,-0.6241,0,0,0,0,0,0,-0.0934,-0.2007,-0.2034,-0.1906,-0.1874,-0.1885,-0.1917,-0.2007,-0.2413,-0.3406,-0.3022,-0.1981,0,-0.0497,-0.1239,-0.1725,-0.212,-0.2456,-0.2707,-0.2867,-0.2985,-0.3113,-0.3268,-0.3438,-0.3641,-0.3882,-0.4154,-0.4431,-0.4677,-0.488,-0.5061,-0.5232,-0.5371,-0.5473,-0.5579,-0.574,-0.5942,-0.6119,-0.6193,-0.6177,0,0,0,0,0,0,0,-0.1276,-0.2253,-0.1906,-0.1853,-0.1858,-0.1858,-0.1815,-0.1762,-0.165,-0.126,-0.095,0,-0.0507,-0.1287,-0.1794,-0.2178,-0.2499,-0.2739,-0.2931,-0.3118,-0.3342,-0.3588,-0.3828,-0.4031,-0.4213,-0.4367,-0.4506,-0.4656,-0.4821,-0.5008,-0.5195,-0.5366,-0.5505,-0.5649,-0.5825,-0.6017,-0.6156,-0.6193,-0.6156,0,0,0,-0.0133,-0.0267,0,0,0,-0.0651,-0.1479,-0.1714,-0.1794,-0.1789,-0.166,-0.1383,-0.0913,-0.031,0.0011,0,-0.0593,-0.1527,-0.2066,-0.2413,-0.2707,-0.299,-0.3289,-0.3615,-0.3914,-0.4095,-0.4159,-0.4207,-0.4298,-0.4426,-0.4592,-0.4789,-0.4992,-0.5195,-0.5382,-0.5553,-0.5707,-0.5846,-0.599,-0.6119,-0.6193,-0.6204,-0.6161,0,0,-0.0411,-0.1111,-0.1746,-0.2472,-0.2883,-0.292,-0.2445,-0.189,-0.1831,-0.189,-0.1922,-0.1826,-0.1474,-0.071,0.0619,0.1442,0,-0.0913,-0.2178,-0.2621,-0.2872,-0.3155,-0.3486,-0.3828,-0.4122,-0.4287,-0.4341,-0.4346,-0.4373,-0.4442,-0.456,-0.473,-0.4939,-0.5179,-0.5408,-0.5611,-0.5766,-0.5884,-0.5996,-0.6103,-0.6183,-0.6215,-0.6215,-0.6188,0,0,-0.0769,-0.1367,-0.103,-0.0876,0,0,-0.0555,-0.1345,-0.1751,-0.2066,-0.2317,-0.2467,-0.2451,-0.2072,-0.1751,0,-0.1719,-0.3417,-0.3417,-0.3417,-0.3497,-0.3668,-0.3892,-0.4111,-0.4298,-0.4415,-0.4485,-0.4533,-0.4581,-0.4645,-0.4741,-0.4885,-0.5077,-0.5307,-0.5537,-0.5718,-0.5841,-0.5932,-0.6017,-0.6103,-0.6161,-0.6199,-0.622,-0.6225,-0.0513,-0.1281,-0.1532,0,0,0,0,0,-0.0529,-0.1372,-0.1943,-0.244,-0.2926,-0.3486,-0.4341,-0.5916,-0.8639,-0.9568,-0.7256,-0.5227,-0.4463,-0.4106,-0.3988,-0.4031,-0.4148,-0.4271,-0.4373,-0.4474,-0.4597,-0.4725,-0.4816,-0.4853,-0.488,-0.4944,-0.5061,-0.5243,-0.5446,-0.5622,-0.5761,-0.5894,-0.6006,-0.6071,-0.6108,-0.6145,-0.6199,-0.6236,-0.094,-0.0993,-0.15,-0.1532,-0.1463,0,0,0,-0.0582,-0.1538,-0.2221,-0.2819,-0.3412,-0.4111,-0.5051,-0.6241,-0.74,-0.7715,-0.6781,-0.559,-0.4901,-0.4512,-0.4314,-0.425,-0.4282,-0.4362,-0.4453,-0.456,-0.4698,-0.4848,-0.4933,-0.4907,-0.4853,-0.4837,-0.4869,-0.4955,-0.5104,-0.5312,-0.5563,-0.5836,-0.606,-0.6129,-0.6103,-0.6097,-0.6135,-0.6177,0,-0.032,-0.0806,-0.1223,-0.1655,-0.1837,0,0,-0.0667,-0.1719,-0.2419,-0.3027,-0.3583,-0.4245,-0.5211,-0.6321,-0.6861,-0.6599,-0.5996,-0.5376,-0.4965,-0.464,-0.4394,-0.4277,-0.4298,-0.4394,-0.4469,-0.4538,-0.464,-0.4778,-0.4896,-0.4821,-0.4693,-0.464,-0.4581,-0.456,-0.4608,-0.4784,-0.5126,-0.5606,-0.6108,-0.6295,-0.6193,-0.6076,-0.6001,-0.5985,0.2216,0.0876,0.024,-0.0336,-0.1212,-0.2413,-0.275,-0.2178,-0.1671,-0.1709,-0.2296,-0.2926,-0.3284,-0.3679,-0.4773,-0.6305,-0.6402,-0.5542,-0.5152,-0.4912,-0.473,-0.449,-0.4287,-0.4223,-0.4357,-0.4672,-0.5056,-0.5216,-0.4869,-0.4453,-0.456,-0.4517,-0.4383,-0.441,-0.4341,-0.4255,-0.4186,-0.4197,-0.4373,-0.4944,-0.6188,-0.6685,-0.6225,-0.6038,-0.582,-0.5702,0.0801,0.1426,0.1046,0.0593,0.008,-0.0448,-0.0812,-0.0934,-0.0806,-0.0913,-0.157,-0.2552,-0.2568,-0.2013,0,0,-0.2018,-0.4672,-0.5638,-0.6273,-0.5798,-0.4602,-0.4047,-0.3791,-0.3652,-0.3705,-0.3967,-0.4154,0,0,0,-0.1746,-0.3951,-0.4698,-0.4618,-0.4036,-0.3647,-0.3465,-0.3134,-0.2253,-0.1692,0,-0.339,-0.638,-0.5761,-0.5446,0,0.0993,0.1826,0.1463,0.1089,0.0737,0.0411,0.0149,0.0043,0,0,0,-0.1084,-0.2883,-0.2888,-0.2184,0,-0.1618,-0.3647,-0.4058,0,0,0,0,0,0,0,-0.2226,-0.4074,-0.3807,-0.4127,-0.3855,-0.3086,-0.2792,0,0,-0.1885,-0.4036,-0.3476,-0.1821,-0.0069,-0.0304,-0.1458,0,0,0,0,0,0.095,0.1815,0.1687,0.1575,0.1372,0.1004,0.0331,-0.0272,-0.0555,-0.0742,-0.1185,-0.1965,-0.2702,-0.3732,-0.4469,-0.4399,-0.4837,-0.5563,-0.4907,-0.3759,-0.3353,-0.3209,-0.3134,-0.331,-0.3721,-0.3428,-0.3022,-0.3134,-0.3257,-0.3177,-0.2985,-0.3129,-0.3262,-0.3492,-0.3241,-0.2744,0,0,0,-0.0422,0.0256,0.1004,0.0747,0,0,0,0,0.0726,0.1831,0.228,0.2269,0.2093,0.1511,0.0812,0.0507,0.0256,-0.0155,-0.0657,-0.1148,-0.1612,-0.1863,-0.1623,-0.1426,-0.1554,-0.1863,-0.2157,-0.2333,-0.2824,-0.3513,-0.3422,-0.2467,-0.1644,-0.1447,-0.1468,-0.1495,-0.1527,-0.1516,-0.1458,-0.1004,-0.1014,-0.1356,-0.0945,-0.0464,-0.0251,-0.0731,-0.1084,-0.0294,0.0192,0.0166,0,0,0,0,0,0,0,0,0,0.0448,0.1185,0.1607,0.1415,0.0902,0.0593,0.0358,0.0139,0.0021,0.0091,0.023,0.0368,0.0379,0.0198,0.0085,-0.0166,-0.0924,-0.1447,0,0,0,0,0.0214,0.0694,0.0763,0.0347,0.0112,0,0,0,0,0,-0.0598,-0.094,-0.0459,-0.0133,-0.0021,0,0,0,0,0,0,0,0,0,0,0,0,0.0395,0.1004,0.1233,0.1175,0.103,0.0934,0.0897,0.0822,0.0758,0,0,0,0,0,0,0,0,0,0,0,0,0.0315,0.0667,0.0705,0,0,0,0,0,-0.0182,-0.047,-0.0598,-0.0513,-0.0358,0,0,0,0,0,0,0,0,0,0,0,0,0,0,0,0,0,0,0,0,0,0,0,0,0,0,0,0,0,0,0,0,0,0,0,0,0,0,0,0,0,-0.0059,-0.0411,-0.0801,-0.0769,-0.0539,0,0,0,0,0,0,0,0,0,0,0,0,0,0,0,0,0,0,0,0,0,0,0,0,0,0,0,0,0,0,0,0,0,0,0,0,0,0,0,0,0,-0.0021,-0.0139,-0.0432,-0.0609,-0.039,0,0,0,0,0,0,0,0,0,0,0,0,0,0,0,0,0,0,0,0,0,0,0,0,0,0,0,0,0,0,0,0,0,0,0,0,0,0,0,0,0,0,0.1698,0.0603,-0.0123,-0.0224,0,0,0,0,0,0,0,0,0,0,0,0,0,0,0,0,0,0,0,0,0,0,0,0,0,0,0,0,0,0,0,0,0,0,0,0,0,0,0,0,0,0,-0.0016,-0.0096,-0.0203,-0.0192,0,0,0,0,0,0,0,0,0,0,0,0,0,0,0,0,0,0,0,0,0,0,0,0,0,0,0,0,0,0,0,0,0,0,0,0,0,0,0,0,0,0,-0.0085,0.0,0.0011,-0.0171,0,0,0,0,0,0,0,0,0,0,0,0,0,0,0,0,0,0,0,0,0,0,0,0,0,0,0,0,0,0,0,0,0,0,0,0,0,0,0,0,0,0,0.1009,0.1393,0.016,-0.0278,0]}],[{"header":{"parameterUnit":"kt","parameterCategory":2,"dx":1,"dy":1,"la1":29.46422004699707,"la2":30.564109802246094,"lo1":-89.4342041015625,"lo2":-87.934326171875,"nx":46,"ny":34,"refTime":"2022-09-26T00:00:00:Z","depth":"2","parameterNumber":3,"parameterNumberName":"V-component_of_CURRENTS"},"data":[-0.1442,-0.1986,-0.2376,-0.2595,-0.2787,-0.3139,-0.3871,0,-0.1404,-0.4496,-0.4778,-0.4442,-0.5804,-0.6289,-0.6685,-0.6877,-0.6941,-0.6941,-0.6861,-0.6701,-0.6482,-0.6402,-0.6626,-0.7064,-0.7331,-0.7106,-0.6717,-0.6268,-0.5809,-0.5248,-0.4597,-0.3871,-0.3166,-0.252,-0.181,-0.1073,-0.0481,-0.0043,0.0278,0.0566,0.0817,0.102,0.1164,0.1228,0.1265,0.134,-0.1773,-0.2371,-0.2728,-0.2926,-0.307,-0.3257,-0.3433,-0.1367,0,-0.5179,-0.512,-0.3796,-0.606,-0.6108,-0.6268,-0.6444,-0.6599,-0.6722,-0.6797,-0.6791,-0.6679,-0.6514,-0.6444,-0.6604,-0.701,-0.7197,-0.6893,-0.6252,-0.5665,-0.5109,-0.4533,-0.3924,-0.3422,-0.3038,-0.26,-0.2088,-0.1575,-0.1111,-0.0678,-0.0235,0.0155,0.0491,0.0806,0.1105,0.1415,0.173,-0.1933,-0.2638,-0.2985,-0.3139,-0.3187,-0.3182,-0.3139,-0.291,-0.1506,-0.4704,-0.5072,0,-0.5574,-0.5451,-0.5494,-0.5862,-0.6209,-0.6482,-0.6685,-0.6786,-0.6765,-0.6663,-0.6562,-0.653,-0.6679,-0.7058,-0.7149,-0.646,-0.543,-0.4586,-0.3871,-0.3209,-0.2718,-0.2413,-0.2248,-0.2141,-0.1975,-0.1773,-0.1527,-0.1207,-0.0844,-0.039,0.0117,0.0625,0.1014,0.1244,-0.1564,-0.2638,-0.3091,-0.3251,-0.3284,-0.3278,-0.3273,-0.3198,-0.315,-0.3759,-0.4132,-0.157,-0.401,-0.4079,-0.4143,-0.5414,-0.5921,-0.6289,-0.6567,-0.6733,-0.6754,-0.669,-0.662,-0.6567,-0.6546,-0.6695,-0.7053,-0.6941,-0.582,-0.4656,-0.3684,-0.2846,-0.2168,-0.1741,-0.1586,-0.1618,-0.1634,-0.1602,-0.1532,-0.134,-0.1041,-0.0646,-0.0198,0.0219,0.0464,0.0438,-0.0635,-0.2098,-0.2872,-0.3166,-0.3241,-0.3262,-0.3326,-0.3364,-0.3364,-0.346,-0.346,-0.3187,-0.3107,-0.2536,-0.331,-0.5788,-0.591,-0.6177,-0.6476,-0.6652,-0.6674,-0.661,-0.653,-0.6455,-0.638,-0.6359,-0.6514,-0.6717,-0.606,-0.4928,-0.3908,-0.3043,-0.2248,-0.1698,-0.1404,-0.1345,-0.1324,-0.1297,-0.1233,-0.1052,-0.0806,-0.0577,-0.0336,-0.0149,-0.0085,-0.0267,-0.0176,-0.1153,-0.2157,-0.2787,-0.2958,-0.307,-0.339,-0.3518,-0.354,-0.354,-0.3486,-0.3342,-0.3166,-0.2515,0,-0.6263,-0.6071,-0.6087,-0.6428,-0.6572,-0.6551,-0.6439,-0.63,-0.6172,-0.606,-0.5958,-0.591,-0.598,-0.5723,-0.4912,-0.4042,-0.3209,-0.2451,-0.1874,-0.1511,-0.1388,-0.1383,-0.1313,-0.1207,-0.0998,-0.0742,-0.0587,-0.0448,-0.039,-0.047,-0.071,-0.0272,0.0246,-0.0918,-0.2098,-0.2306,-0.2536,-0.3721,-0.3839,-0.3785,-0.3689,-0.3561,-0.3417,-0.3305,-0.3145,-0.1474,0,-0.6119,-0.6028,-0.6546,-0.6524,-0.6407,-0.6209,-0.599,-0.5793,-0.5633,-0.5483,-0.5323,-0.5243,-0.5115,-0.4629,-0.3967,-0.3182,-0.2499,-0.1949,-0.158,-0.141,-0.1383,-0.1265,-0.1196,-0.1046,-0.079,-0.0651,-0.0523,-0.0454,-0.0534,-0.0742,0,0.1324,-0.0176,-0.1468,-0.126,-0.2162,-0.4789,-0.4351,-0.4084,-0.3844,-0.3625,-0.339,-0.3166,-0.2947,-0.2872,-0.1335,0,-0.6017,-0.7154,-0.6519,-0.6241,-0.5964,-0.5665,-0.5387,-0.5168,-0.4976,-0.4784,-0.464,-0.4565,-0.4303,-0.3753,-0.3027,-0.2371,-0.1847,-0.1468,-0.1265,-0.1201,-0.1046,-0.1041,-0.103,-0.0828,-0.0662,-0.0587,-0.055,-0.0609,-0.0785,0,0.087,0,-0.1458,-0.0641,0,-0.5109,-0.4544,-0.4218,-0.393,-0.3684,-0.3428,-0.3113,-0.2536,-0.2851,-0.2664,-0.1164,0,-0.6022,-0.6263,-0.6006,-0.5691,-0.5339,-0.5003,-0.4725,-0.4485,-0.4271,-0.4122,-0.4111,-0.3999,-0.3412,-0.2782,-0.2146,-0.1687,-0.1345,-0.1116,-0.0977,-0.0801,-0.0849,-0.0908,-0.0737,-0.0539,-0.0507,-0.0619,-0.0763,-0.0929,0,0.0235,0.0,-0.1655,0,-0.0657,-0.4031,-0.4197,-0.4111,-0.394,-0.3796,-0.3657,-0.338,-0.2226,-0.3428,-0.2979,-0.2557,0,-0.4421,-0.6455,-0.5846,-0.5398,-0.4987,-0.4624,-0.4309,-0.4031,-0.3785,-0.362,-0.3636,-0.3572,-0.3001,-0.2461,-0.1938,-0.1559,-0.1324,-0.1132,-0.0902,-0.0705,-0.0801,-0.0886,-0.0699,-0.047,-0.0368,-0.0491,-0.0673,-0.0822,0,0,0,0,0,-0.1313,-0.355,-0.3903,-0.3956,-0.3919,-0.394,-0.4052,-0.4031,0,-0.4111,-0.3529,-0.2472,0,0,-0.6215,-0.5473,-0.4949,-0.4538,-0.4202,-0.3892,-0.3593,-0.3316,-0.3107,-0.3065,-0.3011,-0.2659,-0.2221,-0.1815,-0.1522,-0.1367,-0.1201,-0.0924,-0.0737,-0.0822,-0.0908,-0.071,-0.0491,-0.0363,-0.0379,-0.0438,-0.0518,0,0,0,0,0,0,-0.3348,-0.3668,-0.3775,-0.3839,-0.394,-0.41,-0.4148,-0.1847,-0.4282,-0.4314,-0.2157,0,0,-0.5072,-0.4768,-0.4319,-0.3978,-0.3716,-0.346,-0.3171,-0.2878,-0.2621,-0.2493,-0.2451,-0.2328,-0.2082,-0.1789,-0.1522,-0.1351,-0.1159,-0.0913,-0.0785,-0.0844,-0.0849,-0.0683,-0.0497,-0.0374,-0.0326,-0.031,-0.0315,0,0,0,0,0,0,-0.2515,-0.3278,-0.3615,-0.3753,-0.3898,-0.3994,-0.402,-0.3983,-0.456,-0.5083,0,0,0,-0.4261,-0.4079,-0.3641,-0.3358,-0.3187,-0.3006,-0.2771,-0.2504,-0.2237,-0.2061,-0.1997,-0.1933,-0.1815,-0.1644,-0.1447,-0.1271,-0.11,-0.0929,-0.0812,-0.0763,-0.0699,-0.0593,-0.0464,-0.0352,-0.0294,-0.0246,-0.0219,0,0,0,0,0,0,-0.2018,-0.2931,-0.3721,-0.3807,-0.3962,-0.4068,-0.4143,-0.4207,-0.4447,-0.4506,-0.1313,-0.1084,0,-0.3534,-0.3396,-0.2926,-0.2712,-0.2648,-0.2563,-0.2413,-0.2205,-0.1959,-0.1767,-0.1671,-0.1591,-0.1484,-0.1367,-0.1255,-0.1159,-0.1052,-0.0913,-0.0742,-0.0593,-0.0502,-0.0448,-0.0395,-0.0336,-0.0283,-0.0214,-0.0166,0,0,0,0,0,0,0,-0.2798,-0.425,-0.3994,-0.4036,-0.4127,-0.418,-0.4186,-0.4127,-0.3833,-0.3001,-0.2504,0,-0.2771,-0.2638,-0.2184,-0.2088,-0.213,-0.2146,-0.2082,-0.1922,-0.1692,-0.15,-0.141,-0.1367,-0.1303,-0.1212,-0.1127,-0.1046,-0.095,-0.079,-0.0577,-0.0384,-0.0278,-0.0262,-0.0294,-0.031,-0.0272,-0.0198,-0.0144,0,0,0,-0.0069,-0.0133,0,0,0,-0.4031,-0.3946,-0.402,-0.4164,-0.4277,-0.4373,-0.4421,-0.4319,-0.3823,-0.2589,0,-0.1826,-0.1735,-0.1452,-0.1511,-0.1655,-0.1751,-0.173,-0.1586,-0.1399,-0.1265,-0.1212,-0.1223,-0.1201,-0.1132,-0.1046,-0.0945,-0.0812,-0.0619,-0.0379,-0.0171,-0.0075,-0.0101,-0.0176,-0.0214,-0.0203,-0.0155,-0.0123,0,0,0.023,0.0069,-0.0064,0.0182,0.0,0.0,-0.3983,-0.3919,-0.3972,-0.4164,-0.4383,-0.4656,-0.4987,-0.5323,-0.5312,-0.2339,0,-0.0342,-0.0747,-0.0806,-0.1004,-0.1207,-0.1335,-0.1324,-0.1217,-0.1116,-0.1068,-0.1068,-0.1089,-0.1068,-0.1004,-0.0913,-0.0812,-0.0662,-0.0448,-0.0198,-0.0005,0.0059,0.0005,-0.0059,-0.0075,-0.0064,-0.0059,-0.0064,0,0,0.1153,0.0278,0.0144,0.0368,0,0,-0.4015,-0.378,-0.3812,-0.4031,-0.433,-0.4752,-0.5398,-0.6386,-0.7144,0,0.1751,0.0721,-0.0016,-0.032,-0.0571,-0.0801,-0.0934,-0.0924,-0.0849,-0.0828,-0.0876,-0.0945,-0.0977,-0.0934,-0.0849,-0.0758,-0.0657,-0.0507,-0.0288,-0.0037,0.0139,0.0171,0.0101,0.0032,0.0032,0.0048,0.0053,0.0032,0.0342,0.0043,0.1078,0,0,0,0,0,-0.3059,-0.3182,-0.3401,-0.3679,-0.3988,-0.4362,-0.4896,-0.5665,-0.6028,-0.0913,0.1991,0.0571,0.0214,-0.0037,-0.0262,-0.0481,-0.0614,-0.0598,-0.0523,-0.0545,-0.0694,-0.0844,-0.0892,-0.0838,-0.071,-0.0598,-0.0486,-0.0336,-0.0112,0.0149,0.0331,0.0358,0.0246,0.0117,0.0069,0.0075,0.0085,0.0085,0.0678,0.047,0.0432,-0.0176,-0.0796,0,0,0,-0.2093,-0.2467,-0.2835,-0.315,-0.3412,-0.3572,-0.3689,-0.3823,-0.3561,-0.1858,-0.0085,0.0107,0.0155,0.0069,-0.0075,-0.0267,-0.0406,-0.0379,-0.0272,-0.0294,-0.0502,-0.0721,-0.0812,-0.0774,-0.0577,-0.0448,-0.0336,-0.0176,0.008,0.039,0.0625,0.0683,0.0502,0.0203,0.0064,0.0027,0.0032,0.0069,0,0.1036,0.0731,-0.0085,-0.1415,-0.1014,0,0,-0.1009,-0.1692,-0.2194,-0.2547,-0.2814,-0.2707,-0.2456,-0.2541,-0.3022,-0.1981,-0.0769,-0.0091,0.0123,0.0107,0.0005,-0.0149,-0.0299,-0.0278,-0.0107,-0.0043,-0.0272,-0.0523,-0.0673,-0.0806,-0.04,-0.0278,-0.0208,-0.0069,0.024,0.0683,0.1014,0.1223,0.0988,0.0278,0.0048,-0.0021,-0.0059,0.0016,0.0998,0.1612,0.1196,0.0497,-0.0641,-0.142,-0.0464,-0.0486,-0.0753,-0.102,-0.1511,-0.189,-0.244,-0.1895,-0.1837,-0.1959,-0.3801,-0.2296,-0.102,0.0166,0.0224,0.0128,0.0005,-0.0085,-0.0187,-0.0171,-0.008,0.0117,-0.0128,-0.0384,-0.0561,-0.1116,-0.0053,0.0069,-0.0107,-0.0027,0.0272,0.1014,0.1404,0.2056,0.2461,0.0336,0.0032,0.0048,-0.0117,-0.0064,0.1997,0.221,0.1714,0.1046,0.024,-0.055,-0.0849,-0.0993,-0.1191,-0.0742,-0.1153,-0.1532,-0.2979,-0.2493,0,0,-0.456,-0.204,-0.1292,0.0689,0.032,0.0149,0.0,-0.0043,-0.0096,-0.0075,-0.008,-0.181,0,0,0,0.0427,0.0683,0.1095,-0.0032,0.0,-0.008,0.1335,0.1356,0.205,0.276,0,0.3898,0.0155,-0.0117,-0.0101,0,0.2408,0.2125,0.1474,0.0673,-0.0133,-0.0641,-0.0913,-0.1137,0,0,0,-0.2499,-0.2659,-0.0892,-0.1244,0,-0.0123,-0.1506,-0.0838,0,0,0,0,0,0,0,-0.126,-0.0336,-0.0027,0.0059,0.1612,0.0646,0.0411,0,0,0.1036,0.1532,0.1057,0.1511,0.1927,0.1223,0.6887,0,0,0,0,0,0.2306,0.1735,0.0838,0.0064,-0.039,-0.0571,-0.0497,0.0069,0.0032,-0.0037,-0.0972,-0.141,-0.1452,-0.1778,-0.0123,0.1014,-0.094,-0.1906,-0.0635,-0.031,-0.0166,-0.0166,-0.0203,-0.0037,-0.0048,0.0822,-0.0497,-0.0053,0.0187,0.078,0.0166,-0.0662,-0.0176,-0.0101,0.1159,0.0577,0,0,0,0.2771,0.4474,0.0027,-0.0294,0,0,0,0,0.1805,0.0854,0.0107,-0.0267,-0.0336,0.0539,0.0363,0.0123,0.0075,-0.0283,-0.0651,-0.0828,-0.079,-0.0235,0.04,-0.0198,-0.1052,-0.0806,-0.0486,-0.0214,-0.04,-0.1046,-0.1014,-0.0091,0.0374,-0.0326,-0.0048,0.0358,0.0502,0.0272,-0.0427,-0.0796,-0.0208,-0.0192,-0.0486,0.0,0.0,0.0785,0.2787,0.2152,0.0128,-0.0518,0,0,0,0,0,0,0,0,0,0.1116,0.0582,0.0176,0.0593,0.0203,-0.0203,-0.039,-0.0374,-0.0187,-0.0005,-0.0166,-0.0972,-0.0342,-0.0352,-0.0091,-0.0475,-0.1687,-0.1965,0,0,0,0,0.0459,0.0459,0.0545,-0.0251,-0.1089,0,0,0,0,0,0.2152,0.2168,0.1111,0.0091,-0.0459,0,0,0,0,0,0,0,0,0,0,0,0,0.0961,0.0416,-0.0064,-0.0246,-0.0246,-0.0155,-0.0096,-0.0214,-0.1041,0,0,0,0,0,0,0,0,0,0,0,0,0.0737,0.0016,-0.0934,0,0,0,0,0,0.2798,0.1869,0.0876,-0.0176,-0.0577,0,0,0,0,0,0,0,0,0,0,0,0,0,0,0,0,0,0,0,0,0,0,0,0,0,0,0,0,0,0,0,0,0,0,0,0,0,0,0,0,0,0.2792,0.2072,0.0956,-0.047,-0.0822,0,0,0,0,0,0,0,0,0,0,0,0,0,0,0,0,0,0,0,0,0,0,0,0,0,0,0,0,0,0,0,0,0,0,0,0,0,0,0,0,0,0.2552,0.2253,0.1196,-0.0657,-0.1217,0,0,0,0,0,0,0,0,0,0,0,0,0,0,0,0,0,0,0,0,0,0,0,0,0,0,0,0,0,0,0,0,0,0,0,0,0,0,0,0,0,0,0.2702,0.1741,-0.0454,-0.1548,0,0,0,0,0,0,0,0,0,0,0,0,0,0,0,0,0,0,0,0,0,0,0,0,0,0,0,0,0,0,0,0,0,0,0,0,0,0,0,0,0,0,0.2888,0.2066,-0.0101,-0.1709,0,0,0,0,0,0,0,0,0,0,0,0,0,0,0,0,0,0,0,0,0,0,0,0,0,0,0,0,0,0,0,0,0,0,0,0,0,0,0,0,0,0,0.244,0.1602,0.0037,-0.1762,0,0,0,0,0,0,0,0,0,0,0,0,0,0,0,0,0,0,0,0,0,0,0,0,0,0,0,0,0,0,0,0,0,0,0,0,0,0,0,0,0,0,0.2264,0.1351,0.0352,-0.1922,0]}]],[[{"header":{"parameterUnit":"kt","parameterCategory":2,"dx":1,"dy":1,"la1":29.46422004699707,"la2":30.564109802246094,"lo1":-89.4342041015625,"lo2":-87.934326171875,"nx":46,"ny":34,"refTime":"2022-09-26T00:00:00:Z","depth":"4","parameterNumber":2,"parameterNumberName":"U-component_of_CURRENTS"},"data":[-0.1751,-0.1463,-0.1143,-0.0833,-0.0491,-0.0096,0.0112,0,-0.0459,-0.0464,0.0064,-0.0411,-0.11,-0.1452,-0.2104,-0.284,-0.3561,-0.4245,-0.4837,-0.5291,-0.5606,-0.5921,-0.6471,-0.7299,-0.8073,-0.8324,-0.8249,-0.8286,-0.8505,-0.8836,-0.9183,-0.9557,-0.9915,-1.0182,-1.024,-1.0064,-0.9738,-0.9327,-0.8932,-0.8628,-0.8388,-0.8158,-0.7945,-0.7854,-0.7945,-0.8222,-0.1687,-0.1468,-0.126,-0.1089,-0.1009,-0.1137,-0.1607,-0.1933,0,0.0128,0.0416,-0.0934,-0.221,-0.2066,-0.2493,-0.3219,-0.3882,-0.4453,-0.4912,-0.5291,-0.5579,-0.5766,-0.5868,-0.6097,-0.6647,-0.7347,-0.756,-0.7331,-0.7293,-0.7496,-0.7742,-0.8025,-0.8446,-0.9071,-0.9776,-1.039,-1.0822,-1.0956,-1.0737,-1.0288,-0.9883,-0.9568,-0.9359,-0.9359,-0.9632,-1.0107,-0.1506,-0.1463,-0.1351,-0.1255,-0.118,-0.1121,-0.1041,-0.0838,0.0438,0.1057,0.0545,0,-0.0694,-0.1874,-0.2824,-0.3657,-0.4277,-0.4709,-0.5013,-0.5238,-0.543,-0.5585,-0.567,-0.5691,-0.5825,-0.6257,-0.6871,-0.7149,-0.7154,-0.716,-0.7192,-0.7384,-0.7763,-0.8286,-0.8847,-0.9327,-0.9696,-1.0043,-1.0454,-1.086,-1.1132,-1.1292,-1.1447,-1.165,-1.1837,-1.1842,-0.0614,-0.1062,-0.1212,-0.1265,-0.1292,-0.1303,-0.1281,-0.118,-0.1004,-0.1191,-0.205,-0.1468,-0.0913,-0.2194,-0.3609,-0.4469,-0.4746,-0.4965,-0.5104,-0.5195,-0.5275,-0.536,-0.543,-0.5467,-0.5526,-0.574,-0.6263,-0.6925,-0.7325,-0.7544,-0.7662,-0.7736,-0.7945,-0.8222,-0.8559,-0.898,-0.9472,-0.9947,-1.0315,-1.0561,-1.0753,-1.1057,-1.1527,-1.1992,-1.221,-1.2077,0.0758,-0.0155,-0.0774,-0.1116,-0.1324,-0.1463,-0.1522,-0.1506,-0.1447,-0.1436,-0.15,-0.1538,-0.1714,-0.2541,-0.4522,-0.551,-0.5067,-0.5067,-0.5088,-0.5083,-0.5093,-0.5131,-0.5158,-0.5179,-0.5238,-0.5371,-0.567,-0.6247,-0.7064,-0.7832,-0.8174,-0.8212,-0.8163,-0.8099,-0.8185,-0.8388,-0.8543,-0.8697,-0.9034,-0.9552,-1.0107,-1.0545,-1.0817,-1.0993,-1.1004,-1.0796,0.1105,0.071,-0.0208,-0.0929,-0.1399,-0.1751,-0.1874,-0.1789,-0.1676,-0.1612,-0.1591,-0.1527,-0.1287,-0.1116,0,-0.2499,-0.4955,-0.4928,-0.4928,-0.4848,-0.4821,-0.4821,-0.4827,-0.4837,-0.4885,-0.4944,-0.5067,-0.5473,-0.6348,-0.7363,-0.8121,-0.8569,-0.8799,-0.889,-0.8906,-0.8836,-0.8628,-0.8452,-0.8521,-0.866,-0.8681,-0.8724,-0.8916,-0.9114,-0.9199,-0.9146,0.2584,0.1805,0.0358,-0.071,-0.149,-0.221,-0.2344,-0.1997,-0.1762,-0.1639,-0.1602,-0.1644,-0.1805,-0.2024,-0.2136,0,-0.244,-0.4832,-0.4666,-0.4469,-0.441,-0.4399,-0.4399,-0.4415,-0.4453,-0.4469,-0.4469,-0.4677,-0.5318,-0.6199,-0.7117,-0.7859,-0.8292,-0.8553,-0.8649,-0.8559,-0.8244,-0.8003,-0.8137,-0.8254,-0.8073,-0.7816,-0.7704,-0.779,-0.795,-0.8051,0,-0.0149,-0.0267,-0.0443,-0.1185,-0.2504,-0.2686,-0.1869,-0.1575,-0.1463,-0.1426,-0.1436,-0.15,-0.165,-0.1831,-0.1906,0,-0.2333,-0.4293,-0.3882,-0.386,-0.3887,-0.3903,-0.393,-0.3967,-0.3978,-0.3972,-0.4063,-0.4421,-0.5003,-0.5772,-0.6626,-0.7309,-0.7747,-0.7955,-0.795,-0.772,-0.748,-0.7533,-0.7651,-0.7379,-0.7117,-0.7229,-0.7352,-0.7336,-0.7213,0,-0.0972,0,0.0176,0.0352,0,-0.0384,-0.0897,-0.1068,-0.1116,-0.11,-0.1052,-0.1046,-0.1351,-0.1596,-0.1586,-0.1612,0,-0.1292,-0.2862,-0.3193,-0.3316,-0.3369,-0.3417,-0.346,-0.3508,-0.3567,-0.3695,-0.4063,-0.4602,-0.5067,-0.5659,-0.6354,-0.685,-0.7112,-0.7181,-0.7042,-0.6925,-0.708,-0.7064,-0.6658,-0.6375,-0.6514,-0.6861,-0.7053,-0.7032,0,0.1116,0.1281,0.126,0,0.04,0.0272,-0.0481,-0.0796,-0.0892,-0.0838,-0.0625,-0.0256,-0.086,-0.1265,-0.0587,-0.0326,0,-0.1687,-0.3049,-0.2707,-0.2739,-0.283,-0.2915,-0.3001,-0.3113,-0.3251,-0.3422,-0.3753,-0.4325,-0.4832,-0.5179,-0.5606,-0.6049,-0.6327,-0.6396,-0.6311,-0.6289,-0.6434,-0.6327,-0.606,-0.5964,-0.598,-0.6097,-0.63,-0.654,0,0,0,0,0,-0.0427,-0.0774,-0.0758,-0.0865,-0.0929,-0.0892,-0.0683,-0.0529,0,0.0133,0.0422,0.0577,0,0,-0.0593,-0.1532,-0.2018,-0.2296,-0.2483,-0.2643,-0.2814,-0.3011,-0.323,-0.3561,-0.4148,-0.4816,-0.5238,-0.5387,-0.5446,-0.5547,-0.5681,-0.5852,-0.6017,-0.606,-0.5862,-0.5654,-0.5659,-0.5745,-0.5857,-0.599,-0.6124,0,0,0,0,0,0,-0.0283,-0.0721,-0.0956,-0.1111,-0.1233,-0.1452,-0.1826,-0.0614,0.0812,0.1233,0.165,0,0,-0.0363,-0.1062,-0.1586,-0.1933,-0.22,-0.2424,-0.2627,-0.283,-0.3059,-0.3353,-0.3759,-0.4223,-0.4672,-0.4981,-0.5115,-0.5248,-0.5462,-0.5681,-0.5761,-0.5654,-0.5505,-0.5494,-0.5563,-0.5665,-0.5804,-0.5916,-0.5953,0,0,0,0,0,0,-0.0406,-0.0982,-0.1201,-0.1276,-0.1313,-0.1303,-0.1196,-0.0897,-0.0491,-0.0299,0,0,0,-0.0288,-0.086,-0.1367,-0.1751,-0.2077,-0.2333,-0.252,-0.268,-0.284,-0.3022,-0.3235,-0.3497,-0.3807,-0.4138,-0.4496,-0.4853,-0.5099,-0.5147,-0.5099,-0.5115,-0.5232,-0.5334,-0.543,-0.5585,-0.5766,-0.5868,-0.5873,0,0,0,0,0,0,-0.0721,-0.157,-0.1596,-0.1463,-0.142,-0.1415,-0.1442,-0.1532,-0.1922,-0.2894,-0.2536,-0.1527,0,-0.0272,-0.0812,-0.1313,-0.1714,-0.205,-0.2306,-0.2472,-0.2589,-0.2718,-0.2867,-0.3043,-0.3251,-0.3486,-0.3759,-0.4036,-0.4282,-0.4485,-0.4666,-0.4837,-0.4981,-0.5093,-0.5206,-0.5376,-0.5585,-0.5756,-0.583,-0.5814,0,0,0,0,0,0,0,-0.1057,-0.1826,-0.1474,-0.1404,-0.1399,-0.1388,-0.1351,-0.1303,-0.1196,-0.0806,-0.0497,0,-0.0294,-0.0865,-0.1388,-0.1783,-0.2104,-0.2344,-0.2536,-0.2723,-0.2942,-0.3187,-0.3428,-0.3636,-0.3817,-0.3972,-0.4111,-0.4255,-0.4421,-0.4608,-0.48,-0.4976,-0.5126,-0.528,-0.5462,-0.5654,-0.5798,-0.5836,-0.5798,0,0,0,-0.0011,-0.0016,0,0,0,-0.0454,-0.1062,-0.1276,-0.1345,-0.1329,-0.1207,-0.0934,-0.0481,0.0128,0.0454,0,-0.039,-0.1121,-0.1671,-0.2024,-0.2317,-0.2595,-0.2888,-0.3209,-0.3502,-0.3689,-0.3759,-0.3817,-0.3908,-0.4036,-0.4197,-0.4389,-0.4592,-0.4789,-0.4981,-0.5163,-0.5323,-0.5473,-0.5622,-0.5756,-0.5836,-0.5846,-0.5809,0,0,-0.0278,-0.0812,-0.1377,-0.2029,-0.2397,-0.244,-0.2018,-0.1484,-0.141,-0.1452,-0.1468,-0.1367,-0.103,-0.0288,0.1014,0.1821,0,-0.071,-0.1778,-0.2226,-0.2477,-0.2755,-0.3081,-0.3417,-0.3705,-0.3882,-0.394,-0.3956,-0.3983,-0.4058,-0.4175,-0.4341,-0.4544,-0.4773,-0.5003,-0.5206,-0.5366,-0.5489,-0.5611,-0.5729,-0.5814,-0.5852,-0.5857,-0.5836,0,0,-0.0593,-0.0993,-0.0646,-0.0486,0,0,-0.0374,-0.0972,-0.1351,-0.1628,-0.1853,-0.1997,-0.1986,-0.1602,-0.1281,0,-0.1511,-0.299,-0.3006,-0.3017,-0.3097,-0.3262,-0.3481,-0.37,-0.3887,-0.4015,-0.4095,-0.4143,-0.4191,-0.4255,-0.4351,-0.449,-0.4677,-0.4901,-0.5126,-0.5302,-0.543,-0.5531,-0.5633,-0.5723,-0.5793,-0.583,-0.5862,-0.5868,-0.0358,-0.0918,-0.1116,0,0,0,0,0,-0.0352,-0.0998,-0.1538,-0.2002,-0.2456,-0.3001,-0.3823,-0.5318,-0.7896,-0.8809,-0.6647,-0.4752,-0.4036,-0.37,-0.3588,-0.3631,-0.3743,-0.3865,-0.3972,-0.4084,-0.4207,-0.433,-0.4415,-0.4453,-0.4485,-0.4549,-0.4661,-0.4837,-0.5029,-0.5206,-0.5355,-0.5499,-0.5622,-0.5702,-0.574,-0.5777,-0.583,-0.5868,-0.0571,-0.0593,-0.1062,-0.1127,-0.1084,0,0,0,-0.0406,-0.1164,-0.1805,-0.2376,-0.2942,-0.3615,-0.4528,-0.5665,-0.677,-0.7085,-0.6241,-0.5126,-0.4479,-0.4106,-0.3919,-0.386,-0.3887,-0.3962,-0.4052,-0.4164,-0.4303,-0.4447,-0.4528,-0.4506,-0.4458,-0.4447,-0.4474,-0.4554,-0.4698,-0.4907,-0.5163,-0.5441,-0.567,-0.575,-0.5729,-0.5723,-0.5756,-0.5798,0,-0.0144,-0.0448,-0.086,-0.1292,-0.1474,0,0,-0.0486,-0.1335,-0.2002,-0.2584,-0.3129,-0.3769,-0.4698,-0.5761,-0.6273,-0.6038,-0.5505,-0.4933,-0.4549,-0.4239,-0.401,-0.3898,-0.3914,-0.3988,-0.4063,-0.4138,-0.4239,-0.4373,-0.4485,-0.4421,-0.4309,-0.4261,-0.4202,-0.417,-0.4213,-0.4394,-0.4736,-0.5216,-0.5702,-0.5884,-0.5793,-0.5686,-0.5617,-0.5601,0.2381,0.1095,0.0502,-0.0048,-0.0902,-0.2061,-0.2381,-0.1826,-0.1313,-0.1335,-0.1895,-0.2504,-0.2867,-0.3268,-0.4314,-0.5766,-0.5862,-0.5045,-0.4698,-0.4496,-0.4341,-0.4111,-0.3919,-0.3849,-0.3967,-0.4255,-0.4629,-0.4811,-0.449,-0.4074,-0.4175,-0.4122,-0.4004,-0.4042,-0.3967,-0.3871,-0.3791,-0.3807,-0.3983,-0.4528,-0.5713,-0.6215,-0.5766,-0.5606,-0.5414,-0.5307,0.0865,0.157,0.1212,0.0801,0.0331,-0.0166,-0.0502,-0.0598,-0.0486,-0.0593,-0.1217,-0.2168,-0.2189,-0.165,0,0,-0.181,-0.4143,-0.488,-0.5355,-0.528,-0.4191,-0.37,-0.3444,-0.3294,-0.3305,-0.3481,-0.3625,0,0,0,-0.1554,-0.3545,-0.4282,-0.4239,-0.3668,-0.3284,-0.3113,-0.2776,-0.1922,-0.1372,0,-0.3123,-0.5884,-0.5339,-0.5056,0,0.1036,0.1911,0.158,0.1255,0.095,0.0662,0.0432,0.0326,0,0,0,-0.0913,-0.2531,-0.2552,-0.1879,0,-0.1319,-0.2718,-0.2792,0,0,0,0,0,0,0,-0.205,-0.3748,-0.3481,-0.3748,-0.346,-0.2675,-0.236,0,0,-0.1474,-0.3203,-0.2808,-0.1431,0.0203,-0.0059,-0.1233,0,0,0,0,0,0.0977,0.1879,0.1783,0.1714,0.1548,0.1207,0.0555,-0.0037,-0.0315,-0.0491,-0.0918,-0.1682,-0.2392,-0.3369,-0.4052,-0.3887,-0.402,-0.4544,-0.4191,-0.3406,-0.3081,-0.2958,-0.2878,-0.3006,-0.3385,-0.3129,-0.275,-0.2851,-0.2936,-0.284,-0.2664,-0.2819,-0.2942,-0.3075,-0.2274,-0.1319,0,0,0,-0.0283,0.0577,0.1356,0.1057,0,0,0,0,0.0758,0.1895,0.2355,0.236,0.2194,0.1634,0.0961,0.0689,0.0459,0.0064,-0.0432,-0.0924,-0.1383,-0.1623,-0.1383,-0.1201,-0.134,-0.1644,-0.1949,-0.213,-0.2536,-0.2872,-0.2616,-0.1991,-0.1436,-0.1276,-0.1287,-0.1297,-0.1313,-0.1303,-0.126,-0.0801,-0.0673,-0.0481,0.0304,0.0432,0.0278,-0.0331,-0.0758,0.0037,0.0518,0.0448,0,0,0,0,0,0,0,0,0,0.0497,0.1281,0.1698,0.1516,0.102,0.0721,0.0491,0.0272,0.016,0.023,0.0368,0.0497,0.0491,0.031,0.0219,0.0085,0.0,0.0059,0,0,0,0,0.0262,0.0785,0.087,0.0475,0.0246,0,0,0,0,0,-0.0443,-0.0619,-0.0166,0.0117,0.0198,0,0,0,0,0,0,0,0,0,0,0,0,0.0427,0.1068,0.1292,0.1233,0.1095,0.0998,0.0966,0.0897,0.0833,0,0,0,0,0,0,0,0,0,0,0,0,0.0347,0.0731,0.0769,0,0,0,0,0,-0.008,-0.023,-0.0336,-0.0294,-0.0171,0,0,0,0,0,0,0,0,0,0,0,0,0,0,0,0,0,0,0,0,0,0,0,0,0,0,0,0,0,0,0,0,0,0,0,0,0,0,0,0,0,0.0021,-0.0203,-0.0545,-0.055,-0.0374,0,0,0,0,0,0,0,0,0,0,0,0,0,0,0,0,0,0,0,0,0,0,0,0,0,0,0,0,0,0,0,0,0,0,0,0,0,0,0,0,0,0.0053,0.0043,-0.0224,-0.0416,-0.024,0,0,0,0,0,0,0,0,0,0,0,0,0,0,0,0,0,0,0,0,0,0,0,0,0,0,0,0,0,0,0,0,0,0,0,0,0,0,0,0,0,0,0.1837,0.0806,0.0069,-0.0101,0,0,0,0,0,0,0,0,0,0,0,0,0,0,0,0,0,0,0,0,0,0,0,0,0,0,0,0,0,0,0,0,0,0,0,0,0,0,0,0,0,0,0.0059,0.0069,-0.0043,-0.0091,0,0,0,0,0,0,0,0,0,0,0,0,0,0,0,0,0,0,0,0,0,0,0,0,0,0,0,0,0,0,0,0,0,0,0,0,0,0,0,0,0,0,-0.0037,0.0128,0.0171,-0.0053,0,0,0,0,0,0,0,0,0,0,0,0,0,0,0,0,0,0,0,0,0,0,0,0,0,0,0,0,0,0,0,0,0,0,0,0,0,0,0,0,0,0,0.1052,0.1543,0.0374,-0.0123,0]}],[{"header":{"parameterUnit":"kt","parameterCategory":2,"dx":1,"dy":1,"la1":29.46422004699707,"la2":30.564109802246094,"lo1":-89.4342041015625,"lo2":-87.934326171875,"nx":46,"ny":34,"refTime":"2022-09-26T00:00:00:Z","depth":"4","parameterNumber":3,"parameterNumberName":"V-component_of_CURRENTS"},"data":[-0.1036,-0.1564,-0.1949,-0.2162,-0.2349,-0.2691,-0.3396,0,-0.0972,-0.3994,-0.4293,-0.3983,-0.5291,-0.575,-0.6177,-0.6386,-0.6471,-0.6482,-0.6423,-0.6273,-0.6071,-0.6006,-0.6247,-0.6695,-0.6973,-0.6749,-0.6354,-0.5905,-0.5441,-0.4885,-0.4234,-0.3513,-0.2808,-0.2168,-0.1463,-0.0726,-0.0139,0.0299,0.0619,0.0908,0.1164,0.1367,0.1511,0.1575,0.1607,0.1682,-0.1356,-0.1938,-0.2285,-0.2477,-0.2621,-0.2803,-0.2974,-0.1137,0,-0.4656,-0.4624,-0.3364,-0.5515,-0.5558,-0.5729,-0.5937,-0.6108,-0.6247,-0.6332,-0.6343,-0.6247,-0.6097,-0.6044,-0.6225,-0.6647,-0.6839,-0.6546,-0.59,-0.5312,-0.4757,-0.4175,-0.3572,-0.307,-0.2686,-0.2253,-0.1741,-0.1233,-0.0769,-0.0336,0.0101,0.0491,0.0833,0.1148,0.1447,0.1757,0.2072,-0.1516,-0.2194,-0.2531,-0.2675,-0.2723,-0.2723,-0.268,-0.2461,-0.1287,-0.4218,-0.4581,0,-0.504,-0.4928,-0.4971,-0.5339,-0.5702,-0.599,-0.6204,-0.6321,-0.6311,-0.6225,-0.6145,-0.6129,-0.63,-0.669,-0.6797,-0.6119,-0.5083,-0.4234,-0.3524,-0.2862,-0.2371,-0.2066,-0.1901,-0.1799,-0.1634,-0.1431,-0.1185,-0.0865,-0.0507,-0.0053,0.0454,0.0961,0.1356,0.1591,-0.1169,-0.2205,-0.2627,-0.2776,-0.2803,-0.2803,-0.2808,-0.2755,-0.2712,-0.3321,-0.3679,-0.1351,-0.3545,-0.3615,-0.3668,-0.4885,-0.5392,-0.5777,-0.6076,-0.6252,-0.6289,-0.6241,-0.6183,-0.6151,-0.6151,-0.6316,-0.669,-0.6594,-0.5478,-0.4309,-0.3342,-0.2504,-0.1826,-0.1399,-0.1244,-0.1276,-0.1287,-0.126,-0.1191,-0.0998,-0.0699,-0.031,0.0139,0.0561,0.0812,0.0785,-0.0267,-0.1682,-0.2424,-0.2696,-0.276,-0.2792,-0.2862,-0.2915,-0.2926,-0.3022,-0.3017,-0.2744,-0.268,-0.212,-0.2867,-0.5232,-0.5355,-0.5643,-0.5969,-0.6161,-0.6204,-0.6156,-0.6087,-0.6028,-0.5974,-0.5969,-0.614,-0.6364,-0.5723,-0.4586,-0.3572,-0.2702,-0.1906,-0.1356,-0.1062,-0.1004,-0.0982,-0.0956,-0.0892,-0.071,-0.047,-0.0235,0.0005,0.0192,0.0262,0.008,0.016,-0.0763,-0.1735,-0.2333,-0.2488,-0.26,-0.2926,-0.3065,-0.3091,-0.3086,-0.3033,-0.2888,-0.2728,-0.2098,0,-0.5691,-0.5505,-0.5531,-0.5905,-0.6076,-0.6076,-0.5985,-0.5862,-0.575,-0.5654,-0.5563,-0.5531,-0.5627,-0.5387,-0.457,-0.3705,-0.2867,-0.2109,-0.1532,-0.1169,-0.1046,-0.1041,-0.0977,-0.0865,-0.0657,-0.0411,-0.0251,-0.0107,-0.0053,-0.0133,-0.0374,0.0053,0.0577,-0.0523,-0.1666,-0.1869,-0.2088,-0.3246,-0.3369,-0.3321,-0.3219,-0.3102,-0.2963,-0.2856,-0.2702,-0.1255,0,-0.5558,-0.5467,-0.5996,-0.6022,-0.5937,-0.5761,-0.5563,-0.5382,-0.5238,-0.5099,-0.4949,-0.4885,-0.4773,-0.4287,-0.3625,-0.284,-0.2157,-0.1602,-0.1239,-0.1073,-0.1046,-0.0924,-0.0854,-0.071,-0.0464,-0.0326,-0.0192,-0.0123,-0.0203,-0.0411,0,0.1602,0.0198,-0.1068,-0.086,-0.1725,-0.4266,-0.386,-0.3593,-0.3364,-0.3155,-0.2936,-0.2723,-0.2509,-0.2435,-0.1127,0,-0.5457,-0.6562,-0.6006,-0.5772,-0.5521,-0.5248,-0.4992,-0.4784,-0.4602,-0.4415,-0.4282,-0.4218,-0.3956,-0.3412,-0.2691,-0.2034,-0.1506,-0.1127,-0.0929,-0.0865,-0.0715,-0.0705,-0.0694,-0.0502,-0.0336,-0.0262,-0.023,-0.0283,-0.0464,0,0.1143,0,-0.1078,-0.0272,0,-0.457,-0.4036,-0.3716,-0.3449,-0.3225,-0.2985,-0.268,-0.2114,-0.2419,-0.2242,-0.095,0,-0.5473,-0.5745,-0.5537,-0.5259,-0.4928,-0.4618,-0.4351,-0.4122,-0.3914,-0.3769,-0.3769,-0.3657,-0.3075,-0.2451,-0.1815,-0.1351,-0.1009,-0.079,-0.0651,-0.0475,-0.0518,-0.0582,-0.0422,-0.0219,-0.0187,-0.0299,-0.0443,-0.0614,0,0.0513,0.0,-0.1292,0,-0.0448,-0.354,-0.3695,-0.362,-0.347,-0.3348,-0.3225,-0.2953,-0.1815,-0.2995,-0.2557,-0.2125,0,-0.3946,-0.591,-0.5376,-0.4971,-0.4586,-0.4245,-0.394,-0.3673,-0.3433,-0.3273,-0.3294,-0.3235,-0.267,-0.2136,-0.1607,-0.1233,-0.0998,-0.0806,-0.0577,-0.0379,-0.0475,-0.0566,-0.039,-0.0155,-0.0053,-0.0176,-0.0358,-0.0507,0,0,0,0,0,-0.0902,-0.3075,-0.3422,-0.3486,-0.3476,-0.3508,-0.362,-0.3599,0,-0.3668,-0.3107,-0.2056,0,0,-0.5665,-0.5013,-0.4538,-0.4154,-0.3833,-0.3534,-0.3241,-0.2969,-0.2771,-0.2728,-0.2686,-0.2328,-0.189,-0.1484,-0.1196,-0.1041,-0.087,-0.0598,-0.0411,-0.0502,-0.0587,-0.0395,-0.0176,-0.0053,-0.0069,-0.0128,-0.0208,0,0,0,0,0,0,-0.2878,-0.3209,-0.3337,-0.3417,-0.3524,-0.3673,-0.3716,-0.1639,-0.3839,-0.386,-0.1757,0,0,-0.457,-0.4325,-0.393,-0.3609,-0.3353,-0.3102,-0.2824,-0.2536,-0.229,-0.2157,-0.2114,-0.1991,-0.1751,-0.1458,-0.1196,-0.1025,-0.0833,-0.0587,-0.0459,-0.0518,-0.0529,-0.0363,-0.0182,-0.0059,-0.0021,-0.0005,-0.0016,0,0,0,0,0,0,-0.2088,-0.2851,-0.3198,-0.3348,-0.3486,-0.3572,-0.3599,-0.3561,-0.4111,-0.4597,0,0,0,-0.3801,-0.3657,-0.3268,-0.3006,-0.284,-0.2659,-0.2429,-0.2168,-0.1906,-0.173,-0.166,-0.1602,-0.149,-0.1319,-0.1121,-0.0945,-0.078,-0.0603,-0.0486,-0.0438,-0.0374,-0.0272,-0.0155,-0.0048,0.0011,0.0053,0.0075,0,0,0,0,0,0,-0.1623,-0.2531,-0.3294,-0.3396,-0.3545,-0.3647,-0.3716,-0.378,-0.401,-0.4058,-0.1116,-0.0897,0,-0.3102,-0.3001,-0.2573,-0.2376,-0.2312,-0.2226,-0.2077,-0.1874,-0.1628,-0.1436,-0.1345,-0.126,-0.1159,-0.1041,-0.0934,-0.0833,-0.0726,-0.0587,-0.0411,-0.0262,-0.0176,-0.0133,-0.0091,-0.0037,0.0016,0.0085,0.0123,0,0,0,0,0,0,0,-0.2403,-0.3796,-0.3572,-0.3615,-0.37,-0.3753,-0.3764,-0.3705,-0.3422,-0.2611,-0.2114,0,-0.2376,-0.2269,-0.1847,-0.1757,-0.1799,-0.1815,-0.1751,-0.1591,-0.1361,-0.1164,-0.1073,-0.103,-0.0972,-0.0881,-0.0796,-0.0715,-0.0619,-0.0454,-0.0246,-0.0059,0.0043,0.0048,0.0011,-0.0005,0.0027,0.0096,0.0144,0,0,0,0.0027,-0.0032,0,0,0,-0.3588,-0.3524,-0.3599,-0.3737,-0.3849,-0.394,-0.3988,-0.3887,-0.3406,-0.22,0,-0.1468,-0.1388,-0.1127,-0.1185,-0.1329,-0.142,-0.1393,-0.1249,-0.1057,-0.0924,-0.087,-0.0881,-0.086,-0.0796,-0.071,-0.0614,-0.0481,-0.0288,-0.0053,0.0155,0.0246,0.0214,0.0128,0.0085,0.0096,0.0133,0.016,0,0,0.0342,0.0304,0.0203,0.0358,0.0,0.0,-0.3556,-0.3502,-0.3561,-0.3737,-0.3946,-0.4202,-0.4522,-0.4848,-0.4811,-0.1959,0,-0.0016,-0.0416,-0.0486,-0.0678,-0.0881,-0.1004,-0.0982,-0.087,-0.0769,-0.0726,-0.0726,-0.0753,-0.0731,-0.0667,-0.0582,-0.0481,-0.0331,-0.0123,0.0128,0.032,0.0379,0.032,0.0246,0.0224,0.023,0.023,0.0219,0,0,0.1377,0.0555,0.0475,0.0715,0,0,-0.3609,-0.3385,-0.3412,-0.3615,-0.3892,-0.4298,-0.4917,-0.5862,-0.6572,0,0.1847,0.103,0.0304,0.0005,-0.0251,-0.0475,-0.0598,-0.0582,-0.0513,-0.0491,-0.0545,-0.0619,-0.0646,-0.0603,-0.0518,-0.0427,-0.032,-0.0176,0.0043,0.0294,0.0459,0.0486,0.0411,0.0336,0.0326,0.0342,0.0342,0.031,0.0443,0.0182,0.1345,0,0,0,0,0,-0.2702,-0.2814,-0.3011,-0.3262,-0.3561,-0.3919,-0.4437,-0.5168,-0.5521,-0.0742,0.2226,0.0881,0.0529,0.0283,0.0059,-0.0155,-0.0288,-0.0272,-0.0198,-0.0219,-0.0374,-0.0523,-0.0566,-0.0507,-0.0379,-0.0267,-0.0155,-0.0005,0.0224,0.0475,0.0646,0.0662,0.0545,0.0406,0.0358,0.0363,0.0368,0.0363,0.0886,0.0737,0.0715,-0.0043,-0.0662,0,0,0,-0.1773,-0.212,-0.2456,-0.2744,-0.3001,-0.3161,-0.3278,-0.3396,-0.315,-0.1506,0.0219,0.0416,0.0464,0.0384,0.0235,0.0048,-0.0091,-0.0069,0.0043,0.0021,-0.0187,-0.04,-0.0486,-0.0443,-0.0256,-0.0123,-0.0011,0.0149,0.0406,0.071,0.0929,0.0977,0.079,0.0486,0.0347,0.031,0.031,0.0347,0,0.1265,0.0972,0.0166,-0.1159,-0.0886,0,0,-0.071,-0.1361,-0.1831,-0.2162,-0.2413,-0.2328,-0.2093,-0.2162,-0.2627,-0.1628,-0.0454,0.0208,0.0422,0.0406,0.0304,0.0149,0.0005,0.0032,0.0198,0.0262,0.0032,-0.0208,-0.0352,-0.0481,-0.0091,0.0027,0.0096,0.0246,0.0555,0.0993,0.1308,0.1495,0.1255,0.0555,0.0331,0.0262,0.0219,0.0288,0.1041,0.1789,0.1393,0.0721,-0.0384,-0.1153,-0.032,-0.0336,-0.0448,-0.0715,-0.118,-0.1538,-0.2072,-0.1543,-0.1495,-0.1602,-0.3396,-0.1938,-0.0646,0.0438,0.0523,0.04,0.0283,0.0198,0.0107,0.0133,0.024,0.0438,0.0166,-0.008,-0.0246,-0.0801,0.0235,0.0358,0.0187,0.0283,0.0582,0.1303,0.1687,0.2312,0.2691,0.0609,0.032,0.0326,0.016,0.0203,0.2082,0.2312,0.1853,0.1228,0.047,-0.0288,-0.0571,-0.0705,-0.0892,-0.0454,-0.0849,-0.1212,-0.2643,-0.2162,0,0,-0.4148,-0.1692,-0.0614,0.1159,0.0641,0.0406,0.0272,0.0235,0.0198,0.023,0.0278,-0.1431,0,0,0,0.0683,0.0945,0.1377,0.0262,0.0315,0.0288,0.1596,0.1676,0.2301,0.3001,0,0.4015,0.0427,0.016,0.0166,0,0.2472,0.22,0.1596,0.0849,0.0085,-0.039,-0.0646,-0.0881,0,0,0,-0.2216,-0.2376,-0.0763,-0.1116,0,0.0192,-0.0614,0.0048,0,0,0,0,0,0,0,-0.0945,-0.0219,0.0096,0.0182,0.1831,0.0908,0.0737,0,0,0.1692,0.2018,0.1431,0.1778,0.2216,0.134,0.6914,0,0,0,0,0,0.2349,0.1805,0.0966,0.024,-0.0182,-0.0347,-0.0278,0.0166,0.0123,0.0059,-0.0747,-0.1169,-0.1207,-0.1532,-0.0016,0.126,-0.0363,-0.1239,-0.0491,-0.0219,-0.0075,-0.0075,-0.0048,0.0128,0.0139,0.102,-0.0283,0.0171,0.0422,0.1009,0.0411,-0.0368,-0.0059,0.0021,0.1965,0.166,0,0,0,0.299,0.4672,0.0219,-0.0133,0,0,0,0,0.1853,0.095,0.0256,-0.0085,-0.0133,0.0694,0.0529,0.0294,0.0256,-0.0091,-0.0454,-0.0619,-0.0582,-0.0037,0.0587,0.0027,-0.0833,-0.0587,-0.0326,-0.0048,-0.0182,-0.0432,-0.0059,0.0278,0.0529,-0.0133,0.0155,0.0545,0.0689,0.0454,-0.023,-0.0582,0.0048,0.0534,0.0972,0.0,0.0,0.0982,0.3006,0.2467,0.0497,-0.0208,0,0,0,0,0,0,0,0,0,0.1212,0.0721,0.0342,0.0731,0.0347,-0.0059,-0.024,-0.0224,-0.0037,0.0139,-0.0021,-0.0828,-0.0187,-0.0208,0.0059,-0.0214,-0.0774,-0.0379,0,0,0,0,0.0609,0.0614,0.0673,-0.0101,-0.0934,0,0,0,0,0,0.2456,0.2397,0.1415,0.0411,-0.0182,0,0,0,0,0,0,0,0,0,0,0,0,0.1057,0.0529,0.0059,-0.0123,-0.0123,-0.0032,0.0027,-0.0096,-0.0918,0,0,0,0,0,0,0,0,0,0,0,0,0.0844,0.0133,-0.0822,0,0,0,0,0,0.2963,0.2082,0.1137,0.0107,-0.0315,0,0,0,0,0,0,0,0,0,0,0,0,0,0,0,0,0,0,0,0,0,0,0,0,0,0,0,0,0,0,0,0,0,0,0,0,0,0,0,0,0,0.2899,0.2264,0.1196,-0.0198,-0.0577,0,0,0,0,0,0,0,0,0,0,0,0,0,0,0,0,0,0,0,0,0,0,0,0,0,0,0,0,0,0,0,0,0,0,0,0,0,0,0,0,0,0.268,0.2429,0.142,-0.0411,-0.0993,0,0,0,0,0,0,0,0,0,0,0,0,0,0,0,0,0,0,0,0,0,0,0,0,0,0,0,0,0,0,0,0,0,0,0,0,0,0,0,0,0,0,0.2867,0.1954,-0.0235,-0.1351,0,0,0,0,0,0,0,0,0,0,0,0,0,0,0,0,0,0,0,0,0,0,0,0,0,0,0,0,0,0,0,0,0,0,0,0,0,0,0,0,0,0,0.3043,0.2264,0.0096,-0.1522,0,0,0,0,0,0,0,0,0,0,0,0,0,0,0,0,0,0,0,0,0,0,0,0,0,0,0,0,0,0,0,0,0,0,0,0,0,0,0,0,0,0,0.2568,0.1778,0.0246,-0.1554,0,0,0,0,0,0,0,0,0,0,0,0,0,0,0,0,0,0,0,0,0,0,0,0,0,0,0,0,0,0,0,0,0,0,0,0,0,0,0,0,0,0,0.2376,0.1634,0.0694,-0.1623,0]}]],[[{"header":{"parameterUnit":"kt","parameterCategory":2,"dx":1,"dy":1,"la1":29.46422004699707,"la2":30.564109802246094,"lo1":-89.4342041015625,"lo2":-87.934326171875,"nx":46,"ny":34,"refTime":"2022-09-26T00:00:00:Z","depth":"6","parameterNumber":2,"parameterNumberName":"U-component_of_CURRENTS"},"data":[-0.1356,-0.1062,-0.0747,-0.0438,-0.0112,0.0256,0.0454,0,-0.0251,-0.0117,0.0326,-0.0155,-0.0822,-0.1148,-0.1783,-0.2515,-0.3235,-0.3919,-0.4517,-0.4981,-0.5312,-0.5643,-0.6209,-0.7048,-0.7832,-0.8083,-0.8003,-0.803,-0.8249,-0.8575,-0.8922,-0.9295,-0.9664,-0.9941,-1.0,-0.9819,-0.9493,-0.9087,-0.8703,-0.8398,-0.8158,-0.7923,-0.771,-0.7619,-0.771,-0.7987,-0.1303,-0.1084,-0.087,-0.0705,-0.0625,-0.0758,-0.1233,-0.157,0,0.0251,0.0657,-0.0662,-0.1895,-0.1725,-0.213,-0.2856,-0.3524,-0.4095,-0.4565,-0.4944,-0.5254,-0.5462,-0.559,-0.5836,-0.6407,-0.7112,-0.7331,-0.7096,-0.7048,-0.7245,-0.7491,-0.7779,-0.8206,-0.8831,-0.953,-1.0144,-1.0566,-1.0705,-1.0491,-1.0053,-0.9642,-0.9327,-0.9114,-0.9124,-0.9391,-0.9861,-0.1137,-0.1095,-0.0972,-0.086,-0.0785,-0.0731,-0.0667,-0.0497,0.071,0.1287,0.078,0,-0.0539,-0.1543,-0.2435,-0.3241,-0.3876,-0.4319,-0.464,-0.4875,-0.5077,-0.5254,-0.5366,-0.5414,-0.5563,-0.6006,-0.6636,-0.6925,-0.6925,-0.693,-0.6962,-0.7154,-0.7533,-0.8051,-0.8607,-0.9076,-0.9439,-0.9781,-1.0198,-1.0609,-1.0881,-1.1047,-1.1196,-1.1394,-1.1575,-1.158,-0.0288,-0.0715,-0.0838,-0.087,-0.0892,-0.0908,-0.0902,-0.0828,-0.0683,-0.0881,-0.1714,-0.1148,-0.0609,-0.1863,-0.3198,-0.3983,-0.4293,-0.4544,-0.4709,-0.4816,-0.4912,-0.5013,-0.5104,-0.5168,-0.5248,-0.5483,-0.6012,-0.6685,-0.7096,-0.7315,-0.7437,-0.7512,-0.772,-0.7993,-0.8329,-0.8751,-0.9237,-0.9701,-1.007,-1.031,-1.0502,-1.0796,-1.1265,-1.173,-1.1949,-1.1821,0.1004,0.0144,-0.0427,-0.0726,-0.0918,-0.1062,-0.1148,-0.1153,-0.1116,-0.1111,-0.118,-0.1212,-0.1393,-0.2221,-0.409,-0.4965,-0.4538,-0.4602,-0.4672,-0.4698,-0.473,-0.4784,-0.4827,-0.4869,-0.4944,-0.5099,-0.5419,-0.6001,-0.6823,-0.7598,-0.7945,-0.7977,-0.7939,-0.7875,-0.7961,-0.8163,-0.8313,-0.8473,-0.8809,-0.9322,-0.9883,-1.031,-1.0571,-1.0742,-1.0753,-1.0545,0.1303,0.0961,0.0107,-0.055,-0.0988,-0.1345,-0.1495,-0.1431,-0.1335,-0.1271,-0.1255,-0.1196,-0.0977,-0.0812,0,-0.2237,-0.4431,-0.4421,-0.449,-0.4458,-0.4458,-0.4479,-0.4501,-0.4533,-0.4592,-0.4672,-0.4811,-0.5232,-0.6108,-0.7122,-0.7875,-0.8329,-0.8564,-0.866,-0.8676,-0.8607,-0.8404,-0.8228,-0.8297,-0.8436,-0.8457,-0.85,-0.8681,-0.8879,-0.8964,-0.8911,0.2664,0.1959,0.0625,-0.0352,-0.1078,-0.1799,-0.1959,-0.1634,-0.1404,-0.1281,-0.1249,-0.1308,-0.1468,-0.1682,-0.1789,0,-0.2184,-0.4319,-0.4218,-0.4079,-0.4058,-0.4068,-0.409,-0.4122,-0.4175,-0.4202,-0.4218,-0.4431,-0.5077,-0.5948,-0.6866,-0.7614,-0.8041,-0.8308,-0.8404,-0.8318,-0.8009,-0.7774,-0.7918,-0.803,-0.7848,-0.7598,-0.7491,-0.7571,-0.7731,-0.7832,0,-0.0037,-0.0005,-0.0107,-0.0796,-0.2088,-0.229,-0.15,-0.1207,-0.1095,-0.1073,-0.1105,-0.118,-0.1319,-0.15,-0.1586,0,-0.2088,-0.3844,-0.3502,-0.3518,-0.3572,-0.3609,-0.3652,-0.37,-0.3721,-0.3721,-0.3823,-0.4186,-0.4768,-0.5531,-0.638,-0.7064,-0.7501,-0.771,-0.771,-0.7485,-0.725,-0.7315,-0.7432,-0.716,-0.6898,-0.7021,-0.7138,-0.7122,-0.7005,0,-0.079,0,0.031,0.0619,0,-0.0219,-0.0555,-0.071,-0.0758,-0.0763,-0.0737,-0.0747,-0.1036,-0.1271,-0.1271,-0.1297,0,-0.1095,-0.2493,-0.2862,-0.3011,-0.3091,-0.315,-0.3209,-0.3262,-0.3321,-0.346,-0.3823,-0.4367,-0.4837,-0.5425,-0.6113,-0.6615,-0.6877,-0.6951,-0.6818,-0.6706,-0.6866,-0.6845,-0.6439,-0.6161,-0.63,-0.6642,-0.6829,-0.6813,0,0.1265,0.1452,0.1442,0,0.0545,0.0582,-0.0139,-0.0448,-0.0561,-0.0529,-0.0342,0.0011,-0.0577,-0.0966,-0.0299,-0.0037,0,-0.149,-0.268,-0.2381,-0.2451,-0.2568,-0.2664,-0.2755,-0.2867,-0.3006,-0.3187,-0.3524,-0.41,-0.4613,-0.496,-0.5376,-0.5814,-0.6097,-0.6167,-0.6092,-0.6081,-0.622,-0.6108,-0.5836,-0.5745,-0.5766,-0.5878,-0.6081,-0.6321,0,0,0,0,0,-0.0262,-0.0438,-0.0416,-0.0539,-0.0625,-0.0603,-0.0406,-0.0256,0,0.0251,0.0673,0.0844,0,0,-0.0438,-0.1239,-0.1751,-0.2045,-0.2242,-0.2408,-0.2579,-0.2776,-0.3001,-0.3337,-0.3924,-0.4592,-0.5013,-0.5163,-0.5227,-0.5323,-0.5462,-0.5633,-0.5804,-0.5846,-0.5643,-0.5435,-0.5446,-0.5526,-0.5643,-0.5772,-0.591,0,0,0,0,0,0,-0.0123,-0.04,-0.0667,-0.0828,-0.0956,-0.1153,-0.1511,-0.0352,0.1025,0.1447,0.1869,0,0,-0.0214,-0.0785,-0.1329,-0.1692,-0.197,-0.2194,-0.2397,-0.26,-0.283,-0.3134,-0.354,-0.3999,-0.4442,-0.4752,-0.4896,-0.5029,-0.5248,-0.5467,-0.5547,-0.543,-0.528,-0.527,-0.5344,-0.5451,-0.5595,-0.5707,-0.574,0,0,0,0,0,0,-0.0256,-0.0694,-0.0929,-0.1009,-0.1036,-0.1009,-0.0902,-0.0614,-0.0219,-0.0027,0,0,0,-0.0144,-0.0593,-0.1127,-0.1522,-0.1847,-0.2109,-0.2301,-0.2456,-0.2621,-0.2803,-0.3022,-0.3278,-0.3588,-0.3919,-0.4271,-0.4629,-0.4875,-0.4928,-0.488,-0.4896,-0.5008,-0.5115,-0.5222,-0.5382,-0.5558,-0.5659,-0.5665,0,0,0,0,0,0,-0.0587,-0.1297,-0.1324,-0.1196,-0.1143,-0.1116,-0.1132,-0.1223,-0.1596,-0.252,-0.22,-0.1255,0,-0.0139,-0.055,-0.1078,-0.149,-0.1831,-0.2082,-0.2253,-0.2376,-0.2499,-0.2654,-0.283,-0.3038,-0.3273,-0.354,-0.3817,-0.4058,-0.4266,-0.4442,-0.4608,-0.4757,-0.4869,-0.4997,-0.5174,-0.5382,-0.5553,-0.5627,-0.5611,0,0,0,0,0,0,0,-0.0913,-0.1559,-0.1212,-0.1121,-0.1105,-0.1084,-0.1057,-0.1009,-0.0902,-0.0518,-0.0219,0,-0.0166,-0.0619,-0.1164,-0.157,-0.1885,-0.2125,-0.2317,-0.2509,-0.2723,-0.2969,-0.3209,-0.3422,-0.3599,-0.3748,-0.3887,-0.4031,-0.4191,-0.4378,-0.457,-0.4746,-0.4907,-0.5067,-0.5259,-0.5451,-0.559,-0.5633,-0.5595,0,0,0,0.0053,0.0112,0,0,0,-0.0342,-0.0822,-0.1009,-0.1068,-0.1036,-0.0913,-0.0657,-0.0214,0.039,0.0721,0,-0.0267,-0.0886,-0.1447,-0.1805,-0.2098,-0.2371,-0.2664,-0.2979,-0.3268,-0.3454,-0.3534,-0.3599,-0.3695,-0.3817,-0.3972,-0.4159,-0.4357,-0.4554,-0.4746,-0.4928,-0.5099,-0.5254,-0.5408,-0.5547,-0.5627,-0.5643,-0.5606,0,0,-0.0214,-0.0667,-0.1175,-0.1751,-0.2082,-0.212,-0.1746,-0.1244,-0.1148,-0.1169,-0.1169,-0.1062,-0.0742,-0.0032,0.1228,0.2007,0,-0.0593,-0.1548,-0.2002,-0.2258,-0.2531,-0.2846,-0.3177,-0.346,-0.3636,-0.3711,-0.3732,-0.3769,-0.3839,-0.3956,-0.4116,-0.4314,-0.4538,-0.4757,-0.4955,-0.512,-0.5254,-0.5376,-0.5499,-0.5595,-0.5638,-0.5643,-0.5622,0,0,-0.0497,-0.0801,-0.0438,-0.0267,0,0,-0.0272,-0.0758,-0.1105,-0.1345,-0.1538,-0.1666,-0.1655,-0.1276,-0.0956,0,-0.1367,-0.2707,-0.2744,-0.2776,-0.2862,-0.3022,-0.3235,-0.3449,-0.3641,-0.378,-0.3865,-0.3919,-0.3967,-0.4031,-0.4122,-0.4261,-0.4442,-0.4656,-0.4864,-0.504,-0.5174,-0.5286,-0.5392,-0.5494,-0.5569,-0.5611,-0.5638,-0.5643,-0.0283,-0.0721,-0.0876,0,0,0,0,0,-0.0256,-0.079,-0.1287,-0.1703,-0.212,-0.2632,-0.3412,-0.4789,-0.7176,-0.8051,-0.6092,-0.4394,-0.3753,-0.3444,-0.3348,-0.3385,-0.3497,-0.3615,-0.3727,-0.3844,-0.3978,-0.4095,-0.4175,-0.4213,-0.4245,-0.4309,-0.4421,-0.4581,-0.4768,-0.4939,-0.5093,-0.5248,-0.5387,-0.5473,-0.551,-0.5547,-0.5595,-0.5627,-0.0368,-0.0358,-0.079,-0.0886,-0.0876,0,0,0,-0.0315,-0.095,-0.1543,-0.2066,-0.2595,-0.3235,-0.4095,-0.5152,-0.6172,-0.6482,-0.5782,-0.4784,-0.4191,-0.3844,-0.3668,-0.3615,-0.3641,-0.3705,-0.3796,-0.3914,-0.4058,-0.4197,-0.4271,-0.4255,-0.4213,-0.4207,-0.4234,-0.4309,-0.4442,-0.4645,-0.4907,-0.519,-0.5425,-0.551,-0.5494,-0.5483,-0.5505,-0.5537,0,-0.0048,-0.0251,-0.0657,-0.1084,-0.1265,0,0,-0.039,-0.1116,-0.173,-0.228,-0.2792,-0.3406,-0.4277,-0.5259,-0.5734,-0.5531,-0.5104,-0.4602,-0.4255,-0.3972,-0.3764,-0.3657,-0.3663,-0.3727,-0.3785,-0.3865,-0.3978,-0.41,-0.4213,-0.4159,-0.4063,-0.4026,-0.3967,-0.393,-0.3967,-0.4143,-0.4485,-0.4955,-0.5419,-0.5595,-0.551,-0.5408,-0.5344,-0.5323,0.2397,0.118,0.0625,0.0096,-0.0731,-0.1847,-0.2152,-0.1618,-0.1105,-0.1105,-0.1628,-0.2205,-0.2568,-0.2974,-0.3946,-0.528,-0.5366,-0.4602,-0.4303,-0.4223,-0.4127,-0.3903,-0.3684,-0.3599,-0.3695,-0.3951,-0.4298,-0.4496,-0.4223,-0.3817,-0.3908,-0.3839,-0.3743,-0.3796,-0.3727,-0.362,-0.3534,-0.355,-0.3727,-0.4229,-0.5307,-0.5825,-0.5382,-0.5264,-0.5104,-0.5008,0.0886,0.1612,0.1265,0.0886,0.0454,-0.0016,-0.0331,-0.0406,-0.031,-0.0422,-0.1004,-0.1917,-0.1933,-0.141,0,0,-0.1644,-0.3695,-0.4271,-0.4672,-0.4581,-0.3919,-0.3476,-0.3203,-0.3043,-0.2974,-0.2931,-0.2803,0,0,0,-0.1388,-0.3118,-0.3732,-0.3972,-0.3412,-0.3027,-0.2856,-0.2515,-0.1703,-0.1185,0,-0.2862,-0.5419,-0.4987,-0.4741,0,0.1036,0.1917,0.1602,0.1313,0.1046,0.0796,0.0582,0.0486,0,0,0,-0.0806,-0.228,-0.2317,-0.1687,0,-0.1052,-0.2002,-0.1895,0,0,0,0,0,0,0,-0.1863,-0.3444,-0.3219,-0.3438,-0.3107,-0.2136,-0.165,0,0,-0.1137,-0.252,-0.2306,-0.1185,0.0352,0.0069,-0.1095,0,0,0,0,0,0.0977,0.1885,0.1805,0.1757,0.1612,0.1297,0.0667,0.0091,-0.0182,-0.0352,-0.0763,-0.1506,-0.2178,-0.307,-0.3673,-0.3385,-0.3273,-0.3647,-0.355,-0.3097,-0.2872,-0.2766,-0.2686,-0.2755,-0.307,-0.2872,-0.2557,-0.2638,-0.2686,-0.2547,-0.2306,-0.2429,-0.2589,-0.2702,-0.1506,-0.0198,0,0,0,-0.0219,0.0742,0.1602,0.1276,0,0,0,0,0.0769,0.1906,0.2355,0.2365,0.221,0.166,0.102,0.0774,0.0571,0.0192,-0.0304,-0.0796,-0.1244,-0.1468,-0.1207,-0.102,-0.1148,-0.1452,-0.1794,-0.1986,-0.2114,-0.2024,-0.1794,-0.1602,-0.1313,-0.1169,-0.1169,-0.1169,-0.1175,-0.1169,-0.1143,-0.0678,-0.0304,0.0315,0.1591,0.2157,0.1746,0.0331,-0.0539,0.0267,0.0769,0.0635,0,0,0,0,0,0,0,0,0,0.0518,0.1313,0.1719,0.1543,0.1073,0.0785,0.0566,0.0352,0.0235,0.0304,0.0443,0.0566,0.055,0.0374,0.0299,0.0507,0.0929,0.1148,0,0,0,0,0.0288,0.0828,0.0929,0.055,0.0326,0,0,0,0,0,-0.0331,-0.0411,0.0016,0.0262,0.0315,0,0,0,0,0,0,0,0,0,0,0,0,0.0443,0.1095,0.1308,0.1255,0.1121,0.103,0.0998,0.0929,0.087,0,0,0,0,0,0,0,0,0,0,0,0,0.0368,0.0769,0.0806,0,0,0,0,0,-0.0037,-0.0091,-0.0171,-0.0166,-0.0069,0,0,0,0,0,0,0,0,0,0,0,0,0,0,0,0,0,0,0,0,0,0,0,0,0,0,0,0,0,0,0,0,0,0,0,0,0,0,0,0,0,0.0059,-0.0064,-0.0352,-0.04,-0.0278,0,0,0,0,0,0,0,0,0,0,0,0,0,0,0,0,0,0,0,0,0,0,0,0,0,0,0,0,0,0,0,0,0,0,0,0,0,0,0,0,0,0.0128,0.0198,-0.0064,-0.0283,-0.0144,0,0,0,0,0,0,0,0,0,0,0,0,0,0,0,0,0,0,0,0,0,0,0,0,0,0,0,0,0,0,0,0,0,0,0,0,0,0,0,0,0,0,0.1858,0.102,0.0251,-0.0021,0,0,0,0,0,0,0,0,0,0,0,0,0,0,0,0,0,0,0,0,0,0,0,0,0,0,0,0,0,0,0,0,0,0,0,0,0,0,0,0,0,0,0.0149,0.0262,0.0117,-0.0021,0,0,0,0,0,0,0,0,0,0,0,0,0,0,0,0,0,0,0,0,0,0,0,0,0,0,0,0,0,0,0,0,0,0,0,0,0,0,0,0,0,0,0.0037,0.0304,0.0406,0.0096,0,0,0,0,0,0,0,0,0,0,0,0,0,0,0,0,0,0,0,0,0,0,0,0,0,0,0,0,0,0,0,0,0,0,0,0,0,0,0,0,0,0,0.11,0.2061,0.1297,0.04,0]}],[{"header":{"parameterUnit":"kt","parameterCategory":2,"dx":1,"dy":1,"la1":29.46422004699707,"la2":30.564109802246094,"lo1":-89.4342041015625,"lo2":-87.934326171875,"nx":46,"ny":34,"refTime":"2022-09-26T00:00:00:Z","depth":"6","parameterNumber":3,"parameterNumberName":"V-component_of_CURRENTS"},"data":[-0.0769,-0.1276,-0.165,-0.1858,-0.2034,-0.236,-0.3027,0,-0.0689,-0.3588,-0.3903,-0.3641,-0.4859,-0.5286,-0.5772,-0.6022,-0.6135,-0.6172,-0.6129,-0.6001,-0.582,-0.5772,-0.6033,-0.6487,-0.6775,-0.6551,-0.6156,-0.5702,-0.5238,-0.4682,-0.4031,-0.331,-0.2611,-0.1975,-0.1271,-0.0539,0.0048,0.0491,0.0806,0.1095,0.1351,0.1559,0.1698,0.1762,0.1794,0.1869,-0.1078,-0.1644,-0.1981,-0.2162,-0.2296,-0.2472,-0.2638,-0.0982,0,-0.4229,-0.4223,-0.3065,-0.5045,-0.5083,-0.5275,-0.5537,-0.5745,-0.5905,-0.6012,-0.6038,-0.5958,-0.583,-0.5804,-0.6006,-0.645,-0.6652,-0.6359,-0.5713,-0.512,-0.456,-0.3978,-0.3374,-0.2872,-0.2493,-0.2061,-0.1554,-0.1046,-0.0582,-0.0149,0.0283,0.0673,0.102,0.1335,0.1634,0.1938,0.2258,-0.1244,-0.1895,-0.2205,-0.2339,-0.2381,-0.2387,-0.2355,-0.2146,-0.1137,-0.3833,-0.4186,0,-0.4592,-0.449,-0.4528,-0.4912,-0.5307,-0.5617,-0.5857,-0.599,-0.6001,-0.5932,-0.5873,-0.5889,-0.6081,-0.6492,-0.661,-0.5937,-0.4901,-0.4047,-0.3337,-0.2675,-0.2184,-0.1874,-0.1714,-0.1612,-0.1447,-0.1239,-0.0993,-0.0678,-0.032,0.0128,0.0635,0.1148,0.1548,0.1783,-0.0913,-0.1906,-0.2301,-0.2435,-0.2451,-0.2456,-0.2472,-0.2435,-0.2408,-0.3001,-0.3332,-0.1196,-0.3193,-0.3262,-0.33,-0.4431,-0.4955,-0.5376,-0.5702,-0.5905,-0.5958,-0.5926,-0.5894,-0.5884,-0.591,-0.6097,-0.6487,-0.6412,-0.5302,-0.4127,-0.3166,-0.2322,-0.1639,-0.1217,-0.1062,-0.1089,-0.11,-0.1073,-0.0998,-0.0806,-0.0513,-0.0123,0.0326,0.0747,0.1004,0.0982,-0.0043,-0.1404,-0.2109,-0.2355,-0.2408,-0.244,-0.2525,-0.2595,-0.2616,-0.2707,-0.2691,-0.2435,-0.2376,-0.1842,-0.2536,-0.4752,-0.4864,-0.5206,-0.5574,-0.5798,-0.5868,-0.5836,-0.5788,-0.5756,-0.5723,-0.574,-0.5926,-0.6172,-0.5553,-0.441,-0.3396,-0.252,-0.1725,-0.1175,-0.0881,-0.0817,-0.0796,-0.0774,-0.0705,-0.0523,-0.0283,-0.0053,0.0192,0.039,0.0454,0.0278,0.0358,-0.0513,-0.1452,-0.2013,-0.2152,-0.2264,-0.2589,-0.2734,-0.2766,-0.2755,-0.2702,-0.2568,-0.2419,-0.1821,0,-0.5184,-0.5008,-0.5051,-0.5483,-0.5702,-0.5734,-0.5665,-0.5569,-0.5483,-0.5403,-0.5328,-0.5318,-0.543,-0.5206,-0.4394,-0.3524,-0.2686,-0.1927,-0.1351,-0.0988,-0.086,-0.086,-0.079,-0.0678,-0.047,-0.023,-0.0069,0.008,0.0139,0.0059,-0.0182,0.024,0.0758,-0.0283,-0.1377,-0.1559,-0.1778,-0.2894,-0.3017,-0.2974,-0.2872,-0.2755,-0.2632,-0.2536,-0.2392,-0.11,0,-0.5061,-0.4976,-0.5531,-0.5627,-0.559,-0.5451,-0.528,-0.512,-0.4992,-0.4869,-0.4736,-0.4693,-0.4592,-0.4106,-0.3444,-0.2659,-0.197,-0.1415,-0.1052,-0.0886,-0.086,-0.0742,-0.0667,-0.0523,-0.0288,-0.0149,-0.0011,0.0059,-0.0027,-0.023,0,0.1719,0.0422,-0.0812,-0.0614,-0.1431,-0.3844,-0.3476,-0.3219,-0.3001,-0.2803,-0.2605,-0.2408,-0.22,-0.213,-0.0982,0,-0.4971,-0.6033,-0.5601,-0.5425,-0.5216,-0.4976,-0.4741,-0.4554,-0.4383,-0.4207,-0.4084,-0.4031,-0.3775,-0.323,-0.2515,-0.1853,-0.1324,-0.0945,-0.0753,-0.0689,-0.0534,-0.0523,-0.0513,-0.0331,-0.0166,-0.0085,-0.0053,-0.0112,-0.0299,0,0.1271,0,-0.0849,-0.0059,0,-0.4132,-0.3636,-0.3326,-0.3081,-0.2878,-0.2664,-0.2381,-0.1831,-0.2114,-0.1954,-0.0812,0,-0.4997,-0.5323,-0.519,-0.496,-0.4666,-0.4378,-0.4132,-0.3914,-0.3716,-0.3572,-0.3583,-0.3476,-0.2904,-0.2274,-0.1644,-0.1175,-0.0833,-0.0614,-0.0475,-0.0304,-0.0347,-0.0406,-0.0256,-0.0053,-0.0016,-0.0128,-0.0272,-0.0443,0,0.0662,0.0,-0.1073,0,-0.0326,-0.3161,-0.331,-0.3241,-0.3113,-0.3017,-0.291,-0.2659,-0.1554,-0.268,-0.2269,-0.1847,0,-0.3583,-0.5446,-0.5024,-0.4682,-0.4335,-0.402,-0.3732,-0.347,-0.3241,-0.3081,-0.3113,-0.3059,-0.2499,-0.1965,-0.1436,-0.1057,-0.0828,-0.0635,-0.0406,-0.0208,-0.0304,-0.04,-0.023,0.0005,0.0112,-0.0011,-0.0187,-0.0342,0,0,0,0,0,-0.0657,-0.2723,-0.3054,-0.3134,-0.3145,-0.3193,-0.3305,-0.3278,0,-0.3337,-0.2803,-0.1783,0,0,-0.5195,-0.4666,-0.4266,-0.3919,-0.3615,-0.3326,-0.3049,-0.2782,-0.2589,-0.2552,-0.2509,-0.2162,-0.1719,-0.1308,-0.1025,-0.087,-0.0699,-0.0427,-0.0235,-0.0331,-0.0416,-0.023,-0.0011,0.0107,0.0091,0.0032,-0.0048,0,0,0,0,0,0,-0.2541,-0.2872,-0.3022,-0.3118,-0.323,-0.3369,-0.3396,-0.1495,-0.3513,-0.3508,-0.1506,0,0,-0.4164,-0.4004,-0.3679,-0.339,-0.315,-0.2904,-0.2632,-0.2349,-0.2109,-0.1986,-0.1943,-0.1821,-0.158,-0.1287,-0.1025,-0.0854,-0.0662,-0.0416,-0.0288,-0.0347,-0.0352,-0.0192,-0.0016,0.0101,0.0139,0.0149,0.0139,0,0,0,0,0,0,-0.181,-0.2552,-0.2904,-0.3065,-0.3198,-0.3273,-0.3289,-0.3257,-0.3769,-0.4207,0,0,0,-0.3449,-0.3364,-0.3038,-0.2798,-0.2643,-0.2467,-0.2242,-0.1986,-0.173,-0.1554,-0.149,-0.1431,-0.1319,-0.1153,-0.0956,-0.078,-0.0609,-0.0432,-0.031,-0.0262,-0.0198,-0.0107,0.0005,0.0107,0.0166,0.0208,0.023,0,0,0,0,0,0,-0.1377,-0.2264,-0.299,-0.3113,-0.3246,-0.3337,-0.3401,-0.3465,-0.3673,-0.3711,-0.0988,-0.078,0,-0.2803,-0.2734,-0.2371,-0.2184,-0.2125,-0.204,-0.1895,-0.1692,-0.1452,-0.126,-0.1169,-0.1095,-0.0988,-0.0876,-0.0763,-0.0662,-0.0555,-0.0411,-0.0235,-0.0085,-0.0005,0.0032,0.0069,0.0117,0.0171,0.0235,0.0272,0,0,0,0,0,0,0,-0.2146,-0.3449,-0.3268,-0.3305,-0.338,-0.3433,-0.3449,-0.339,-0.3118,-0.2344,-0.1863,0,-0.2114,-0.2034,-0.166,-0.1575,-0.1623,-0.1639,-0.1575,-0.141,-0.118,-0.0982,-0.0892,-0.0854,-0.0796,-0.0705,-0.0619,-0.0545,-0.0438,-0.0278,-0.0064,0.0117,0.0214,0.0214,0.0171,0.0144,0.0176,0.024,0.0288,0,0,0,0.0069,0.0005,0,0,0,-0.3262,-0.3214,-0.3294,-0.3417,-0.3518,-0.3609,-0.3652,-0.3556,-0.3097,-0.1949,0,-0.1249,-0.1185,-0.095,-0.1009,-0.1153,-0.1244,-0.1212,-0.1057,-0.0865,-0.0731,-0.0678,-0.0689,-0.0673,-0.0614,-0.0529,-0.0438,-0.0304,-0.0107,0.0128,0.0331,0.0422,0.0379,0.0294,0.024,0.0246,0.0278,0.0304,0,0,0.0395,0.0422,0.0336,0.0459,0.0,0.0,-0.3241,-0.3198,-0.3262,-0.3422,-0.3604,-0.3844,-0.4143,-0.4442,-0.4389,-0.1725,0,0.0166,-0.0235,-0.031,-0.0502,-0.0699,-0.0812,-0.079,-0.0673,-0.0571,-0.0534,-0.0539,-0.0566,-0.0545,-0.0481,-0.04,-0.0299,-0.0155,0.0059,0.031,0.0497,0.0555,0.0491,0.0411,0.0379,0.0379,0.0379,0.0363,0,0,0.1468,0.0699,0.0667,0.0913,0,0,-0.3316,-0.3102,-0.3123,-0.33,-0.355,-0.3924,-0.4506,-0.5382,-0.6033,0,0.1847,0.1185,0.0481,0.0182,-0.0069,-0.0288,-0.0406,-0.039,-0.0315,-0.0299,-0.0358,-0.0432,-0.0459,-0.0422,-0.0331,-0.024,-0.0139,0.0011,0.023,0.0475,0.0641,0.0657,0.0577,0.0491,0.0481,0.0491,0.0491,0.0459,0.0491,0.0267,0.1474,0,0,0,0,0,-0.2472,-0.2568,-0.2734,-0.2958,-0.3225,-0.3567,-0.4047,-0.4725,-0.5056,-0.0625,0.229,0.1041,0.0705,0.0459,0.024,0.0027,-0.0101,-0.0085,-0.0011,-0.0037,-0.0192,-0.0342,-0.0379,-0.032,-0.0192,-0.008,0.0032,0.0187,0.0411,0.0657,0.0817,0.0828,0.0705,0.0555,0.0507,0.0507,0.0518,0.0513,0.0982,0.0886,0.087,0.0021,-0.0593,0,0,0,-0.1586,-0.1895,-0.2194,-0.2451,-0.2691,-0.2846,-0.2953,-0.3054,-0.2824,-0.1271,0.0379,0.0587,0.0641,0.0555,0.0411,0.0224,0.0085,0.0107,0.0219,0.0198,-0.0011,-0.0214,-0.0299,-0.0256,-0.0069,0.0053,0.0171,0.0336,0.0593,0.0886,0.1089,0.1127,0.0934,0.063,0.0491,0.0459,0.0459,0.0491,0,0.1383,0.1095,0.0294,-0.102,-0.0817,0,0,-0.055,-0.1159,-0.1591,-0.1885,-0.212,-0.205,-0.1831,-0.1885,-0.2317,-0.1383,-0.0267,0.0363,0.0571,0.0566,0.047,0.032,0.0182,0.0208,0.0368,0.0427,0.0198,-0.0027,-0.0166,-0.0288,0.0085,0.0198,0.0267,0.0422,0.0731,0.1159,0.1458,0.1623,0.1383,0.0699,0.0481,0.0411,0.0368,0.0432,0.1046,0.1853,0.1479,0.0828,-0.0246,-0.0998,-0.0235,-0.0246,-0.0267,-0.0534,-0.0972,-0.1297,-0.1805,-0.1297,-0.1271,-0.1351,-0.3065,-0.1676,-0.0411,0.0571,0.0662,0.0529,0.0443,0.0358,0.0278,0.0315,0.0448,0.0646,0.0326,0.0101,-0.0064,-0.0614,0.04,0.0513,0.0352,0.0464,0.0763,0.1463,0.1831,0.2419,0.276,0.0747,0.047,0.0475,0.031,0.0347,0.2088,0.2322,0.1895,0.1308,0.0593,-0.0133,-0.0406,-0.0523,-0.0705,-0.0283,-0.0657,-0.0998,-0.2392,-0.1933,0,0,-0.3791,-0.142,-0.0128,0.142,0.079,0.0518,0.0422,0.0395,0.0368,0.0422,0.0545,-0.0988,0,0,0,0.0806,0.1105,0.1564,0.0427,0.0507,0.0502,0.173,0.1821,0.2403,0.3065,0,0.3935,0.0566,0.031,0.031,0,0.2461,0.22,0.1639,0.094,0.0214,-0.024,-0.0486,-0.0731,0,0,0,-0.2013,-0.2173,-0.0683,-0.1025,0,0.0422,0.0075,0.0651,0,0,0,0,0,0,0,-0.0582,-0.0144,0.0166,0.0251,0.1922,0.1127,0.1137,0,0,0.2018,0.2274,0.1596,0.1906,0.2339,0.1377,0.6695,0,0,0,0,0,0.2328,0.1815,0.102,0.0336,-0.0053,-0.0214,-0.0149,0.0219,0.0176,0.0107,-0.0609,-0.1009,-0.1041,-0.1361,0.0053,0.142,0.008,-0.0726,-0.0368,-0.016,-0.0032,0.0,0.0048,0.023,0.031,0.1132,-0.0155,0.0304,0.0561,0.1132,0.0625,0.0,0.0016,0.0128,0.2477,0.2579,0,0,0,0.3049,0.4677,0.0384,-0.0016,0,0,0,0,0.1847,0.0993,0.0336,0.0027,-0.0011,0.0774,0.0614,0.0395,0.0358,0.0021,-0.0336,-0.0486,-0.0443,0.0091,0.0694,0.0182,-0.0667,-0.0411,-0.0224,0.0037,0.0187,0.0262,0.0619,0.0614,0.0614,-0.0021,0.0283,0.0657,0.0796,0.0571,-0.0096,-0.0443,0.0256,0.1132,0.2403,0.0,0.0,0.1297,0.3065,0.2627,0.0785,0.0005,0,0,0,0,0,0,0,0,0,0.1244,0.0796,0.0438,0.0801,0.0427,0.0032,-0.0149,-0.0133,0.0059,0.0224,0.0069,-0.0726,-0.0085,-0.0128,0.0133,0.0374,0.0427,0.078,0,0,0,0,0.0694,0.0705,0.0747,-0.0011,-0.0833,0,0,0,0,0,0.2803,0.2472,0.1596,0.0625,0.0,0,0,0,0,0,0,0,0,0,0,0,0,0.11,0.0593,0.0133,-0.0048,-0.0048,0.0043,0.0101,-0.0021,-0.0838,0,0,0,0,0,0,0,0,0,0,0,0,0.0908,0.0208,-0.0747,0,0,0,0,0,0.3001,0.2168,0.1292,0.0294,-0.0149,0,0,0,0,0,0,0,0,0,0,0,0,0,0,0,0,0,0,0,0,0,0,0,0,0,0,0,0,0,0,0,0,0,0,0,0,0,0,0,0,0,0.291,0.2344,0.1345,-0.0011,-0.0411,0,0,0,0,0,0,0,0,0,0,0,0,0,0,0,0,0,0,0,0,0,0,0,0,0,0,0,0,0,0,0,0,0,0,0,0,0,0,0,0,0,0.2718,0.252,0.157,-0.023,-0.0838,0,0,0,0,0,0,0,0,0,0,0,0,0,0,0,0,0,0,0,0,0,0,0,0,0,0,0,0,0,0,0,0,0,0,0,0,0,0,0,0,0,0,0.2947,0.2141,-0.0053,-0.1201,0,0,0,0,0,0,0,0,0,0,0,0,0,0,0,0,0,0,0,0,0,0,0,0,0,0,0,0,0,0,0,0,0,0,0,0,0,0,0,0,0,0,0.3123,0.2472,0.0288,-0.1351,0,0,0,0,0,0,0,0,0,0,0,0,0,0,0,0,0,0,0,0,0,0,0,0,0,0,0,0,0,0,0,0,0,0,0,0,0,0,0,0,0,0,0.268,0.2007,0.0507,-0.1223,0,0,0,0,0,0,0,0,0,0,0,0,0,0,0,0,0,0,0,0,0,0,0,0,0,0,0,0,0,0,0,0,0,0,0,0,0,0,0,0,0,0,0.2504,0.213,0.1495,-0.0694,0]}]],[[{"header":{"parameterUnit":"kt","parameterCategory":2,"dx":1,"dy":1,"la1":29.46422004699707,"la2":30.564109802246094,"lo1":-89.4342041015625,"lo2":-87.934326171875,"nx":46,"ny":34,"refTime":"2022-09-26T00:00:00:Z","depth":"8","parameterNumber":2,"parameterNumberName":"U-component_of_CURRENTS"},"data":[-0.1009,-0.0715,-0.0406,-0.0112,0.0198,0.0529,0.0699,0,-0.0075,0.0155,0.0502,0.0043,-0.0582,-0.087,-0.1511,-0.2237,-0.2963,-0.3647,-0.4255,-0.4741,-0.5088,-0.5446,-0.6028,-0.6877,-0.7667,-0.7913,-0.7827,-0.7843,-0.8051,-0.8377,-0.8719,-0.9103,-0.9482,-0.9765,-0.9824,-0.9642,-0.9322,-0.8916,-0.8537,-0.8238,-0.7998,-0.7763,-0.7549,-0.7453,-0.7544,-0.7816,-0.0966,-0.0747,-0.0539,-0.0374,-0.0294,-0.0427,-0.0908,-0.1244,0,0.0326,0.0801,-0.0438,-0.158,-0.1393,-0.1773,-0.252,-0.3209,-0.3785,-0.4261,-0.4661,-0.4987,-0.5222,-0.5382,-0.5654,-0.6236,-0.6957,-0.7176,-0.6935,-0.6877,-0.7069,-0.7309,-0.7592,-0.8025,-0.8649,-0.9349,-0.9957,-1.0374,-1.0513,-1.031,-0.9883,-0.9477,-0.9151,-0.8943,-0.8948,-0.9221,-0.9685,-0.0822,-0.0769,-0.0641,-0.0518,-0.0438,-0.0395,-0.0347,-0.0214,0.0881,0.1393,0.0908,0,-0.04,-0.1228,-0.2024,-0.2819,-0.3492,-0.3962,-0.4303,-0.4554,-0.4778,-0.4976,-0.512,-0.52,-0.5376,-0.5836,-0.6482,-0.6775,-0.677,-0.677,-0.6802,-0.7,-0.7368,-0.7886,-0.843,-0.889,-0.9242,-0.9584,-1.0,-1.0411,-1.0694,-1.086,-1.1009,-1.1196,-1.1378,-1.1378,-0.0021,-0.0422,-0.0518,-0.0529,-0.0534,-0.0555,-0.0571,-0.0529,-0.0422,-0.0614,-0.1399,-0.086,-0.0358,-0.1543,-0.2744,-0.3412,-0.3796,-0.4127,-0.4335,-0.4479,-0.4597,-0.4714,-0.4832,-0.4928,-0.504,-0.5291,-0.5836,-0.6524,-0.6941,-0.716,-0.7288,-0.7363,-0.7565,-0.7838,-0.8174,-0.8591,-0.906,-0.9525,-0.9888,-1.0128,-1.031,-1.0593,-1.1052,-1.1522,-1.1746,-1.1618,0.1153,0.0384,-0.0139,-0.039,-0.0555,-0.071,-0.0812,-0.0844,-0.0822,-0.0828,-0.0897,-0.0929,-0.11,-0.1906,-0.3577,-0.4298,-0.3903,-0.4106,-0.4266,-0.4341,-0.4405,-0.4479,-0.4549,-0.4618,-0.472,-0.4901,-0.5238,-0.583,-0.6658,-0.7432,-0.7784,-0.7816,-0.7779,-0.7726,-0.7811,-0.8003,-0.8153,-0.8313,-0.8655,-0.9167,-0.9717,-1.0134,-1.039,-1.0555,-1.0561,-1.0352,0.141,0.1132,0.0358,-0.023,-0.0619,-0.0977,-0.1153,-0.1111,-0.102,-0.0961,-0.095,-0.0908,-0.071,-0.0555,0,-0.1922,-0.3801,-0.3844,-0.4047,-0.409,-0.4132,-0.4186,-0.4234,-0.4287,-0.4367,-0.4469,-0.4624,-0.5056,-0.5937,-0.6951,-0.7699,-0.8158,-0.8393,-0.8494,-0.851,-0.8446,-0.8244,-0.8073,-0.8142,-0.8281,-0.8302,-0.8334,-0.8516,-0.8708,-0.8788,-0.8735,0.2632,0.2007,0.0812,-0.0048,-0.071,-0.1404,-0.1586,-0.1292,-0.1073,-0.0956,-0.0934,-0.1009,-0.1169,-0.1361,-0.1463,0,-0.1874,-0.3705,-0.3743,-0.3711,-0.3737,-0.3785,-0.3839,-0.3892,-0.3962,-0.4004,-0.4036,-0.4261,-0.4907,-0.5772,-0.6685,-0.7432,-0.7859,-0.8121,-0.8222,-0.8142,-0.7838,-0.7614,-0.7763,-0.7875,-0.7694,-0.7443,-0.7341,-0.7421,-0.7576,-0.7678,0,0.0043,0.0192,0.0171,-0.0448,-0.1682,-0.1895,-0.1164,-0.0881,-0.0769,-0.0758,-0.0817,-0.0902,-0.1025,-0.1196,-0.1292,0,-0.1789,-0.3348,-0.3134,-0.3214,-0.3305,-0.3374,-0.3438,-0.3502,-0.3534,-0.3545,-0.3652,-0.402,-0.4608,-0.5366,-0.6199,-0.6877,-0.7315,-0.7523,-0.7528,-0.7309,-0.709,-0.716,-0.7277,-0.7,-0.6743,-0.6871,-0.6994,-0.6978,-0.6866,0,-0.0635,0,0.0406,0.0812,0,-0.008,-0.0272,-0.0406,-0.0454,-0.0475,-0.0475,-0.0502,-0.0763,-0.0982,-0.0998,-0.103,0,-0.0892,-0.2146,-0.2568,-0.276,-0.2872,-0.2958,-0.3022,-0.3081,-0.315,-0.3294,-0.3663,-0.4207,-0.4682,-0.5264,-0.5937,-0.6439,-0.6706,-0.6781,-0.6652,-0.6551,-0.6717,-0.669,-0.6284,-0.6012,-0.6151,-0.6482,-0.6669,-0.6658,0,0.1345,0.1543,0.1543,0,0.0641,0.0801,0.0128,-0.0166,-0.0283,-0.0272,-0.0112,0.0208,-0.0347,-0.0715,-0.0075,0.0182,0,-0.1265,-0.2306,-0.2098,-0.2221,-0.2365,-0.2483,-0.2584,-0.2696,-0.284,-0.3027,-0.3369,-0.3951,-0.4463,-0.4811,-0.5216,-0.5654,-0.5932,-0.6006,-0.5937,-0.5932,-0.6071,-0.5958,-0.5681,-0.559,-0.5611,-0.5723,-0.5926,-0.6161,0,0,0,0,0,-0.0128,-0.0166,-0.0133,-0.0272,-0.0374,-0.0368,-0.0187,-0.0037,0,0.0331,0.0838,0.1014,0,0,-0.0304,-0.0998,-0.1538,-0.1863,-0.2077,-0.2242,-0.2413,-0.2611,-0.2846,-0.3187,-0.3769,-0.4437,-0.4859,-0.5013,-0.5072,-0.5174,-0.5307,-0.5483,-0.5654,-0.5697,-0.5494,-0.528,-0.5291,-0.5376,-0.5494,-0.5622,-0.5756,0,0,0,0,0,0,0.0011,-0.0144,-0.0422,-0.0593,-0.071,-0.0881,-0.1217,-0.0144,0.1143,0.1554,0.1965,0,0,-0.0096,-0.0561,-0.1137,-0.1522,-0.181,-0.2034,-0.2237,-0.2445,-0.268,-0.2985,-0.3396,-0.3844,-0.4282,-0.4597,-0.4741,-0.488,-0.5099,-0.5318,-0.5398,-0.5275,-0.512,-0.5115,-0.5195,-0.5307,-0.5446,-0.5553,-0.559,0,0,0,0,0,0,-0.0128,-0.0448,-0.0699,-0.078,-0.079,-0.0747,-0.0641,-0.0379,-0.0005,0.0182,0,0,0,-0.0032,-0.0379,-0.0945,-0.1361,-0.1692,-0.1949,-0.2146,-0.2306,-0.2472,-0.2659,-0.2878,-0.3134,-0.3444,-0.3775,-0.4116,-0.4474,-0.472,-0.4773,-0.4725,-0.4736,-0.4848,-0.496,-0.5077,-0.5238,-0.5414,-0.551,-0.5515,0,0,0,0,0,0,-0.0475,-0.1052,-0.1078,-0.0956,-0.0886,-0.0849,-0.0849,-0.0934,-0.1276,-0.2125,-0.1858,-0.1014,0,-0.0032,-0.0347,-0.0908,-0.1335,-0.1676,-0.1933,-0.2104,-0.2232,-0.236,-0.2504,-0.2686,-0.2894,-0.3134,-0.3396,-0.3668,-0.3908,-0.4111,-0.4282,-0.4447,-0.4592,-0.4714,-0.4848,-0.5035,-0.5243,-0.5408,-0.5478,-0.5462,0,0,0,0,0,0,0,-0.078,-0.1308,-0.0972,-0.087,-0.0844,-0.0812,-0.0785,-0.0747,-0.0646,-0.0283,0.0005,0,-0.0064,-0.0432,-0.1004,-0.1415,-0.1735,-0.1981,-0.2173,-0.236,-0.2573,-0.2814,-0.3059,-0.3273,-0.3449,-0.3599,-0.3732,-0.3871,-0.4031,-0.4213,-0.4405,-0.4586,-0.4752,-0.4923,-0.5115,-0.5307,-0.5446,-0.5483,-0.5446,0,0,0,0.0101,0.0203,0,0,0,-0.0256,-0.0619,-0.0774,-0.0812,-0.0769,-0.0651,-0.0416,-0.0005,0.0571,0.0897,0,-0.0171,-0.071,-0.1292,-0.1655,-0.1949,-0.2221,-0.2504,-0.2814,-0.3102,-0.3289,-0.338,-0.3444,-0.3545,-0.3668,-0.3817,-0.3999,-0.4191,-0.4383,-0.457,-0.4757,-0.4933,-0.5093,-0.5254,-0.5392,-0.5478,-0.5489,-0.5457,0,0,-0.0171,-0.0571,-0.1014,-0.15,-0.1778,-0.1815,-0.1484,-0.1025,-0.0918,-0.0913,-0.0892,-0.0785,-0.0491,0.016,0.1329,0.2066,0,-0.0502,-0.1372,-0.1837,-0.2098,-0.2365,-0.2675,-0.2995,-0.3278,-0.346,-0.354,-0.3572,-0.3615,-0.3689,-0.3801,-0.3956,-0.4148,-0.4362,-0.457,-0.4768,-0.4933,-0.5072,-0.5206,-0.5334,-0.5425,-0.5473,-0.5483,-0.5467,0,0,-0.0427,-0.0651,-0.0283,-0.0112,0,0,-0.0192,-0.0582,-0.0886,-0.1078,-0.1233,-0.134,-0.1324,-0.0966,-0.0662,0,-0.1207,-0.2413,-0.2525,-0.2589,-0.268,-0.2846,-0.3049,-0.3262,-0.3454,-0.3604,-0.37,-0.3759,-0.3807,-0.3871,-0.3962,-0.4095,-0.4266,-0.4469,-0.4666,-0.4837,-0.4971,-0.5093,-0.5211,-0.5318,-0.5392,-0.5435,-0.5462,-0.5467,-0.023,-0.0571,-0.0683,0,0,0,0,0,-0.0182,-0.0619,-0.1057,-0.141,-0.1773,-0.2226,-0.2926,-0.4138,-0.6215,-0.7016,-0.5344,-0.4015,-0.3502,-0.3241,-0.3155,-0.3198,-0.33,-0.3417,-0.354,-0.3668,-0.3801,-0.3919,-0.3994,-0.4031,-0.4063,-0.4127,-0.4234,-0.4383,-0.456,-0.4725,-0.4885,-0.5051,-0.5195,-0.5286,-0.5328,-0.536,-0.5398,-0.5425,-0.0219,-0.0176,-0.0561,-0.0689,-0.0705,0,0,0,-0.024,-0.0774,-0.1297,-0.1757,-0.2221,-0.2792,-0.3561,-0.449,-0.5382,-0.567,-0.5232,-0.4442,-0.3935,-0.3625,-0.347,-0.3422,-0.3444,-0.3502,-0.3593,-0.3721,-0.3865,-0.3994,-0.4058,-0.4052,-0.402,-0.402,-0.4047,-0.4111,-0.4239,-0.4437,-0.4698,-0.4981,-0.5216,-0.5307,-0.5291,-0.5275,-0.5286,-0.5307,0,0.0021,-0.0112,-0.0507,-0.0918,-0.1084,0,0,-0.0315,-0.0929,-0.1474,-0.1959,-0.2424,-0.2979,-0.3748,-0.4602,-0.5013,-0.4864,-0.4645,-0.4271,-0.3988,-0.3743,-0.3556,-0.346,-0.3454,-0.3497,-0.3545,-0.3625,-0.3743,-0.3865,-0.3972,-0.3935,-0.386,-0.3839,-0.378,-0.3737,-0.3769,-0.3946,-0.4282,-0.4725,-0.5158,-0.5323,-0.5243,-0.5152,-0.5088,-0.5061,0.228,0.1201,0.0683,0.0187,-0.0603,-0.1644,-0.1927,-0.1436,-0.094,-0.0918,-0.1388,-0.1906,-0.2248,-0.2638,-0.3486,-0.4629,-0.4704,-0.4042,-0.3807,-0.386,-0.3844,-0.3663,-0.346,-0.3374,-0.3449,-0.362,-0.3577,-0.3412,-0.3748,-0.3572,-0.3663,-0.3572,-0.3513,-0.3599,-0.3529,-0.3406,-0.3316,-0.3332,-0.3497,-0.3924,-0.4827,-0.5392,-0.4944,-0.4891,-0.4778,-0.4693,0.0876,0.1591,0.126,0.0918,0.0529,0.0091,-0.0203,-0.0262,-0.0176,-0.0294,-0.0828,-0.166,-0.1666,-0.118,0,0,-0.1436,-0.3155,-0.338,-0.3476,-0.4031,-0.3625,-0.3241,-0.2974,-0.2792,-0.2589,-0.1847,-0.1281,0,0,0,-0.1228,-0.2739,-0.3284,-0.3556,-0.315,-0.2718,-0.2536,-0.2184,-0.1463,-0.0993,0,-0.2488,-0.4794,-0.4576,-0.4383,0,0.0998,0.1847,0.1564,0.1319,0.1089,0.0876,0.0683,0.0593,0,0,0,-0.0689,-0.2002,-0.2056,-0.1495,0,-0.0731,-0.1078,-0.0705,0,0,0,0,0,0,0,-0.1276,-0.2675,-0.2867,-0.3043,-0.2712,-0.1799,-0.1324,0,0,-0.0934,-0.2098,-0.1954,-0.0977,0.0448,0.0155,-0.0972,0,0,0,0,0,0.094,0.1815,0.1757,0.1735,0.1618,0.1324,0.0726,0.0176,-0.0085,-0.0251,-0.0641,-0.1335,-0.1938,-0.2707,-0.3171,-0.2712,-0.2365,-0.252,-0.2632,-0.2638,-0.2589,-0.2525,-0.2451,-0.2445,-0.2563,-0.2387,-0.2258,-0.2381,-0.2387,-0.2221,-0.2024,-0.2162,-0.2285,-0.2274,-0.0817,0.0657,0,0,0,-0.0096,0.0956,0.1997,0.1623,0,0,0,0,0.0753,0.1853,0.2274,0.229,0.2146,0.1628,0.103,0.0817,0.0641,0.0278,-0.0203,-0.0683,-0.1111,-0.1308,-0.1025,-0.0785,-0.0844,-0.1143,-0.157,-0.181,-0.1725,-0.1159,-0.0822,-0.1121,-0.1185,-0.1073,-0.1068,-0.1046,-0.1036,-0.1041,-0.103,-0.0587,0.0315,0.1287,0.2216,0.2675,0.2739,0.134,-0.0064,0.0555,0.1036,0.0833,0,0,0,0,0,0,0,0,0,0.0523,0.1308,0.1687,0.1522,0.1084,0.0822,0.0609,0.0406,0.0294,0.0358,0.0497,0.0609,0.0587,0.0416,0.0358,0.0683,0.1036,0.1095,0,0,0,0,0.0304,0.0849,0.0956,0.0603,0.039,0,0,0,0,0,-0.0005,0.0011,0.0166,0.0352,0.039,0,0,0,0,0,0,0,0,0,0,0,0,0.0448,0.1095,0.1297,0.1244,0.1121,0.1036,0.1004,0.0945,0.0892,0,0,0,0,0,0,0,0,0,0,0,0,0.0379,0.079,0.0822,0,0,0,0,0,0.0027,0.0048,-0.0037,-0.0069,-0.0005,0,0,0,0,0,0,0,0,0,0,0,0,0,0,0,0,0,0,0,0,0,0,0,0,0,0,0,0,0,0,0,0,0,0,0,0,0,0,0,0,0,0.0091,0.0075,-0.0133,-0.0246,-0.0208,0,0,0,0,0,0,0,0,0,0,0,0,0,0,0,0,0,0,0,0,0,0,0,0,0,0,0,0,0,0,0,0,0,0,0,0,0,0,0,0,0,0.0182,0.0331,0.0075,-0.0139,-0.0053,0,0,0,0,0,0,0,0,0,0,0,0,0,0,0,0,0,0,0,0,0,0,0,0,0,0,0,0,0,0,0,0,0,0,0,0,0,0,0,0,0,0,0.1372,0.134,0.071,0.008,0,0,0,0,0,0,0,0,0,0,0,0,0,0,0,0,0,0,0,0,0,0,0,0,0,0,0,0,0,0,0,0,0,0,0,0,0,0,0,0,0,0,0.0331,0.0977,0.0758,0.0112,0,0,0,0,0,0,0,0,0,0,0,0,0,0,0,0,0,0,0,0,0,0,0,0,0,0,0,0,0,0,0,0,0,0,0,0,0,0,0,0,0,0,0.0411,0.1249,0.1426,0.0566,0,0,0,0,0,0,0,0,0,0,0,0,0,0,0,0,0,0,0,0,0,0,0,0,0,0,0,0,0,0,0,0,0,0,0,0,0,0,0,0,0,0,0.0518,0.1265,0.1901,0.1458,0]}],[{"header":{"parameterUnit":"kt","parameterCategory":2,"dx":1,"dy":1,"la1":29.46422004699707,"la2":30.564109802246094,"lo1":-89.4342041015625,"lo2":-87.934326171875,"nx":46,"ny":34,"refTime":"2022-09-26T00:00:00:Z","depth":"8","parameterNumber":3,"parameterNumberName":"V-component_of_CURRENTS"},"data":[-0.0545,-0.1025,-0.1377,-0.1564,-0.1725,-0.2013,-0.2611,0,-0.0454,-0.3113,-0.3428,-0.3225,-0.4293,-0.4661,-0.5334,-0.5659,-0.582,-0.5894,-0.5884,-0.5782,-0.5622,-0.5601,-0.5878,-0.6343,-0.6647,-0.6423,-0.6017,-0.5563,-0.5099,-0.4533,-0.3887,-0.3166,-0.2477,-0.1842,-0.1143,-0.0411,0.0176,0.0614,0.0934,0.1217,0.1479,0.1687,0.1826,0.189,0.1922,0.1991,-0.0838,-0.1372,-0.1682,-0.1847,-0.1965,-0.213,-0.2285,-0.0828,0,-0.3695,-0.3716,-0.2728,-0.4426,-0.4463,-0.472,-0.5115,-0.5382,-0.5579,-0.5718,-0.5772,-0.5723,-0.5622,-0.5622,-0.5852,-0.6316,-0.653,-0.6236,-0.559,-0.4992,-0.4426,-0.3844,-0.3241,-0.2744,-0.236,-0.1927,-0.1426,-0.0918,-0.0454,-0.0027,0.0406,0.0796,0.1143,0.1458,0.1757,0.2066,0.2381,-0.1004,-0.1607,-0.189,-0.2002,-0.2034,-0.2045,-0.2024,-0.1837,-0.0988,-0.3369,-0.3689,0,-0.4015,-0.3935,-0.3962,-0.4415,-0.4891,-0.5248,-0.5521,-0.5686,-0.5723,-0.5686,-0.5659,-0.5702,-0.5921,-0.6354,-0.6492,-0.5825,-0.4778,-0.3924,-0.3209,-0.2552,-0.2061,-0.1746,-0.1586,-0.1479,-0.1319,-0.1111,-0.0865,-0.055,-0.0192,0.0251,0.0763,0.1271,0.1682,0.1922,-0.0699,-0.1623,-0.1975,-0.2082,-0.2093,-0.2098,-0.2125,-0.2114,-0.2109,-0.2643,-0.2926,-0.1041,-0.2798,-0.2856,-0.2862,-0.3865,-0.4458,-0.4955,-0.5334,-0.5574,-0.5659,-0.5654,-0.5649,-0.567,-0.5723,-0.5942,-0.6354,-0.6295,-0.519,-0.401,-0.3049,-0.2205,-0.1516,-0.1095,-0.094,-0.0961,-0.0972,-0.094,-0.087,-0.0678,-0.0384,0.0005,0.0454,0.0881,0.1143,0.1127,0.0128,-0.1153,-0.1799,-0.2007,-0.2045,-0.2082,-0.2178,-0.2258,-0.229,-0.2371,-0.2349,-0.2109,-0.2066,-0.157,-0.2173,-0.4132,-0.4239,-0.4709,-0.5163,-0.5446,-0.5547,-0.5547,-0.5531,-0.5526,-0.5521,-0.5563,-0.5777,-0.6044,-0.5441,-0.4293,-0.3284,-0.2403,-0.1607,-0.1057,-0.0758,-0.0689,-0.0673,-0.0651,-0.0577,-0.0395,-0.016,0.0075,0.0326,0.0523,0.0593,0.0416,0.0497,-0.0315,-0.1196,-0.1703,-0.1815,-0.1922,-0.2237,-0.2387,-0.2413,-0.2403,-0.2344,-0.2221,-0.2098,-0.1548,0,-0.4506,-0.4362,-0.4458,-0.5019,-0.5323,-0.5408,-0.5376,-0.5318,-0.5254,-0.52,-0.5152,-0.5158,-0.5296,-0.5093,-0.4282,-0.3406,-0.2563,-0.1805,-0.1228,-0.0865,-0.0737,-0.0731,-0.0673,-0.055,-0.0347,-0.0112,0.0053,0.0208,0.0272,0.0187,-0.0048,0.0374,0.087,-0.0091,-0.1121,-0.1281,-0.1479,-0.2504,-0.2632,-0.2589,-0.2493,-0.2387,-0.228,-0.2194,-0.2066,-0.095,0,-0.4405,-0.4335,-0.4997,-0.5222,-0.5259,-0.5168,-0.504,-0.4907,-0.48,-0.4698,-0.4586,-0.4554,-0.4469,-0.3983,-0.3321,-0.2536,-0.1847,-0.1292,-0.0924,-0.0763,-0.0737,-0.0619,-0.0539,-0.0395,-0.0171,-0.0032,0.0112,0.0182,0.0096,-0.0112,0,0.1762,0.0582,-0.0598,-0.0406,-0.1159,-0.3342,-0.3033,-0.2803,-0.26,-0.2429,-0.2258,-0.2082,-0.189,-0.1826,-0.0844,0,-0.4325,-0.5371,-0.5158,-0.5088,-0.4944,-0.4746,-0.4544,-0.4378,-0.4223,-0.4063,-0.3951,-0.3908,-0.3652,-0.3113,-0.2397,-0.173,-0.1196,-0.0822,-0.063,-0.0566,-0.0416,-0.0395,-0.039,-0.0214,-0.0048,0.0027,0.0059,0.0,-0.0187,0,0.1335,0,-0.0662,0.0101,0,-0.3599,-0.3166,-0.2888,-0.267,-0.2504,-0.2328,-0.2072,-0.1564,-0.1815,-0.1676,-0.0689,0,-0.4383,-0.4837,-0.4843,-0.4693,-0.4447,-0.4197,-0.3967,-0.3764,-0.3577,-0.3438,-0.3465,-0.3353,-0.2787,-0.2162,-0.1532,-0.1057,-0.0715,-0.0497,-0.0363,-0.0192,-0.023,-0.0294,-0.0149,0.0053,0.0096,-0.0011,-0.016,-0.0336,0,0.0758,0.0,-0.0897,0,-0.023,-0.2739,-0.2872,-0.2808,-0.2718,-0.2654,-0.2568,-0.2339,-0.1319,-0.2349,-0.1975,-0.158,0,-0.3155,-0.488,-0.4656,-0.4421,-0.4132,-0.3844,-0.3577,-0.3332,-0.3107,-0.2958,-0.2995,-0.2947,-0.2392,-0.1853,-0.1324,-0.095,-0.0715,-0.0523,-0.0294,-0.0101,-0.0192,-0.0288,-0.0128,0.0107,0.0214,0.0101,-0.008,-0.0235,0,0,0,0,0,-0.0464,-0.2349,-0.2648,-0.2739,-0.2776,-0.284,-0.2942,-0.291,0,-0.2953,-0.2472,-0.1538,0,0,-0.4608,-0.4309,-0.402,-0.3727,-0.3454,-0.3182,-0.291,-0.2654,-0.2467,-0.244,-0.2403,-0.205,-0.1612,-0.1196,-0.0913,-0.0758,-0.0587,-0.0315,-0.0123,-0.0219,-0.0304,-0.0123,0.0096,0.0214,0.0192,0.0133,0.0053,0,0,0,0,0,0,-0.22,-0.2509,-0.267,-0.2782,-0.2888,-0.3006,-0.3022,-0.1335,-0.3118,-0.3086,-0.1287,0,0,-0.3663,-0.3673,-0.3465,-0.3219,-0.3001,-0.2766,-0.2499,-0.2226,-0.1997,-0.1874,-0.1831,-0.1709,-0.1468,-0.1175,-0.0918,-0.0742,-0.055,-0.0304,-0.0176,-0.0235,-0.024,-0.008,0.0091,0.0203,0.024,0.0251,0.0235,0,0,0,0,0,0,-0.1548,-0.2248,-0.2589,-0.2744,-0.2867,-0.2926,-0.2931,-0.291,-0.3348,-0.3705,0,0,0,-0.3038,-0.3065,-0.2856,-0.2648,-0.2504,-0.2333,-0.2114,-0.1863,-0.1612,-0.1442,-0.1377,-0.1319,-0.1212,-0.1046,-0.0849,-0.0673,-0.0502,-0.0326,-0.0198,-0.0144,-0.008,0.0005,0.0112,0.0208,0.0267,0.031,0.0326,0,0,0,0,0,0,-0.1164,-0.1991,-0.2654,-0.2782,-0.2899,-0.2979,-0.3033,-0.3086,-0.3262,-0.3289,-0.0865,-0.0673,0,-0.2467,-0.2477,-0.221,-0.205,-0.1991,-0.1917,-0.1778,-0.1575,-0.1335,-0.1148,-0.1057,-0.0982,-0.0881,-0.0769,-0.0657,-0.055,-0.0443,-0.0294,-0.0117,0.0032,0.0112,0.0139,0.0166,0.0214,0.0267,0.0331,0.0368,0,0,0,0,0,0,0,-0.189,-0.3043,-0.291,-0.2947,-0.3011,-0.3059,-0.307,-0.3022,-0.2776,-0.2072,-0.1628,0,-0.1858,-0.1831,-0.1527,-0.1452,-0.15,-0.1522,-0.1458,-0.1292,-0.1057,-0.086,-0.0769,-0.0737,-0.0678,-0.0593,-0.0507,-0.0427,-0.032,-0.0155,0.0053,0.0235,0.0326,0.032,0.0272,0.0246,0.0272,0.0336,0.0384,0,0,0,0.0096,0.0021,0,0,0,-0.2878,-0.2856,-0.2931,-0.3038,-0.3129,-0.3209,-0.3246,-0.3155,-0.2739,-0.1709,0,-0.1062,-0.103,-0.0828,-0.0892,-0.1036,-0.1121,-0.1084,-0.0929,-0.0731,-0.0593,-0.0545,-0.0561,-0.055,-0.0486,-0.0411,-0.0315,-0.0182,0.0011,0.0251,0.0448,0.0534,0.0491,0.0395,0.0342,0.0347,0.0374,0.0395,0,0,0.0427,0.0491,0.0427,0.0529,0.0,0.0,-0.2872,-0.2846,-0.2904,-0.3038,-0.3193,-0.3401,-0.3663,-0.3924,-0.3849,-0.1506,0,0.0283,-0.0101,-0.0192,-0.0379,-0.0571,-0.0683,-0.0651,-0.0529,-0.0432,-0.04,-0.0411,-0.0438,-0.0416,-0.0358,-0.0272,-0.0176,-0.0032,0.0182,0.0427,0.0619,0.0667,0.0603,0.0518,0.0481,0.0481,0.0475,0.0459,0,0,0.1506,0.0796,0.0806,0.1052,0,0,-0.2958,-0.2776,-0.2787,-0.292,-0.3134,-0.346,-0.3972,-0.4736,-0.5291,0,0.1735,0.1265,0.0603,0.0304,0.0059,-0.0155,-0.0272,-0.0246,-0.0171,-0.016,-0.023,-0.031,-0.0336,-0.0294,-0.0203,-0.0112,-0.0011,0.0139,0.0358,0.0598,0.0758,0.0774,0.0683,0.0598,0.0577,0.0587,0.0587,0.0555,0.0518,0.0326,0.1532,0,0,0,0,0,-0.2221,-0.2301,-0.2424,-0.2605,-0.2835,-0.3134,-0.3556,-0.4138,-0.4431,-0.0518,0.2194,0.1132,0.0822,0.0582,0.0368,0.0155,0.0027,0.0048,0.0123,0.0091,-0.0069,-0.0214,-0.0251,-0.0187,-0.0064,0.0048,0.016,0.0315,0.0539,0.0785,0.0934,0.0934,0.0801,0.0657,0.0598,0.0609,0.0614,0.0609,0.1036,0.0977,0.0977,0.0069,-0.0539,0,0,0,-0.141,-0.1676,-0.1917,-0.213,-0.2333,-0.2477,-0.2568,-0.2648,-0.2445,-0.1046,0.047,0.0699,0.0758,0.0678,0.0539,0.0352,0.0214,0.0235,0.0342,0.032,0.0117,-0.0085,-0.016,-0.0123,0.0059,0.0182,0.0294,0.0464,0.0721,0.1004,0.1191,0.1217,0.102,0.0726,0.0587,0.0555,0.0555,0.0587,0,0.1436,0.1159,0.0379,-0.0908,-0.0753,0,0,-0.0416,-0.0977,-0.1351,-0.1596,-0.1805,-0.1746,-0.1554,-0.1586,-0.1975,-0.1137,-0.0128,0.0475,0.0678,0.0678,0.0587,0.0438,0.0299,0.0331,0.0491,0.0545,0.032,0.0101,-0.0027,-0.0149,0.0208,0.0315,0.0384,0.0545,0.0854,0.1265,0.1548,0.1698,0.1452,0.0785,0.0582,0.0513,0.047,0.0529,0.1009,0.1847,0.1506,0.0892,-0.0144,-0.0865,-0.0171,-0.0176,-0.0128,-0.0384,-0.0785,-0.1068,-0.1522,-0.1052,-0.1041,-0.11,-0.2654,-0.1404,-0.0224,0.0662,0.0769,0.063,0.055,0.0475,0.0406,0.0454,0.0731,0.0988,0.0438,0.0224,0.0075,-0.0464,0.0518,0.0619,0.047,0.0587,0.0886,0.1559,0.1911,0.2445,0.2723,0.0828,0.0571,0.0566,0.0411,0.0443,0.2013,0.2248,0.1874,0.134,0.0673,-0.0016,-0.0272,-0.0379,-0.0555,-0.0149,-0.0502,-0.0801,-0.2109,-0.1676,0,0,-0.3321,-0.1143,0.0235,0.1511,0.0876,0.0614,0.0529,0.0507,0.0497,0.0566,0.0993,0.0016,0,0,0,0.086,0.1159,0.1575,0.0561,0.0646,0.0662,0.1773,0.1847,0.2387,0.2979,0,0.3583,0.0625,0.0406,0.04,0,0.236,0.212,0.1623,0.0982,0.0304,-0.0117,-0.0352,-0.0609,0,0,0,-0.1794,-0.1938,-0.0593,-0.0924,0,0.0598,0.0641,0.1201,0,0,0,0,0,0,0,0.0214,-0.0048,0.0214,0.0299,0.1906,0.1196,0.1217,0,0,0.2077,0.2232,0.1628,0.1949,0.236,0.1356,0.6022,0,0,0,0,0,0.2221,0.1762,0.1036,0.0406,0.0048,-0.0096,-0.0048,0.0256,0.0208,0.0144,-0.0491,-0.0865,-0.0881,-0.118,0.0101,0.149,0.0486,-0.0101,-0.0182,-0.0101,0.0005,0.0048,0.0117,0.0299,0.0438,0.1207,-0.0011,0.0395,0.0651,0.1191,0.0731,0.0166,0.0064,0.0235,0.2787,0.2408,0,0,0,0.2883,0.4357,0.0683,0.016,0,0,0,0,0.1789,0.0993,0.0395,0.0123,0.0091,0.0817,0.0673,0.0464,0.0432,0.0107,-0.0235,-0.0368,-0.032,0.0187,0.0758,0.032,-0.047,-0.0171,-0.0123,0.0107,0.0416,0.0747,0.1116,0.0876,0.0667,0.0075,0.0368,0.0731,0.0865,0.0646,0.0005,-0.0336,0.047,0.1821,0.2162,0.0,0.0,0.1196,0.2819,0.2627,0.118,0.0272,0,0,0,0,0,0,0,0,0,0.1233,0.0833,0.0513,0.0844,0.0486,0.0101,-0.0075,-0.0059,0.0139,0.0294,0.0133,-0.063,0.0016,-0.0048,0.0203,0.0737,0.126,0.1639,0,0,0,0,0.0758,0.0763,0.079,0.0064,-0.0747,0,0,0,0,0,0.2568,0.236,0.1671,0.079,0.0149,0,0,0,0,0,0,0,0,0,0,0,0,0.1116,0.0635,0.0187,0.0016,0.0016,0.0107,0.0155,0.0032,-0.0769,0,0,0,0,0,0,0,0,0,0,0,0,0.094,0.0267,-0.0683,0,0,0,0,0,0.2798,0.2136,0.1367,0.0443,-0.0021,0,0,0,0,0,0,0,0,0,0,0,0,0,0,0,0,0,0,0,0,0,0,0,0,0,0,0,0,0,0,0,0,0,0,0,0,0,0,0,0,0,0.2776,0.2312,0.1431,0.0182,-0.0272,0,0,0,0,0,0,0,0,0,0,0,0,0,0,0,0,0,0,0,0,0,0,0,0,0,0,0,0,0,0,0,0,0,0,0,0,0,0,0,0,0,0.2531,0.2445,0.1676,-0.0016,-0.0657,0,0,0,0,0,0,0,0,0,0,0,0,0,0,0,0,0,0,0,0,0,0,0,0,0,0,0,0,0,0,0,0,0,0,0,0,0,0,0,0,0,0,0.2419,0.2269,0.0262,-0.0972,0,0,0,0,0,0,0,0,0,0,0,0,0,0,0,0,0,0,0,0,0,0,0,0,0,0,0,0,0,0,0,0,0,0,0,0,0,0,0,0,0,0,0.2419,0.2392,0.0785,-0.1009,0,0,0,0,0,0,0,0,0,0,0,0,0,0,0,0,0,0,0,0,0,0,0,0,0,0,0,0,0,0,0,0,0,0,0,0,0,0,0,0,0,0,0.2152,0.1847,0.1196,-0.0384,0,0,0,0,0,0,0,0,0,0,0,0,0,0,0,0,0,0,0,0,0,0,0,0,0,0,0,0,0,0,0,0,0,0,0,0,0,0,0,0,0,0,0.1911,0.1911,0.165,0.0886,0]}]],[[{"header":{"parameterUnit":"kt","parameterCategory":2,"dx":1,"dy":1,"la1":29.46422004699707,"la2":30.564109802246094,"lo1":-89.4342041015625,"lo2":-87.934326171875,"nx":46,"ny":34,"refTime":"2022-09-26T00:00:00:Z","depth":"10","parameterNumber":2,"parameterNumberName":"U-component_of_CURRENTS"},"data":[-0.0806,-0.0513,-0.0219,0.0053,0.0336,0.063,0.078,0,0.0016,0.0272,0.055,0.0128,-0.0427,-0.0678,-0.118,-0.1954,-0.2696,-0.339,-0.401,-0.4517,-0.4896,-0.5275,-0.5878,-0.6738,-0.7539,-0.7784,-0.7678,-0.7683,-0.788,-0.8195,-0.8543,-0.8932,-0.9327,-0.9621,-0.968,-0.9498,-0.9178,-0.8783,-0.8414,-0.8115,-0.787,-0.763,-0.7416,-0.7325,-0.7416,-0.7678,-0.0769,-0.055,-0.0352,-0.0192,-0.0117,-0.0246,-0.0705,-0.1025,0,0.0336,0.0822,-0.0299,-0.1324,-0.1137,-0.1383,-0.2098,-0.2856,-0.346,-0.3956,-0.4378,-0.4736,-0.5008,-0.5206,-0.5505,-0.6108,-0.6834,-0.7058,-0.6813,-0.6738,-0.6914,-0.7149,-0.7437,-0.7875,-0.85,-0.9194,-0.9792,-1.0203,-1.0347,-1.0155,-0.9744,-0.9338,-0.9012,-0.8804,-0.8815,-0.9082,-0.9541,-0.0641,-0.0577,-0.0443,-0.0326,-0.0251,-0.0214,-0.0176,-0.0069,0.0913,0.1361,0.0908,0,-0.031,-0.0998,-0.1682,-0.2221,-0.2969,-0.355,-0.394,-0.4229,-0.4474,-0.4709,-0.4896,-0.5024,-0.5222,-0.5697,-0.6364,-0.6669,-0.6652,-0.6647,-0.6679,-0.6871,-0.724,-0.7747,-0.8281,-0.8724,-0.906,-0.9402,-0.9824,-1.024,-1.0529,-1.0694,-1.0844,-1.1025,-1.1196,-1.1201,0.0112,-0.0262,-0.0336,-0.0331,-0.0336,-0.0358,-0.0384,-0.0352,-0.0267,-0.0454,-0.1164,-0.0673,-0.0214,-0.1292,-0.2328,-0.2878,-0.3017,-0.355,-0.3908,-0.4111,-0.4266,-0.4415,-0.457,-0.4714,-0.4864,-0.5142,-0.5691,-0.6396,-0.6818,-0.7037,-0.717,-0.725,-0.7448,-0.7715,-0.8051,-0.8457,-0.8922,-0.937,-0.9728,-0.9963,-1.0134,-1.0401,-1.0854,-1.133,-1.1559,-1.1442,0.1191,0.0491,0.0011,-0.0208,-0.0352,-0.0497,-0.0609,-0.0646,-0.0635,-0.0646,-0.071,-0.0742,-0.0908,-0.166,-0.3075,-0.3631,-0.3289,-0.3278,-0.3753,-0.3946,-0.4063,-0.417,-0.4271,-0.4378,-0.4517,-0.473,-0.5088,-0.5697,-0.6524,-0.7309,-0.7662,-0.7694,-0.7662,-0.7608,-0.7694,-0.788,-0.8025,-0.8185,-0.8527,-0.9034,-0.9584,-0.9989,-1.023,-1.0385,-1.039,-1.0187,0.1415,0.1175,0.047,-0.0059,-0.0406,-0.0747,-0.0924,-0.0892,-0.0812,-0.0758,-0.0753,-0.0721,-0.0545,-0.0406,0,-0.1618,-0.3203,-0.3161,-0.3369,-0.3668,-0.378,-0.3882,-0.3967,-0.4052,-0.4159,-0.4287,-0.4474,-0.4923,-0.5809,-0.6813,-0.756,-0.8019,-0.826,-0.8361,-0.8377,-0.8313,-0.811,-0.795,-0.8025,-0.8158,-0.8174,-0.8206,-0.8372,-0.8564,-0.8639,-0.8585,0.2461,0.1933,0.0881,0.0107,-0.0497,-0.1143,-0.1313,-0.1052,-0.0854,-0.0742,-0.0731,-0.0812,-0.0956,-0.1137,-0.1233,0,-0.158,-0.3118,-0.2963,-0.3262,-0.3396,-0.3497,-0.3588,-0.3679,-0.3769,-0.3833,-0.3887,-0.4122,-0.4773,-0.5627,-0.6535,-0.7283,-0.7704,-0.7961,-0.8067,-0.7998,-0.7699,-0.7485,-0.7635,-0.7747,-0.756,-0.7325,-0.7229,-0.7304,-0.7453,-0.7555,0,0.008,0.0288,0.0315,-0.0256,-0.1393,-0.1586,-0.0929,-0.0673,-0.0566,-0.0566,-0.0635,-0.0721,-0.0833,-0.0998,-0.1095,0,-0.1506,-0.2707,-0.2627,-0.2878,-0.3033,-0.3145,-0.3246,-0.3326,-0.3374,-0.3406,-0.3518,-0.3892,-0.4479,-0.5232,-0.6049,-0.6722,-0.7154,-0.7363,-0.7379,-0.7165,-0.6957,-0.7037,-0.7154,-0.6877,-0.662,-0.6754,-0.6882,-0.6866,-0.6759,0,-0.055,0,0.0448,0.0892,0,-0.0016,-0.0123,-0.024,-0.0283,-0.031,-0.0326,-0.0363,-0.0598,-0.0796,-0.0822,-0.086,0,-0.0721,-0.1655,-0.2248,-0.2509,-0.267,-0.2782,-0.2867,-0.2936,-0.3011,-0.3166,-0.3534,-0.4084,-0.4565,-0.5136,-0.5798,-0.6295,-0.6562,-0.6642,-0.6519,-0.6434,-0.6594,-0.6562,-0.6156,-0.5894,-0.6033,-0.6359,-0.654,-0.653,0,0.1345,0.1538,0.1543,0,0.0657,0.087,0.0246,-0.0021,-0.0133,-0.0133,0.0005,0.0299,-0.0219,-0.0555,0.0043,0.0283,0,-0.1068,-0.1837,-0.1767,-0.1986,-0.2178,-0.2328,-0.244,-0.2557,-0.2707,-0.2904,-0.3246,-0.3833,-0.4357,-0.4698,-0.5093,-0.5526,-0.5798,-0.5873,-0.5814,-0.582,-0.5958,-0.5836,-0.5558,-0.5473,-0.5494,-0.5606,-0.5804,-0.6038,0,0,0,0,0,-0.0053,-0.0021,0.0011,-0.0123,-0.0224,-0.023,-0.0064,0.0069,0,0.0347,0.087,0.1052,0,0,-0.0203,-0.0726,-0.1335,-0.1698,-0.1933,-0.2109,-0.228,-0.2483,-0.2723,-0.3075,-0.3657,-0.4314,-0.4741,-0.4896,-0.4955,-0.5051,-0.519,-0.5366,-0.5537,-0.5579,-0.5366,-0.5152,-0.5168,-0.5259,-0.5371,-0.5499,-0.5638,0,0,0,0,0,0,0.0075,-0.0011,-0.0278,-0.0438,-0.0545,-0.0694,-0.1004,-0.0032,0.1132,0.1511,0.1906,0,0,-0.0032,-0.032,-0.0956,-0.1377,-0.1676,-0.1906,-0.2114,-0.2322,-0.2563,-0.2878,-0.3284,-0.3732,-0.4159,-0.4474,-0.4624,-0.4762,-0.4981,-0.52,-0.5275,-0.5147,-0.4987,-0.4987,-0.5072,-0.519,-0.5328,-0.5435,-0.5473,0,0,0,0,0,0,-0.0059,-0.031,-0.0545,-0.0619,-0.0625,-0.0577,-0.0475,-0.024,0.0096,0.0267,0,0,0,0.0027,-0.0166,-0.0785,-0.1228,-0.1564,-0.1826,-0.2029,-0.2194,-0.236,-0.2547,-0.2766,-0.3027,-0.3337,-0.3663,-0.3999,-0.4351,-0.4597,-0.465,-0.4602,-0.4613,-0.472,-0.4837,-0.496,-0.5126,-0.5296,-0.5392,-0.5398,0,0,0,0,0,0,-0.0395,-0.0886,-0.0897,-0.078,-0.071,-0.0667,-0.0662,-0.0737,-0.1036,-0.1794,-0.1591,-0.0865,0,0.0027,-0.0155,-0.0758,-0.1207,-0.1554,-0.1815,-0.1991,-0.2125,-0.2248,-0.2397,-0.2579,-0.2792,-0.3027,-0.3284,-0.355,-0.3791,-0.3988,-0.4159,-0.4319,-0.4463,-0.4592,-0.4736,-0.4923,-0.5131,-0.5291,-0.536,-0.5344,0,0,0,0,0,0,0,-0.0673,-0.1116,-0.0796,-0.0694,-0.0662,-0.0625,-0.0603,-0.0571,-0.0481,-0.0149,0.0117,0,-0.0011,-0.024,-0.0865,-0.1297,-0.1618,-0.1863,-0.2061,-0.2248,-0.2461,-0.2702,-0.2942,-0.3161,-0.3337,-0.3481,-0.3615,-0.3748,-0.3903,-0.4079,-0.4271,-0.4453,-0.4629,-0.4805,-0.5003,-0.5195,-0.5323,-0.5366,-0.5328,0,0,0,0.0128,0.0256,0,0,0,-0.0198,-0.0486,-0.0614,-0.0641,-0.0593,-0.0486,-0.0272,0.0096,0.063,0.0945,0,-0.0117,-0.0529,-0.1159,-0.1538,-0.1826,-0.2098,-0.2381,-0.2686,-0.2969,-0.3161,-0.3257,-0.3326,-0.3428,-0.3545,-0.3695,-0.3865,-0.4052,-0.4239,-0.4431,-0.4618,-0.4794,-0.4965,-0.5126,-0.5264,-0.535,-0.5366,-0.5328,0,0,-0.0149,-0.0518,-0.0913,-0.1324,-0.1559,-0.158,-0.1281,-0.086,-0.0747,-0.0737,-0.0705,-0.0598,-0.0336,0.0235,0.1292,0.197,0,-0.0443,-0.1196,-0.1698,-0.1965,-0.2232,-0.2531,-0.2846,-0.3129,-0.3316,-0.3406,-0.3449,-0.3492,-0.3572,-0.3684,-0.3833,-0.4015,-0.4218,-0.4415,-0.4608,-0.4773,-0.4912,-0.5051,-0.5184,-0.528,-0.5328,-0.5344,-0.5328,0,0,-0.0384,-0.0566,-0.0203,-0.0032,0,0,-0.0144,-0.0464,-0.0726,-0.0881,-0.1004,-0.1089,-0.1073,-0.0747,-0.0475,0,-0.1057,-0.2061,-0.229,-0.2419,-0.2531,-0.2691,-0.2888,-0.3097,-0.3294,-0.3454,-0.3567,-0.3625,-0.3673,-0.3737,-0.3823,-0.3956,-0.4122,-0.4309,-0.449,-0.4656,-0.4789,-0.4917,-0.504,-0.5152,-0.5227,-0.527,-0.5296,-0.5302,-0.0203,-0.0491,-0.0571,0,0,0,0,0,-0.0139,-0.0507,-0.0886,-0.1185,-0.149,-0.1879,-0.2477,-0.3492,-0.5211,-0.5905,-0.4565,-0.3364,-0.3219,-0.3038,-0.2985,-0.3027,-0.3129,-0.3246,-0.3374,-0.3513,-0.3652,-0.3764,-0.3833,-0.3871,-0.3903,-0.3967,-0.4068,-0.4207,-0.4367,-0.4528,-0.4693,-0.4864,-0.5013,-0.5115,-0.5152,-0.5179,-0.5206,-0.5222,-0.0139,-0.008,-0.0443,-0.0577,-0.0609,0,0,0,-0.0198,-0.0657,-0.1111,-0.1506,-0.1906,-0.2392,-0.3049,-0.3828,-0.4565,-0.4816,-0.4261,-0.3956,-0.3636,-0.3406,-0.3278,-0.3241,-0.3262,-0.3316,-0.3401,-0.3529,-0.3673,-0.3791,-0.386,-0.3855,-0.3839,-0.3849,-0.3871,-0.393,-0.4047,-0.4239,-0.4496,-0.4778,-0.5008,-0.5099,-0.5083,-0.5056,-0.5056,-0.5056,0,0.0053,-0.0043,-0.0427,-0.0812,-0.0961,0,0,-0.0272,-0.0806,-0.1281,-0.1703,-0.2104,-0.2579,-0.323,-0.3935,-0.4271,-0.4143,-0.3817,-0.3807,-0.3668,-0.3492,-0.3348,-0.3262,-0.3257,-0.3289,-0.3348,-0.3454,-0.3567,-0.3652,-0.3732,-0.3705,-0.3657,-0.3652,-0.3599,-0.3556,-0.3583,-0.3753,-0.4068,-0.4474,-0.4853,-0.4997,-0.4928,-0.4848,-0.4789,-0.4746,0.2056,0.1153,0.0689,0.0224,-0.0529,-0.1479,-0.1735,-0.1303,-0.0838,-0.0801,-0.1217,-0.1666,-0.1975,-0.2322,-0.3038,-0.3962,-0.402,-0.3486,-0.33,-0.3235,-0.3492,-0.3385,-0.3209,-0.3123,-0.3161,-0.3209,-0.3043,-0.2894,-0.3219,-0.3257,-0.3385,-0.3177,-0.3193,-0.3342,-0.3321,-0.3203,-0.3097,-0.3102,-0.323,-0.3476,-0.393,-0.4725,-0.4138,-0.4325,-0.4346,-0.4271,0.0817,0.1484,0.1185,0.0897,0.055,0.0139,-0.0133,-0.0182,-0.0107,-0.0224,-0.0715,-0.1463,-0.1452,-0.1014,0,0,-0.1175,-0.2371,-0.2392,-0.2691,-0.3022,-0.3161,-0.2931,-0.2675,-0.2456,-0.2082,-0.1271,-0.0726,0,0,0,-0.1078,-0.2387,-0.284,-0.3214,-0.2872,-0.228,-0.2136,-0.1885,-0.1255,-0.0833,0,-0.2098,-0.4015,-0.3823,-0.3748,0,0.0913,0.1687,0.1452,0.1271,0.1084,0.0892,0.0721,0.0635,0,0,0,-0.0603,-0.1751,-0.1821,-0.134,0,-0.0491,-0.0133,0.0715,0,0,0,0,0,0,0,-0.079,-0.1981,-0.2488,-0.2659,-0.2349,-0.1559,-0.1153,0,0,-0.0603,-0.1559,-0.165,-0.0849,0.0481,0.0198,-0.087,0,0,0,0,0,0.0865,0.1676,0.1644,0.1644,0.1554,0.1297,0.0737,0.0219,-0.0037,-0.0198,-0.0561,-0.1207,-0.1735,-0.2371,-0.267,-0.1954,-0.1084,-0.0924,-0.1602,-0.2242,-0.2312,-0.2269,-0.2205,-0.2136,-0.2024,-0.1762,-0.1821,-0.2082,-0.2109,-0.1949,-0.1783,-0.1927,-0.1981,-0.1495,-0.023,0.0641,0,0,0,-0.0048,0.0774,0.1463,0.1313,0,0,0,0,0.0715,0.1741,0.2104,0.2114,0.1991,0.1532,0.1004,0.0817,0.0662,0.032,-0.0149,-0.0619,-0.102,-0.1212,-0.0929,-0.0352,-0.0027,-0.055,-0.1335,-0.1644,-0.1532,-0.0833,-0.0481,-0.0924,-0.1073,-0.0993,-0.0988,-0.0961,-0.094,-0.095,-0.0956,-0.0529,0.0432,0.1132,0.1628,0.2024,0.2018,0.0993,0.0032,0.0561,0.1052,0.0908,0,0,0,0,0,0,0,0,0,0.0513,0.1265,0.1602,0.1452,0.1062,0.0822,0.0625,0.0427,0.0315,0.0379,0.0513,0.0619,0.0598,0.0443,0.039,0.0683,0.0956,0.0972,0,0,0,0,0.031,0.0844,0.095,0.0619,0.0416,0,0,0,0,0,0.0037,0.0091,0.0214,0.0379,0.0416,0,0,0,0,0,0,0,0,0,0,0,0,0.0443,0.1068,0.1255,0.1207,0.1095,0.1014,0.0988,0.0934,0.0886,0,0,0,0,0,0,0,0,0,0,0,0,0.0379,0.079,0.0817,0,0,0,0,0,0.0043,0.0096,0.0011,-0.0037,0.0027,0,0,0,0,0,0,0,0,0,0,0,0,0,0,0,0,0,0,0,0,0,0,0,0,0,0,0,0,0,0,0,0,0,0,0,0,0,0,0,0,0,0.0101,0.0256,0.0256,0.0005,-0.0171,0,0,0,0,0,0,0,0,0,0,0,0,0,0,0,0,0,0,0,0,0,0,0,0,0,0,0,0,0,0,0,0,0,0,0,0,0,0,0,0,0,0.0182,0.0491,0.0689,0.055,0.0203,0,0,0,0,0,0,0,0,0,0,0,0,0,0,0,0,0,0,0,0,0,0,0,0,0,0,0,0,0,0,0,0,0,0,0,0,0,0,0,0,0,0,0.1153,0.1014,0.0817,0.0379,0,0,0,0,0,0,0,0,0,0,0,0,0,0,0,0,0,0,0,0,0,0,0,0,0,0,0,0,0,0,0,0,0,0,0,0,0,0,0,0,0,0,0.024,0.0683,0.0817,0.0368,0,0,0,0,0,0,0,0,0,0,0,0,0,0,0,0,0,0,0,0,0,0,0,0,0,0,0,0,0,0,0,0,0,0,0,0,0,0,0,0,0,0,0.0149,0.0561,0.0833,0.0459,0,0,0,0,0,0,0,0,0,0,0,0,0,0,0,0,0,0,0,0,0,0,0,0,0,0,0,0,0,0,0,0,0,0,0,0,0,0,0,0,0,0,0.0454,0.1004,0.1041,0.0625,0]}],[{"header":{"parameterUnit":"kt","parameterCategory":2,"dx":1,"dy":1,"la1":29.46422004699707,"la2":30.564109802246094,"lo1":-89.4342041015625,"lo2":-87.934326171875,"nx":46,"ny":34,"refTime":"2022-09-26T00:00:00:Z","depth":"10","parameterNumber":3,"parameterNumberName":"V-component_of_CURRENTS"},"data":[-0.0416,-0.0865,-0.1191,-0.1361,-0.15,-0.1746,-0.2258,0,-0.0336,-0.268,-0.2969,-0.2819,-0.3705,-0.4004,-0.4592,-0.5216,-0.5473,-0.5601,-0.5633,-0.5574,-0.5451,-0.5457,-0.5756,-0.6236,-0.6551,-0.6327,-0.5916,-0.5451,-0.4981,-0.4415,-0.3764,-0.3054,-0.2371,-0.1741,-0.1046,-0.032,0.0272,0.071,0.1025,0.1308,0.1575,0.1783,0.1922,0.1986,0.2018,0.2088,-0.0689,-0.1191,-0.1468,-0.1612,-0.1714,-0.1858,-0.1991,-0.0721,0,-0.3177,-0.3209,-0.2408,-0.3796,-0.3823,-0.3914,-0.4458,-0.4933,-0.5206,-0.5398,-0.5499,-0.5489,-0.543,-0.5467,-0.5729,-0.6209,-0.6439,-0.6145,-0.5494,-0.4896,-0.4319,-0.3737,-0.3134,-0.2638,-0.2253,-0.1821,-0.1324,-0.0822,-0.0358,0.0069,0.0491,0.0886,0.1239,0.1554,0.1847,0.2162,0.2477,-0.0854,-0.1404,-0.165,-0.1746,-0.1773,-0.1783,-0.1762,-0.1602,-0.0881,-0.292,-0.3187,0,-0.3449,-0.338,-0.3396,-0.3604,-0.4261,-0.4789,-0.5136,-0.5355,-0.5435,-0.5435,-0.5457,-0.5542,-0.5793,-0.6247,-0.6402,-0.5745,-0.4693,-0.3833,-0.3118,-0.2456,-0.1965,-0.165,-0.149,-0.1377,-0.1217,-0.1009,-0.0758,-0.0448,-0.0096,0.0347,0.086,0.1372,0.1789,0.2029,-0.0577,-0.142,-0.1725,-0.181,-0.1815,-0.1826,-0.1853,-0.1853,-0.1863,-0.2322,-0.2552,-0.0913,-0.244,-0.2472,-0.2451,-0.3294,-0.3609,-0.4335,-0.4875,-0.519,-0.5328,-0.536,-0.5398,-0.5467,-0.5563,-0.5809,-0.6247,-0.6209,-0.5109,-0.3924,-0.2969,-0.212,-0.1426,-0.1004,-0.0849,-0.0865,-0.087,-0.0838,-0.0763,-0.0577,-0.0283,0.0107,0.0561,0.0993,0.126,0.1244,0.0192,-0.0998,-0.1575,-0.1751,-0.1773,-0.1805,-0.1895,-0.1975,-0.2013,-0.2077,-0.205,-0.1842,-0.1815,-0.1356,-0.1853,-0.3502,-0.3604,-0.3823,-0.4613,-0.5019,-0.5195,-0.5238,-0.5259,-0.5296,-0.5334,-0.5414,-0.5654,-0.5948,-0.536,-0.4213,-0.3203,-0.2317,-0.1516,-0.0972,-0.0667,-0.0593,-0.0577,-0.0555,-0.0481,-0.0299,-0.0059,0.0176,0.0427,0.0635,0.0705,0.0529,0.0545,-0.0214,-0.103,-0.1484,-0.157,-0.1666,-0.1949,-0.2082,-0.2114,-0.2098,-0.2045,-0.1938,-0.1837,-0.134,0,-0.3807,-0.37,-0.3716,-0.425,-0.4848,-0.5035,-0.5067,-0.5051,-0.5035,-0.5008,-0.4992,-0.5029,-0.5195,-0.5008,-0.4197,-0.3316,-0.2477,-0.1714,-0.1137,-0.0774,-0.0641,-0.0641,-0.0582,-0.0454,-0.0246,-0.0016,0.0149,0.031,0.0374,0.0294,0.0059,0.0427,0.0892,0.0005,-0.0961,-0.1095,-0.1265,-0.2173,-0.229,-0.2253,-0.2168,-0.2072,-0.1986,-0.1917,-0.1805,-0.0828,0,-0.3732,-0.3679,-0.4047,-0.4682,-0.4869,-0.4864,-0.4789,-0.4704,-0.4624,-0.4544,-0.4458,-0.4447,-0.4378,-0.3898,-0.323,-0.2445,-0.1746,-0.1191,-0.0822,-0.0667,-0.0641,-0.0523,-0.0438,-0.0299,-0.0085,0.0053,0.0203,0.0272,0.0187,-0.0016,0,0.1714,0.0646,-0.0486,-0.0294,-0.0977,-0.2872,-0.2621,-0.2429,-0.2253,-0.2109,-0.197,-0.1815,-0.1644,-0.1591,-0.0742,0,-0.3668,-0.4405,-0.4442,-0.4677,-0.4645,-0.4512,-0.4357,-0.4218,-0.409,-0.3946,-0.3844,-0.3817,-0.3561,-0.3027,-0.2306,-0.1634,-0.11,-0.0721,-0.0534,-0.0475,-0.0331,-0.0299,-0.0294,-0.0128,0.0032,0.0112,0.0144,0.008,-0.0107,0,0.1324,0,-0.0561,0.0182,0,-0.3091,-0.2739,-0.2499,-0.2317,-0.2184,-0.204,-0.1821,-0.1367,-0.1586,-0.1474,-0.0603,0,-0.3732,-0.3967,-0.4394,-0.4394,-0.4229,-0.4026,-0.3828,-0.3647,-0.3465,-0.3337,-0.3374,-0.3268,-0.2707,-0.2082,-0.1447,-0.0972,-0.063,-0.0411,-0.0278,-0.0112,-0.0139,-0.0208,-0.0069,0.0133,0.0176,0.0069,-0.0075,-0.0251,0,0.079,0.0,-0.0785,0,-0.0182,-0.2376,-0.2488,-0.244,-0.2371,-0.2322,-0.2264,-0.2066,-0.1159,-0.2056,-0.1746,-0.1393,0,-0.2755,-0.4004,-0.4132,-0.4127,-0.3924,-0.3689,-0.3449,-0.3219,-0.3006,-0.2862,-0.2904,-0.2867,-0.2317,-0.1773,-0.1244,-0.087,-0.0635,-0.0443,-0.0214,-0.0016,-0.0107,-0.0208,-0.0053,0.0182,0.0288,0.0182,0.0,-0.0155,0,0,0,0,0,-0.0363,-0.2045,-0.2301,-0.2392,-0.2435,-0.2499,-0.2589,-0.2557,0,-0.2584,-0.2173,-0.1361,0,0,-0.3876,-0.3705,-0.3748,-0.3545,-0.331,-0.3059,-0.2803,-0.2557,-0.2381,-0.2355,-0.2322,-0.1975,-0.1532,-0.1116,-0.0833,-0.0678,-0.0507,-0.023,-0.0037,-0.0133,-0.0224,-0.0043,0.0171,0.0288,0.0267,0.0208,0.0128,0,0,0,0,0,0,-0.1922,-0.22,-0.2349,-0.2456,-0.2552,-0.2643,-0.2654,-0.1185,-0.2728,-0.268,-0.1137,0,0,-0.3171,-0.3097,-0.323,-0.3065,-0.2867,-0.2648,-0.2392,-0.2136,-0.1911,-0.1789,-0.1746,-0.1623,-0.1388,-0.1095,-0.0838,-0.0662,-0.0464,-0.0224,-0.0091,-0.0149,-0.0155,0.0005,0.0171,0.0283,0.0315,0.032,0.031,0,0,0,0,0,0,-0.1361,-0.1981,-0.229,-0.2435,-0.2536,-0.2579,-0.2579,-0.2568,-0.292,-0.3203,0,0,0,-0.2648,-0.2573,-0.2664,-0.2515,-0.2387,-0.2226,-0.2013,-0.1773,-0.1527,-0.1361,-0.1292,-0.1233,-0.1132,-0.0966,-0.0769,-0.0593,-0.0422,-0.024,-0.0112,-0.0059,0.0005,0.0091,0.0187,0.0283,0.0342,0.0379,0.0395,0,0,0,0,0,0,-0.1025,-0.1767,-0.2333,-0.2456,-0.2557,-0.2621,-0.267,-0.2712,-0.2851,-0.2867,-0.0763,-0.0603,0,-0.2173,-0.2098,-0.2061,-0.1938,-0.189,-0.1815,-0.1682,-0.149,-0.1249,-0.1062,-0.0977,-0.0902,-0.0801,-0.0689,-0.0577,-0.047,-0.0358,-0.0208,-0.0027,0.0123,0.0198,0.0219,0.024,0.0283,0.0336,0.04,0.0438,0,0,0,0,0,0,0,-0.1676,-0.2648,-0.2557,-0.2589,-0.2643,-0.2686,-0.2702,-0.2659,-0.2451,-0.1837,-0.1452,0,-0.1655,-0.1559,-0.141,-0.1356,-0.1404,-0.1426,-0.1367,-0.1201,-0.0966,-0.0769,-0.0678,-0.0646,-0.0587,-0.0507,-0.0422,-0.0342,-0.0235,-0.0064,0.0149,0.0326,0.0411,0.04,0.0347,0.0315,0.0342,0.0406,0.0448,0,0,0,0.0107,0.0027,0,0,0,-0.2509,-0.2509,-0.2579,-0.2664,-0.2744,-0.2808,-0.284,-0.2766,-0.2408,-0.1527,0,-0.094,-0.0854,-0.0726,-0.0801,-0.094,-0.1025,-0.0988,-0.0828,-0.063,-0.0491,-0.0443,-0.0464,-0.0454,-0.0395,-0.032,-0.023,-0.0096,0.0101,0.0342,0.0539,0.0619,0.0571,0.0475,0.0416,0.0416,0.0443,0.0464,0,0,0.0438,0.0518,0.0459,0.055,0.0,0.0,-0.2509,-0.2499,-0.2557,-0.2664,-0.2787,-0.2958,-0.3182,-0.3396,-0.3321,-0.1351,0,0.0331,0.0011,-0.0096,-0.0283,-0.0475,-0.0577,-0.0539,-0.0416,-0.0315,-0.0288,-0.031,-0.0336,-0.032,-0.0256,-0.0176,-0.0085,0.0064,0.0272,0.0523,0.071,0.0758,0.0689,0.0598,0.0555,0.055,0.0545,0.0523,0,0,0.1468,0.0833,0.086,0.1095,0,0,-0.26,-0.2451,-0.2451,-0.2557,-0.2728,-0.2995,-0.3428,-0.4052,-0.4512,0,0.1538,0.1233,0.0694,0.04,0.016,-0.0053,-0.016,-0.0133,-0.0059,-0.0053,-0.0128,-0.0208,-0.0235,-0.0192,-0.0101,-0.0011,0.0085,0.0235,0.0454,0.0694,0.0849,0.086,0.0763,0.0673,0.0651,0.0662,0.0657,0.0625,0.0518,0.0347,0.1511,0,0,0,0,0,-0.1991,-0.205,-0.2141,-0.2274,-0.2461,-0.2707,-0.3054,-0.3529,-0.3769,-0.0432,0.1959,0.1116,0.0908,0.0678,0.047,0.0262,0.0133,0.0155,0.023,0.0192,0.0032,-0.0112,-0.0149,-0.0085,0.0043,0.0149,0.0262,0.0422,0.0646,0.0876,0.102,0.1009,0.0876,0.0726,0.0667,0.0678,0.0683,0.0678,0.1041,0.1004,0.0998,0.0091,-0.0497,0,0,0,-0.1276,-0.15,-0.1687,-0.1853,-0.2018,-0.2136,-0.22,-0.2253,-0.2072,-0.0865,0.0475,0.0753,0.0844,0.0769,0.0635,0.0448,0.031,0.0331,0.0438,0.0416,0.0214,0.0021,-0.0048,-0.0011,0.016,0.0283,0.0395,0.0561,0.0817,0.1089,0.1265,0.1281,0.1078,0.079,0.0651,0.0625,0.0625,0.0657,0,0.142,0.1159,0.0416,-0.0833,-0.0694,0,0,-0.0342,-0.086,-0.1175,-0.1372,-0.1543,-0.1495,-0.1319,-0.1329,-0.1666,-0.094,-0.0016,0.0539,0.0758,0.0758,0.0673,0.0529,0.0395,0.0427,0.0582,0.0619,0.0406,0.0198,0.0085,-0.0032,0.0304,0.04,0.047,0.0635,0.0945,0.1345,0.1607,0.173,0.1479,0.0838,0.0646,0.0582,0.0539,0.0593,0.0924,0.1762,0.1468,0.0908,-0.0085,-0.0769,-0.0128,-0.0133,-0.0048,-0.0299,-0.0662,-0.0902,-0.1303,-0.0876,-0.087,-0.0908,-0.2258,-0.1143,-0.0123,0.0662,0.0806,0.0699,0.063,0.0561,0.0502,0.0555,0.0833,0.1025,0.0523,0.032,0.0192,-0.032,0.0593,0.0699,0.0561,0.0689,0.0988,0.1618,0.1933,0.236,0.2408,0.0833,0.0593,0.0598,0.0475,0.0502,0.1853,0.2066,0.1767,0.1308,0.0699,0.0048,-0.0198,-0.0299,-0.0464,-0.0075,-0.0406,-0.0673,-0.1847,-0.1458,0,0,-0.284,-0.087,0.0368,0.1308,0.0854,0.0657,0.0598,0.0587,0.0582,0.0646,0.0988,0.0475,0,0,0,0.0817,0.1111,0.1479,0.0651,0.0763,0.0753,0.165,0.1735,0.2221,0.2739,0,0.3081,0.0598,0.0438,0.0438,0,0.2152,0.1949,0.1538,0.0972,0.0347,-0.0053,-0.0278,-0.0534,0,0,0,-0.1586,-0.1719,-0.0523,-0.0828,0,0.0635,0.0934,0.1516,0,0,0,0,0,0,0,0.0513,0.0032,0.0224,0.0299,0.1767,0.1164,0.1169,0,0,0.141,0.1954,0.1543,0.1869,0.2264,0.1281,0.5067,0,0,0,0,0,0.2024,0.1639,0.1004,0.0427,0.0101,-0.0037,0.0,0.0272,0.0224,0.0166,-0.0422,-0.0758,-0.0758,-0.1036,0.0117,0.1393,0.0796,0.0694,0.0016,-0.0064,0.0027,0.0064,0.0144,0.0315,0.0416,0.103,0.0101,0.0427,0.0662,0.1148,0.0747,0.023,0.0091,0.0326,0.1847,0.1981,0,0,0,0.2696,0.3529,0.0582,0.0443,0,0,0,0,0.166,0.095,0.0411,0.0166,0.0144,0.0812,0.0683,0.0491,0.0464,0.0149,-0.0176,-0.0299,-0.0246,0.0224,0.0753,0.0427,-0.0128,0.0053,-0.0069,0.0144,0.0454,0.0763,0.0924,0.0833,0.0673,0.0139,0.0406,0.0747,0.087,0.0662,0.0053,-0.0278,0.0646,0.1345,0.1719,0.0,0.0,0.1004,0.2621,0.2216,0.1105,0.0598,0,0,0,0,0,0,0,0,0,0.1185,0.0828,0.0534,0.0844,0.0507,0.0139,-0.0037,-0.0016,0.0176,0.032,0.0171,-0.0571,0.008,-0.0011,0.024,0.078,0.1244,0.1217,0,0,0,0,0.078,0.0785,0.0801,0.0096,-0.0689,0,0,0,0,0,0.2216,0.2226,0.1639,0.0833,0.0224,0,0,0,0,0,0,0,0,0,0,0,0,0.1084,0.0641,0.0214,0.0048,0.0048,0.0139,0.0182,0.0053,-0.0715,0,0,0,0,0,0,0,0,0,0,0,0,0.0934,0.0288,-0.0641,0,0,0,0,0,0.2515,0.2002,0.1356,0.0507,0.0043,0,0,0,0,0,0,0,0,0,0,0,0,0,0,0,0,0,0,0,0,0,0,0,0,0,0,0,0,0,0,0,0,0,0,0,0,0,0,0,0,0,0.2531,0.1938,0.1233,0.0427,-0.0192,0,0,0,0,0,0,0,0,0,0,0,0,0,0,0,0,0,0,0,0,0,0,0,0,0,0,0,0,0,0,0,0,0,0,0,0,0,0,0,0,0,0.2306,0.1911,0.1036,0.0571,-0.0278,0,0,0,0,0,0,0,0,0,0,0,0,0,0,0,0,0,0,0,0,0,0,0,0,0,0,0,0,0,0,0,0,0,0,0,0,0,0,0,0,0,0,0.1975,0.1148,0.0737,-0.0149,0,0,0,0,0,0,0,0,0,0,0,0,0,0,0,0,0,0,0,0,0,0,0,0,0,0,0,0,0,0,0,0,0,0,0,0,0,0,0,0,0,0,0.1831,0.1303,0.0753,0.0182,0,0,0,0,0,0,0,0,0,0,0,0,0,0,0,0,0,0,0,0,0,0,0,0,0,0,0,0,0,0,0,0,0,0,0,0,0,0,0,0,0,0,0.1602,0.1244,0.078,0.0593,0,0,0,0,0,0,0,0,0,0,0,0,0,0,0,0,0,0,0,0,0,0,0,0,0,0,0,0,0,0,0,0,0,0,0,0,0,0,0,0,0,0,0.1564,0.1415,0.1057,0.079,0]}]],[[{"header":{"parameterUnit":"kt","parameterCategory":2,"dx":1,"dy":1,"la1":29.46422004699707,"la2":30.564109802246094,"lo1":-89.4342041015625,"lo2":-87.934326171875,"nx":46,"ny":34,"refTime":"2022-09-26T00:00:00:Z","depth":"12","parameterNumber":2,"parameterNumberName":"U-component_of_CURRENTS"},"data":[0,0,0,0,0,0,0,0,0,0,0,0,0,0,0,-0.1538,-0.2371,-0.3102,-0.3748,-0.4293,-0.4709,-0.512,-0.575,-0.6626,-0.7427,-0.7667,-0.7549,-0.7533,-0.771,-0.8014,-0.8361,-0.8761,-0.9178,-0.9493,-0.9552,-0.937,-0.9055,-0.8671,-0.8308,-0.8014,-0.7763,-0.7517,-0.7304,-0.7213,-0.7299,-0.756,0,0,0,0,0,0,0,0,0,0,0,0,0,0,0,0,-0.2301,-0.3006,-0.3599,-0.4063,-0.4474,-0.4794,-0.504,-0.5371,-0.5996,-0.6738,-0.6957,-0.6701,-0.6615,-0.6775,-0.6994,-0.7288,-0.7736,-0.8356,-0.9044,-0.9632,-1.0037,-1.0187,-1.0011,-0.9621,-0.9215,-0.889,-0.8681,-0.8692,-0.8959,-0.9418,0,0,0,0,0,0,0,0,0,0,0,0,0,0,0,0,-0.2616,-0.2883,-0.339,-0.3828,-0.4132,-0.4421,-0.4672,-0.4853,-0.5088,-0.5585,-0.6268,-0.6578,-0.6551,-0.654,-0.6572,-0.6765,-0.7122,-0.7619,-0.8137,-0.8559,-0.8874,-0.921,-0.9642,-1.007,-1.0358,-1.0534,-1.0678,-1.0849,-1.102,-1.1025,0,0,0,0,0,0,0,0,0,0,0,0,0,0,0,0,0,-0.3102,-0.3187,-0.3583,-0.3871,-0.4068,-0.4277,-0.449,-0.4693,-0.5003,-0.5569,-0.6289,-0.6722,-0.6935,-0.708,-0.716,-0.7347,-0.7614,-0.7945,-0.834,-0.8788,-0.9231,-0.9584,-0.9803,-0.9952,-1.0198,-1.0641,-1.1121,-1.1367,-1.126,0,0,0,0,0,0,0,0,0,0,0,0,0,0,0,0,0,0,-0.3171,-0.3278,-0.3615,-0.3801,-0.3956,-0.4122,-0.4314,-0.4565,-0.4955,-0.5585,-0.6418,-0.7197,-0.7555,-0.7592,-0.756,-0.7517,-0.7598,-0.7774,-0.7913,-0.8078,-0.8414,-0.8922,-0.9456,-0.9851,-1.0075,-1.0219,-1.0219,-1.0021,0,0,0,0,0,0,0,0,0,0,0,0,0,0,0,0,0,0,0,-0.2985,-0.3262,-0.3513,-0.3663,-0.3801,-0.3946,-0.4111,-0.4335,-0.48,-0.5691,-0.669,-0.7427,-0.7891,-0.8137,-0.8238,-0.826,-0.8195,-0.7998,-0.7843,-0.7918,-0.8046,-0.8062,-0.8083,-0.8244,-0.8425,-0.8494,-0.8436,0,0,0,0,0,0,0,0,0,0,0,0,0,0,0,0,0,0,0,-0.2739,-0.284,-0.3145,-0.331,-0.3454,-0.3577,-0.3668,-0.3753,-0.4004,-0.4656,-0.5499,-0.6396,-0.7138,-0.7555,-0.7806,-0.7913,-0.7854,-0.7571,-0.7368,-0.7528,-0.763,-0.7448,-0.7218,-0.7128,-0.7202,-0.7341,-0.7443,0,0,0,0,0,0,0,0,0,0,0,0,0,0,0,0,0,0,0,0,-0.2339,-0.2696,-0.2894,-0.3043,-0.3161,-0.323,-0.3278,-0.3406,-0.3785,-0.4378,-0.5115,-0.5916,-0.6572,-0.6994,-0.7202,-0.7229,-0.7032,-0.6839,-0.693,-0.7042,-0.6765,-0.6514,-0.6652,-0.6786,-0.677,-0.6663,0,0,0,0,0,0,0,0,0,0,0,0,0,0,0,0,0,0,0,0,-0.1826,-0.2178,-0.244,-0.2605,-0.2718,-0.2803,-0.2894,-0.3054,-0.3422,-0.3978,-0.4463,-0.5024,-0.567,-0.6156,-0.6428,-0.6508,-0.6402,-0.6327,-0.6492,-0.645,-0.6044,-0.5793,-0.5926,-0.6247,-0.6423,-0.6418,0,0,0,0,0,0,0,0,0,0,0,0,0,0,0,0,0,0,0,0,-0.1506,-0.166,-0.1981,-0.2173,-0.2312,-0.2435,-0.2589,-0.2798,-0.3145,-0.3732,-0.4266,-0.4608,-0.4992,-0.5414,-0.5681,-0.5756,-0.5707,-0.5723,-0.5857,-0.5729,-0.5451,-0.5366,-0.5392,-0.5499,-0.5691,-0.5926,0,0,0,0,0,0,0,0,0,0,0,0,0,0,0,0,0,0,0,0,0,-0.1062,-0.1527,-0.1794,-0.1991,-0.2168,-0.2371,-0.2627,-0.2985,-0.3556,-0.4213,-0.464,-0.4794,-0.4859,-0.4949,-0.5083,-0.5264,-0.5435,-0.5473,-0.5259,-0.5045,-0.5067,-0.5158,-0.527,-0.5398,-0.5531,0,0,0,0,0,0,0,0,0,0,0,0,0,0,0,0,0,0,0,0,0,-0.0726,-0.1228,-0.1554,-0.1794,-0.2007,-0.2221,-0.2467,-0.2787,-0.3193,-0.3636,-0.4058,-0.4367,-0.4528,-0.4666,-0.4885,-0.5099,-0.5174,-0.5035,-0.4875,-0.4875,-0.4971,-0.5088,-0.5227,-0.5328,-0.5366,0,0,0,0,0,0,0,0,0,0,0,0,0,0,0,0,0,0,0,0,0,-0.0582,-0.1095,-0.1447,-0.1719,-0.1927,-0.2098,-0.2269,-0.2461,-0.268,-0.2942,-0.3246,-0.3572,-0.3903,-0.4245,-0.4485,-0.4544,-0.4496,-0.4501,-0.4608,-0.473,-0.4859,-0.5029,-0.5195,-0.5286,-0.5291,0,0,0,0,0,0,0,0,0,0,0,0,0,0,0,0,0,0,0,0,0,-0.0582,-0.1089,-0.1442,-0.1709,-0.1901,-0.2034,-0.2162,-0.2306,-0.2493,-0.2707,-0.2942,-0.3193,-0.3454,-0.3689,-0.3887,-0.4052,-0.4207,-0.4351,-0.4485,-0.4634,-0.4827,-0.5035,-0.519,-0.5254,-0.5238,0,0,0,0,0,0,0,0,0,0,0,0,0,0,0,0,0,0,0,0,0,-0.071,-0.1185,-0.1511,-0.1767,-0.1965,-0.2157,-0.2365,-0.26,-0.2851,-0.307,-0.3241,-0.3385,-0.3513,-0.3641,-0.3791,-0.3967,-0.4154,-0.4341,-0.4517,-0.4704,-0.4901,-0.5088,-0.5216,-0.5254,-0.5216,0,0,0,0,0,0,0,0,0,0,0,0,0,0,0,0,0,0,0,0,0,-0.102,-0.1426,-0.1725,-0.1991,-0.2269,-0.2568,-0.2851,-0.3043,-0.315,-0.323,-0.3326,-0.3449,-0.3588,-0.3753,-0.393,-0.4111,-0.4303,-0.449,-0.4672,-0.4843,-0.5008,-0.5147,-0.5227,-0.5243,-0.5211,0,0,0,0,0,0,0,0,0,0,0,0,0,0,0,0,0,0,0,0,-0.1095,-0.1548,-0.1842,-0.2109,-0.2403,-0.2712,-0.299,-0.3182,-0.3284,-0.3337,-0.339,-0.3465,-0.3577,-0.3721,-0.3898,-0.4084,-0.4277,-0.4458,-0.4618,-0.4762,-0.4901,-0.5035,-0.5136,-0.519,-0.5206,-0.5195,0,0,0,0,0,0,0,0,0,0,0,0,0,0,0,0,0,0,0,0,-0.1986,-0.2226,-0.2376,-0.2547,-0.2739,-0.2942,-0.3145,-0.3321,-0.3438,-0.3502,-0.3556,-0.3615,-0.3705,-0.3828,-0.3983,-0.4154,-0.4319,-0.4474,-0.4608,-0.4741,-0.4869,-0.4981,-0.5056,-0.5099,-0.5126,-0.5131,0,0,0,0,0,0,0,0,0,0,0,0,0,0,0,0,0,0,0,0,-0.2734,-0.2803,-0.2798,-0.2862,-0.2958,-0.3075,-0.3209,-0.3364,-0.3502,-0.3609,-0.3673,-0.3711,-0.3748,-0.3812,-0.3908,-0.4031,-0.417,-0.4325,-0.449,-0.4661,-0.4821,-0.4923,-0.496,-0.4976,-0.4981,-0.4981,0,0,0,0,0,0,0,0,0,0,0,0,0,0,0,0,0,0,0,-0.3476,-0.3118,-0.3118,-0.3059,-0.3043,-0.3065,-0.3107,-0.3187,-0.3321,-0.346,-0.3567,-0.3631,-0.3641,-0.3647,-0.3673,-0.3695,-0.3743,-0.3849,-0.4031,-0.4271,-0.4538,-0.4757,-0.4848,-0.4832,-0.4794,-0.4762,-0.473,0,0,0,0,0,0,0,0,0,0,0,0,0,0,0,0,0,0,0,-0.3342,-0.3102,-0.3097,-0.307,-0.3022,-0.3001,-0.299,-0.299,-0.3054,-0.3166,-0.3278,-0.3385,-0.3406,-0.3406,-0.3438,-0.3406,-0.3358,-0.3374,-0.3534,-0.3812,-0.4122,-0.4357,-0.4458,-0.4437,-0.4394,-0.433,-0.4218,0,0,0,0,0,0,0,0,0,0,0,0,0,0,0,0,0,0,0,0,-0.3086,-0.2883,-0.276,-0.2696,-0.268,-0.2718,-0.2707,0,-0.2787,-0.2771,-0.2872,-0.284,-0.2792,-0.2867,-0.3027,-0.2947,-0.2824,-0.2771,-0.275,-0.3059,0,-0.4186,0,-0.3828,-0.3705,-0.3647,0,0,0,0,0,0,0,0,0,0,0,0,0,0,0,0,0,0,0,0,0,-0.2856,-0.26,-0.2376,-0.2226,0,0,0,0,0,0,0,0,0,-0.2766,-0.2451,0,0,0,0,0,0,0,0,0,0,0,0,0,0,0,0,0,0,0,0,0,0,0,0,0,0,0,0,0,0,0,0,0,0,0,0,0,0,0,0,0,0,0,0,0,0,0,0,0,0,0,0,0,0,0,0,0,0,0,0,0,0,0,0,0,0,0,0,0,0,0,0,0,0,0,0,0,0,0,0,0,0,0,0,0,0,0,0,0,0,0,0,0,0,0,0,0,0,0,0,0,0,0,0,0,0,0,0,0,0,0,0,0,0,0,0,0,0,0,0,0,0,0,0,0,0,0,0,0,0,0,0,0,0,0,0,0,0,0,0,0,0,0,0,0,0,0,0,0,0,0,0,0,0,0,0,0,0,0,0,0,0,0,0,0,0,0,0,0,0,0,0,0,0,0,0,0,0,0,0,0,0,0,0,0,0,0,0,0,0,0,0,0,0,0,0,0,0,0,0,0,0,0,0,0,0,0,0,0,0,0,0,0,0,0,0,0,0,0,0,0,0,0,0,0,0,0,0,0,0,0,0,0,0,0,0,0,0,0,0,0,0,0,0,0,0,0,0,0,0,0,0,0,0,0,0,0,0,0,0,0,0,0,0,0,0,0,0,0,0,0,0,0,0,0,0,0,0,0,0,0,0,0,0,0,0,0,0,0,0,0,0,0,0,0,0,0,0,0,0,0,0,0,0,0,0,0,0,0,0,0,0,0,0,0,0,0,0,0,0,0,0,0,0,0,0,0,0,0,0,0,0,0,0,0,0,0,0,0,0,0,0,0,0,0,0,0,0,0,0,0,0,0,0,0,0,0,0,0,0,0,0,0,0,0,0,0,0,0,0,0,0,0,0,0,0,0,0,0,0,0,0,0,0,0,0,0,0,0,0,0,0,0,0,0,0,0,0,0,0,0,0,0,0,0,0,0,0,0,0,0,0,0,0,0,0,0,0,0,0,0,0,0,0,0,0,0,0,0,0,0,0,0,0,0,0,0,0,0,0,0,0,0,0,0,0,0,0,0,0,0,0,0,0,0,0,0,0,0,0,0,0,0,0,0,0,0,0,0,0,0,0,0,0,0,0,0,0,0,0,0,0,0,0,0,0,0,0,0,0,0,0,0,0,0,0,0,0,0,0,0,0,0,0,0,0,0,0,0,0,0,0,0,0,0,0]}],[{"header":{"parameterUnit":"kt","parameterCategory":2,"dx":1,"dy":1,"la1":29.46422004699707,"la2":30.564109802246094,"lo1":-89.4342041015625,"lo2":-87.934326171875,"nx":46,"ny":34,"refTime":"2022-09-26T00:00:00:Z","depth":"12","parameterNumber":3,"parameterNumberName":"V-component_of_CURRENTS"},"data":[0,0,0,0,0,0,0,0,0,0,0,0,0,0,0,-0.4373,-0.4976,-0.5238,-0.5355,-0.5355,-0.528,-0.5323,-0.5649,-0.614,-0.6466,-0.6247,-0.5825,-0.5355,-0.488,-0.4309,-0.3657,-0.2947,-0.228,-0.166,-0.0961,-0.024,0.0352,0.079,0.11,0.1383,0.1655,0.1869,0.2002,0.2061,0.2093,0.2168,0,0,0,0,0,0,0,0,0,0,0,0,0,0,0,0,-0.4106,-0.4629,-0.4992,-0.5179,-0.5238,-0.5232,-0.5323,-0.5617,-0.6124,-0.6364,-0.6076,-0.5425,-0.4816,-0.4229,-0.3641,-0.3038,-0.2552,-0.2162,-0.1735,-0.1233,-0.0737,-0.0272,0.0149,0.0566,0.0961,0.1319,0.1634,0.1927,0.2237,0.2557,0,0,0,0,0,0,0,0,0,0,0,0,0,0,0,0,-0.3796,-0.3978,-0.4501,-0.4923,-0.5083,-0.5158,-0.5243,-0.5387,-0.5681,-0.6161,-0.6332,-0.5681,-0.4624,-0.3759,-0.3043,-0.2381,-0.1885,-0.1564,-0.1404,-0.1287,-0.1127,-0.0918,-0.0667,-0.0363,-0.0011,0.0432,0.0945,0.1458,0.1879,0.212,0,0,0,0,0,0,0,0,0,0,0,0,0,0,0,0,0,-0.3823,-0.4042,-0.4602,-0.4901,-0.5008,-0.5115,-0.5259,-0.5408,-0.5697,-0.6156,-0.6145,-0.5045,-0.386,-0.2899,-0.205,-0.1351,-0.0929,-0.0774,-0.078,-0.0785,-0.0753,-0.0678,-0.0486,-0.0192,0.0198,0.0651,0.1089,0.1361,0.1351,0,0,0,0,0,0,0,0,0,0,0,0,0,0,0,0,0,0,-0.394,-0.4245,-0.4693,-0.4848,-0.4939,-0.5045,-0.5142,-0.527,-0.5542,-0.5868,-0.5296,-0.4148,-0.3139,-0.2248,-0.1447,-0.0902,-0.0598,-0.0513,-0.0497,-0.0481,-0.04,-0.0219,0.0021,0.0267,0.0523,0.0737,0.0806,0.0635,0,0,0,0,0,0,0,0,0,0,0,0,0,0,0,0,0,0,0,-0.402,-0.4426,-0.4656,-0.473,-0.4784,-0.4811,-0.4832,-0.4912,-0.5104,-0.4939,-0.4127,-0.3246,-0.2403,-0.1639,-0.1062,-0.0694,-0.0561,-0.0561,-0.0507,-0.0374,-0.0166,0.0059,0.0224,0.0395,0.0464,0.0384,0.0155,0,0,0,0,0,0,0,0,0,0,0,0,0,0,0,0,0,0,0,-0.3994,-0.417,-0.4453,-0.4485,-0.4474,-0.4442,-0.4394,-0.4341,-0.4357,-0.4303,-0.3828,-0.3155,-0.2371,-0.1666,-0.1105,-0.0737,-0.0582,-0.0561,-0.0448,-0.0358,-0.0214,-0.0016,0.0123,0.0278,0.0347,0.0262,0.0059,0,0,0,0,0,0,0,0,0,0,0,0,0,0,0,0,0,0,0,0,-0.3914,-0.4223,-0.4229,-0.4154,-0.4058,-0.3956,-0.3839,-0.3753,-0.3743,-0.3492,-0.2958,-0.2237,-0.1554,-0.1014,-0.0635,-0.0454,-0.0395,-0.0256,-0.0219,-0.0208,-0.0059,0.0101,0.0187,0.0214,0.0149,-0.0037,0,0,0,0,0,0,0,0,0,0,0,0,0,0,0,0,0,0,0,0,-0.3711,-0.394,-0.3962,-0.3839,-0.3689,-0.3529,-0.3369,-0.3251,-0.33,-0.3193,-0.2643,-0.2018,-0.1383,-0.0897,-0.0555,-0.0342,-0.0214,-0.0048,-0.0069,-0.0139,-0.0011,0.0198,0.0246,0.0139,-0.0005,-0.0187,0,0,0,0,0,0,0,0,0,0,0,0,0,0,0,0,0,0,0,0,-0.3636,-0.3615,-0.3673,-0.3518,-0.3326,-0.3118,-0.2915,-0.2782,-0.2835,-0.2798,-0.2258,-0.1714,-0.118,-0.0806,-0.0571,-0.0379,-0.0149,0.0048,-0.0037,-0.0144,0.0,0.0235,0.0347,0.024,0.0069,-0.0085,0,0,0,0,0,0,0,0,0,0,0,0,0,0,0,0,0,0,0,0,0,-0.3246,-0.3321,-0.3161,-0.2947,-0.2707,-0.2477,-0.2306,-0.229,-0.2258,-0.1911,-0.1474,-0.1046,-0.0769,-0.0614,-0.0438,-0.0166,0.0032,-0.0064,-0.0155,0.0016,0.023,0.0347,0.0326,0.0262,0.0187,0,0,0,0,0,0,0,0,0,0,0,0,0,0,0,0,0,0,0,0,0,-0.2808,-0.2883,-0.2739,-0.2541,-0.2301,-0.2056,-0.1837,-0.1725,-0.1682,-0.1559,-0.1324,-0.103,-0.0774,-0.0598,-0.04,-0.016,-0.0021,-0.008,-0.0085,0.0069,0.0235,0.0342,0.0368,0.0374,0.0363,0,0,0,0,0,0,0,0,0,0,0,0,0,0,0,0,0,0,0,0,0,-0.2344,-0.2371,-0.2274,-0.213,-0.1927,-0.1698,-0.1458,-0.1292,-0.1228,-0.1169,-0.1068,-0.0908,-0.071,-0.0529,-0.0358,-0.0176,-0.0043,0.0016,0.0075,0.0155,0.0246,0.0336,0.0395,0.0432,0.0448,0,0,0,0,0,0,0,0,0,0,0,0,0,0,0,0,0,0,0,0,0,-0.1837,-0.1821,-0.1794,-0.173,-0.1607,-0.1415,-0.118,-0.0998,-0.0913,-0.0838,-0.0737,-0.063,-0.0513,-0.0406,-0.0294,-0.0139,0.0048,0.0198,0.0267,0.0283,0.0299,0.0336,0.039,0.0454,0.0491,0,0,0,0,0,0,0,0,0,0,0,0,0,0,0,0,0,0,0,0,0,-0.126,-0.126,-0.1319,-0.1351,-0.1292,-0.1127,-0.0892,-0.0694,-0.0603,-0.0577,-0.0518,-0.0438,-0.0352,-0.0272,-0.016,0.0011,0.0224,0.04,0.0481,0.0459,0.04,0.0368,0.04,0.0459,0.0502,0,0,0,0,0,0,0,0,0,0,0,0,0,0,0,0,0,0,0,0,0,-0.0625,-0.0715,-0.086,-0.0945,-0.0902,-0.0742,-0.0539,-0.04,-0.0358,-0.0379,-0.0374,-0.0315,-0.0246,-0.0155,-0.0021,0.0176,0.0416,0.0609,0.0683,0.0635,0.0534,0.0475,0.0475,0.0497,0.0513,0,0,0,0,0,0,0,0,0,0,0,0,0,0,0,0,0,0,0,0,0.0059,-0.0005,-0.0203,-0.039,-0.0486,-0.0443,-0.0315,-0.0219,-0.0198,-0.0224,-0.0251,-0.0235,-0.0176,-0.0101,-0.0005,0.0139,0.0352,0.0598,0.0785,0.0828,0.0753,0.0657,0.0614,0.0609,0.0598,0.0577,0,0,0,0,0,0,0,0,0,0,0,0,0,0,0,0,0,0,0,0,0.0721,0.0486,0.0246,0.0037,-0.0064,-0.0032,0.0043,0.0043,-0.0043,-0.0128,-0.0149,-0.0107,-0.0021,0.0075,0.0171,0.032,0.0539,0.0774,0.0924,0.0929,0.0828,0.0731,0.0705,0.0715,0.071,0.0678,0,0,0,0,0,0,0,0,0,0,0,0,0,0,0,0,0,0,0,0,0.0918,0.0758,0.0555,0.0347,0.023,0.0251,0.032,0.0278,0.0117,-0.0027,-0.0059,0.0005,0.0128,0.024,0.0347,0.0507,0.0726,0.0956,0.1084,0.1068,0.0929,0.078,0.0721,0.0726,0.0737,0.0726,0,0,0,0,0,0,0,0,0,0,0,0,0,0,0,0,0,0,0,0.0737,0.0854,0.0833,0.0715,0.0534,0.0395,0.0416,0.0518,0.0491,0.0294,0.0112,0.0053,0.0085,0.0251,0.0363,0.0475,0.0646,0.0897,0.1153,0.1313,0.1313,0.1116,0.0833,0.0699,0.0673,0.0673,0.0699,0,0,0,0,0,0,0,0,0,0,0,0,0,0,0,0,0,0,0,0.0545,0.0758,0.0796,0.0737,0.0598,0.0475,0.0502,0.0641,0.0667,0.0475,0.0288,0.0187,0.0075,0.039,0.0481,0.0545,0.071,0.1014,0.1388,0.1618,0.1703,0.1431,0.0838,0.0667,0.0614,0.0571,0.0614,0,0,0,0,0,0,0,0,0,0,0,0,0,0,0,0,0,0,0,0,0.0785,0.0705,0.0662,0.0609,0.0555,0.0593,0.0828,0,0.0539,0.0384,0.0278,-0.024,0.0609,0.0715,0.0625,0.0769,0.1052,0.1612,0.1826,0.2178,0,0.079,0,0.0582,0.0475,0.0497,0,0,0,0,0,0,0,0,0,0,0,0,0,0,0,0,0,0,0,0,0,0.0657,0.0609,0.0603,0.0598,0,0,0,0,0,0,0,0,0,0.0673,0.0817,0,0,0,0,0,0,0,0,0,0,0,0,0,0,0,0,0,0,0,0,0,0,0,0,0,0,0,0,0,0,0,0,0,0,0,0,0,0,0,0,0,0,0,0,0,0,0,0,0,0,0,0,0,0,0,0,0,0,0,0,0,0,0,0,0,0,0,0,0,0,0,0,0,0,0,0,0,0,0,0,0,0,0,0,0,0,0,0,0,0,0,0,0,0,0,0,0,0,0,0,0,0,0,0,0,0,0,0,0,0,0,0,0,0,0,0,0,0,0,0,0,0,0,0,0,0,0,0,0,0,0,0,0,0,0,0,0,0,0,0,0,0,0,0,0,0,0,0,0,0,0,0,0,0,0,0,0,0,0,0,0,0,0,0,0,0,0,0,0,0,0,0,0,0,0,0,0,0,0,0,0,0,0,0,0,0,0,0,0,0,0,0,0,0,0,0,0,0,0,0,0,0,0,0,0,0,0,0,0,0,0,0,0,0,0,0,0,0,0,0,0,0,0,0,0,0,0,0,0,0,0,0,0,0,0,0,0,0,0,0,0,0,0,0,0,0,0,0,0,0,0,0,0,0,0,0,0,0,0,0,0,0,0,0,0,0,0,0,0,0,0,0,0,0,0,0,0,0,0,0,0,0,0,0,0,0,0,0,0,0,0,0,0,0,0,0,0,0,0,0,0,0,0,0,0,0,0,0,0,0,0,0,0,0,0,0,0,0,0,0,0,0,0,0,0,0,0,0,0,0,0,0,0,0,0,0,0,0,0,0,0,0,0,0,0,0,0,0,0,0,0,0,0,0,0,0,0,0,0,0,0,0,0,0,0,0,0,0,0,0,0,0,0,0,0,0,0,0,0,0,0,0,0,0,0,0,0,0,0,0,0,0,0,0,0,0,0,0,0,0,0,0,0,0,0,0,0,0,0,0,0,0,0,0,0,0,0,0,0,0,0,0,0,0,0,0,0,0,0,0,0,0,0,0,0,0,0,0,0,0,0,0,0,0,0,0,0,0,0,0,0,0,0,0,0,0,0,0,0,0,0,0,0,0,0,0,0,0,0,0,0,0,0,0,0,0,0,0,0,0,0,0,0,0,0,0,0,0,0,0,0,0,0,0,0,0,0,0,0,0,0,0,0,0,0,0,0,0,0,0,0,0,0,0,0,0]}]],[[{"header":{"parameterUnit":"kt","parameterCategory":2,"dx":1,"dy":1,"la1":29.46422004699707,"la2":30.564109802246094,"lo1":-89.4342041015625,"lo2":-87.934326171875,"nx":46,"ny":34,"refTime":"2022-09-26T00:00:00:Z","depth":"15","parameterNumber":2,"parameterNumberName":"U-component_of_CURRENTS"},"data":[0,0,0,0,0,0,0,0,0,0,0,0,0,0,0,0,0,-0.2445,-0.3177,-0.3903,-0.4421,-0.4896,-0.5569,-0.6471,-0.7277,-0.7507,-0.7352,-0.7293,-0.7421,-0.7694,-0.8035,-0.8473,-0.8948,-0.929,-0.9354,-0.9173,-0.8868,-0.851,-0.8163,-0.7875,-0.7614,-0.7363,-0.7144,-0.7053,-0.7133,-0.7379,0,0,0,0,0,0,0,0,0,0,0,0,0,0,0,0,0,0,-0.2931,-0.3273,-0.3962,-0.4437,-0.4789,-0.519,-0.5857,-0.6615,-0.6829,-0.6551,-0.6428,-0.6535,-0.6727,-0.7037,-0.7496,-0.811,-0.8783,-0.9349,-0.9733,-0.9899,-0.9771,-0.9418,-0.9028,-0.8697,-0.85,-0.8521,-0.8788,-0.9242,0,0,0,0,0,0,0,0,0,0,0,0,0,0,0,0,0,0,0,-0.3166,-0.3289,-0.3748,-0.4266,-0.4592,-0.4901,-0.5435,-0.6151,-0.6471,-0.6428,-0.6402,-0.6423,-0.6599,-0.6946,-0.7416,-0.788,-0.8244,-0.8521,-0.8852,-0.9306,-0.9744,-1.0048,-1.0235,-1.0368,-1.0523,-1.0689,-1.0721,0,0,0,0,0,0,0,0,0,0,0,0,0,0,0,0,0,0,0,0,-0.3198,-0.3251,-0.3577,-0.4084,-0.4426,-0.4805,-0.5398,-0.6151,-0.6594,-0.6807,-0.6957,-0.7037,-0.7213,-0.7469,-0.7784,-0.8158,-0.8575,-0.8996,-0.9327,-0.952,-0.9605,-0.9787,-1.0208,-1.071,-1.0999,-1.0924,0,0,0,0,0,0,0,0,0,0,0,0,0,0,0,0,0,0,0,0,0,-0.3107,-0.3161,-0.3567,-0.3956,-0.4314,-0.4768,-0.543,-0.6273,-0.7053,-0.7411,-0.7453,-0.7427,-0.7395,-0.7469,-0.7624,-0.7758,-0.7918,-0.8249,-0.874,-0.9247,-0.9594,-0.9787,-0.9909,-0.9909,-0.9728,0,0,0,0,0,0,0,0,0,0,0,0,0,0,0,0,0,0,0,0,0,-0.2915,-0.2926,-0.3214,-0.3561,-0.3823,-0.4127,-0.4629,-0.5537,-0.6519,-0.7229,-0.7699,-0.7945,-0.8046,-0.8067,-0.8014,-0.7832,-0.7699,-0.7774,-0.7896,-0.7902,-0.7907,-0.8046,-0.8206,-0.8254,-0.819,0,0,0,0,0,0,0,0,0,0,0,0,0,0,0,0,0,0,0,0,0,-0.2638,-0.2643,-0.2931,-0.3225,-0.3396,-0.3545,-0.3833,-0.4496,-0.5318,-0.6183,-0.6898,-0.7293,-0.7533,-0.764,-0.7614,-0.7368,-0.7202,-0.7379,-0.7464,-0.7277,-0.7069,-0.6994,-0.7069,-0.7192,-0.7277,0,0,0,0,0,0,0,0,0,0,0,0,0,0,0,0,0,0,0,0,0,0,-0.2312,-0.2595,-0.2862,-0.2995,-0.3091,-0.3251,-0.3641,-0.4234,-0.4944,-0.5697,-0.6305,-0.6706,-0.6909,-0.6962,-0.6813,-0.6663,-0.6775,-0.6877,-0.6599,-0.6359,-0.6519,-0.6658,-0.6636,-0.654,0,0,0,0,0,0,0,0,0,0,0,0,0,0,0,0,0,0,0,0,0,0,-0.1959,-0.2216,-0.2472,-0.2605,-0.2723,-0.291,-0.3273,-0.3833,-0.4335,-0.4864,-0.5467,-0.5932,-0.6193,-0.6284,-0.6215,-0.6177,-0.6343,-0.6284,-0.5884,-0.5654,-0.5793,-0.6087,-0.6247,-0.6247,0,0,0,0,0,0,0,0,0,0,0,0,0,0,0,0,0,0,0,0,0,0,-0.1591,-0.1837,-0.2098,-0.2258,-0.2429,-0.2659,-0.3011,-0.3604,-0.4148,-0.449,-0.4853,-0.5254,-0.551,-0.5574,-0.5553,-0.559,-0.5718,-0.5574,-0.5302,-0.5227,-0.5254,-0.5355,-0.5542,-0.5772,0,0,0,0,0,0,0,0,0,0,0,0,0,0,0,0,0,0,0,0,0,0,-0.1217,-0.1516,-0.1805,-0.2007,-0.2221,-0.2493,-0.2862,-0.3428,-0.4079,-0.4501,-0.4661,-0.473,-0.4816,-0.4949,-0.5126,-0.5291,-0.5323,-0.5104,-0.4896,-0.4928,-0.5019,-0.5131,-0.5254,-0.5387,0,0,0,0,0,0,0,0,0,0,0,0,0,0,0,0,0,0,0,0,0,0,-0.0966,-0.1319,-0.1623,-0.1858,-0.2082,-0.2339,-0.267,-0.3075,-0.3508,-0.3919,-0.4223,-0.4389,-0.4533,-0.4752,-0.496,-0.5019,-0.4869,-0.4709,-0.4725,-0.4827,-0.4949,-0.5083,-0.5179,-0.5216,0,0,0,0,0,0,0,0,0,0,0,0,0,0,0,0,0,0,0,0,0,0,-0.0854,-0.1244,-0.1559,-0.1794,-0.1975,-0.2146,-0.2344,-0.2568,-0.283,-0.3134,-0.3449,-0.3775,-0.41,-0.4335,-0.4394,-0.4346,-0.4351,-0.4458,-0.4586,-0.4725,-0.4896,-0.5056,-0.5136,-0.5142,0,0,0,0,0,0,0,0,0,0,0,0,0,0,0,0,0,0,0,0,0,0,-0.086,-0.126,-0.1559,-0.1767,-0.1917,-0.2045,-0.2194,-0.2381,-0.26,-0.283,-0.3075,-0.3332,-0.3561,-0.3753,-0.3908,-0.4052,-0.4191,-0.4335,-0.4496,-0.4698,-0.4896,-0.5045,-0.5099,-0.5083,0,0,0,0,0,0,0,0,0,0,0,0,0,0,0,0,0,0,0,0,0,0,-0.0966,-0.1351,-0.1623,-0.1837,-0.2029,-0.2237,-0.2472,-0.2723,-0.2947,-0.3118,-0.3257,-0.3374,-0.3497,-0.3641,-0.3807,-0.3988,-0.4175,-0.4362,-0.456,-0.4762,-0.4939,-0.5056,-0.5088,-0.5056,0,0,0,0,0,0,0,0,0,0,0,0,0,0,0,0,0,0,0,0,0,0,-0.1212,-0.1559,-0.1837,-0.2114,-0.2413,-0.2686,-0.2883,-0.3006,-0.3097,-0.3198,-0.331,-0.3449,-0.3599,-0.3764,-0.3935,-0.4116,-0.4309,-0.449,-0.4661,-0.4821,-0.4955,-0.5035,-0.5056,-0.5029,0,0,0,0,0,0,0,0,0,0,0,0,0,0,0,0,0,0,0,0,0,0,-0.1596,-0.1917,-0.2205,-0.2509,-0.2787,-0.299,-0.3113,-0.3182,-0.3246,-0.3321,-0.3428,-0.3567,-0.3721,-0.3892,-0.4058,-0.4223,-0.4383,-0.4528,-0.4656,-0.4778,-0.4875,-0.4939,-0.4965,-0.496,0,0,0,0,0,0,0,0,0,0,0,0,0,0,0,0,0,0,0,0,0,-0.1938,-0.2045,-0.229,-0.2488,-0.2696,-0.291,-0.3107,-0.3246,-0.3316,-0.3369,-0.3428,-0.3518,-0.3631,-0.3769,-0.3908,-0.4042,-0.417,-0.4298,-0.4426,-0.4554,-0.465,-0.472,-0.4757,-0.4778,-0.4784,0,0,0,0,0,0,0,0,0,0,0,0,0,0,0,0,0,0,0,0,0,-0.2419,-0.2355,-0.2499,-0.2638,-0.2766,-0.292,-0.3091,-0.3235,-0.3321,-0.3374,-0.3422,-0.347,-0.354,-0.3625,-0.3716,-0.3823,-0.3951,-0.41,-0.4266,-0.4415,-0.4506,-0.4528,-0.4496,-0.4415,-0.4335,0,0,0,0,0,0,0,0,0,0,0,0,0,0,0,0,0,0,0,0,0,0,-0.2573,-0.2547,-0.2573,-0.26,-0.2664,-0.2782,-0.2899,-0.2974,-0.3027,-0.3091,-0.3187,-0.3284,-0.3342,-0.3385,-0.3454,-0.3572,-0.3711,-0.386,-0.3999,-0.4084,-0.4079,-0.401,-0.394,-0.3946,0,0,0,0,0,0,0,0,0,0,0,0,0,0,0,0,0,0,0,0,0,0,0,-0.2611,-0.2595,0,0,0,0,0,0,-0.2953,-0.291,-0.2883,-0.2883,-0.2872,-0.2867,-0.2942,-0.3187,-0.3545,0,0,0,0,0,0,0,0,0,0,0,0,0,0,0,0,0,0,0,0,0,0,0,0,0,0,0,0,0,0,0,0,0,0,0,0,0,0,0,0,0,-0.252,-0.2435,0,0,0,0,0,0,0,0,0,0,0,0,0,0,0,0,0,0,0,0,0,0,0,0,0,0,0,0,0,0,0,0,0,0,0,0,0,0,0,0,0,0,0,0,0,0,0,0,0,0,0,0,0,0,0,0,0,0,0,0,0,0,0,0,0,0,0,0,0,0,0,0,0,0,0,0,0,0,0,0,0,0,0,0,0,0,0,0,0,0,0,0,0,0,0,0,0,0,0,0,0,0,0,0,0,0,0,0,0,0,0,0,0,0,0,0,0,0,0,0,0,0,0,0,0,0,0,0,0,0,0,0,0,0,0,0,0,0,0,0,0,0,0,0,0,0,0,0,0,0,0,0,0,0,0,0,0,0,0,0,0,0,0,0,0,0,0,0,0,0,0,0,0,0,0,0,0,0,0,0,0,0,0,0,0,0,0,0,0,0,0,0,0,0,0,0,0,0,0,0,0,0,0,0,0,0,0,0,0,0,0,0,0,0,0,0,0,0,0,0,0,0,0,0,0,0,0,0,0,0,0,0,0,0,0,0,0,0,0,0,0,0,0,0,0,0,0,0,0,0,0,0,0,0,0,0,0,0,0,0,0,0,0,0,0,0,0,0,0,0,0,0,0,0,0,0,0,0,0,0,0,0,0,0,0,0,0,0,0,0,0,0,0,0,0,0,0,0,0,0,0,0,0,0,0,0,0,0,0,0,0,0,0,0,0,0,0,0,0,0,0,0,0,0,0,0,0,0,0,0,0,0,0,0,0,0,0,0,0,0,0,0,0,0,0,0,0,0,0,0,0,0,0,0,0,0,0,0,0,0,0,0,0,0,0,0,0,0,0,0,0,0,0,0,0,0,0,0,0,0,0,0,0,0,0,0,0,0,0,0,0,0,0,0,0,0,0,0,0,0,0,0,0,0,0,0,0,0,0,0,0,0,0,0,0,0,0,0,0,0,0,0,0,0,0,0,0,0,0,0,0,0,0,0,0,0,0,0,0,0,0,0,0,0,0,0,0,0,0,0,0,0,0,0,0,0,0,0,0,0,0,0,0,0,0,0,0,0,0,0,0,0,0,0,0,0,0,0,0,0,0,0,0,0,0,0,0,0,0,0,0,0,0,0,0,0,0,0,0,0,0,0,0,0,0,0,0,0,0,0,0,0,0,0,0,0,0,0,0,0,0,0,0,0,0,0,0,0,0,0,0,0,0,0,0,0,0,0,0,0,0,0,0,0,0,0,0,0,0,0,0,0,0,0,0,0,0,0,0,0,0]}],[{"header":{"parameterUnit":"kt","parameterCategory":2,"dx":1,"dy":1,"la1":29.46422004699707,"la2":30.564109802246094,"lo1":-89.4342041015625,"lo2":-87.934326171875,"nx":46,"ny":34,"refTime":"2022-09-26T00:00:00:Z","depth":"15","parameterNumber":3,"parameterNumberName":"V-component_of_CURRENTS"},"data":[0,0,0,0,0,0,0,0,0,0,0,0,0,0,0,0,0,-0.4293,-0.4672,-0.496,-0.5003,-0.5115,-0.5505,-0.6017,-0.6364,-0.614,-0.5702,-0.5227,-0.4736,-0.4143,-0.3497,-0.2798,-0.2162,-0.1548,-0.0854,-0.0139,0.0454,0.0892,0.1201,0.1474,0.1757,0.1981,0.2114,0.2168,0.22,0.2274,0,0,0,0,0,0,0,0,0,0,0,0,0,0,0,0,0,0,-0.4164,-0.4282,-0.4725,-0.4896,-0.5093,-0.5462,-0.6012,-0.6279,-0.5985,-0.5328,-0.4704,-0.41,-0.3502,-0.2904,-0.2424,-0.2029,-0.1602,-0.1105,-0.0614,-0.016,0.0256,0.0662,0.1057,0.142,0.1735,0.2029,0.2344,0.2664,0,0,0,0,0,0,0,0,0,0,0,0,0,0,0,0,0,0,0,-0.4148,-0.4143,-0.4458,-0.4853,-0.5147,-0.5521,-0.6044,-0.6247,-0.5611,-0.4533,-0.3668,-0.2942,-0.228,-0.1773,-0.1447,-0.1281,-0.1153,-0.0993,-0.0785,-0.0539,-0.024,0.0112,0.0545,0.1062,0.1575,0.2007,0.2253,0,0,0,0,0,0,0,0,0,0,0,0,0,0,0,0,0,0,0,0,-0.4127,-0.409,-0.4367,-0.4859,-0.5168,-0.5531,-0.6038,-0.606,-0.4971,-0.378,-0.2824,-0.197,-0.1255,-0.0838,-0.0678,-0.0667,-0.0667,-0.063,-0.055,-0.0358,-0.0053,0.0336,0.079,0.1233,0.1516,0.1511,0,0,0,0,0,0,0,0,0,0,0,0,0,0,0,0,0,0,0,0,0,-0.4042,-0.4042,-0.4453,-0.4794,-0.504,-0.5382,-0.5761,-0.5227,-0.4068,-0.3065,-0.2162,-0.1361,-0.0817,-0.0507,-0.0406,-0.039,-0.0379,-0.0294,-0.0107,0.0144,0.04,0.0662,0.0892,0.0966,0.0796,0,0,0,0,0,0,0,0,0,0,0,0,0,0,0,0,0,0,0,0,0,-0.394,-0.3871,-0.4143,-0.4421,-0.456,-0.4725,-0.4987,-0.4859,-0.4047,-0.3155,-0.2306,-0.1543,-0.0961,-0.0593,-0.0454,-0.0464,-0.0411,-0.0267,-0.0053,0.016,0.0336,0.0513,0.0593,0.0523,0.0299,0,0,0,0,0,0,0,0,0,0,0,0,0,0,0,0,0,0,0,0,0,-0.3807,-0.3684,-0.3898,-0.4084,-0.4138,-0.4159,-0.4234,-0.4207,-0.3737,-0.3059,-0.2264,-0.1548,-0.0982,-0.0614,-0.0459,-0.0448,-0.0352,-0.0246,-0.0101,0.0075,0.0214,0.0379,0.0448,0.0363,0.0166,0,0,0,0,0,0,0,0,0,0,0,0,0,0,0,0,0,0,0,0,0,0,-0.3492,-0.3641,-0.3759,-0.3743,-0.3679,-0.3631,-0.3647,-0.3401,-0.2867,-0.2141,-0.1447,-0.0892,-0.0513,-0.0336,-0.0294,-0.0166,-0.0112,-0.0096,0.0032,0.0182,0.0272,0.0299,0.0235,0.0048,0,0,0,0,0,0,0,0,0,0,0,0,0,0,0,0,0,0,0,0,0,0,-0.3305,-0.3374,-0.3438,-0.3353,-0.3225,-0.3134,-0.3209,-0.3102,-0.2568,-0.1938,-0.1297,-0.0801,-0.0454,-0.024,-0.0123,0.0032,0.0027,-0.0043,0.0064,0.0272,0.032,0.0224,0.008,-0.0107,0,0,0,0,0,0,0,0,0,0,0,0,0,0,0,0,0,0,0,0,0,0,-0.3102,-0.3097,-0.3107,-0.2963,-0.2792,-0.2675,-0.2744,-0.2712,-0.2184,-0.1639,-0.1105,-0.0726,-0.0491,-0.0294,-0.0069,0.0128,0.0048,-0.0064,0.0069,0.0304,0.0416,0.032,0.0149,-0.0005,0,0,0,0,0,0,0,0,0,0,0,0,0,0,0,0,0,0,0,0,0,0,-0.283,-0.2803,-0.2755,-0.2568,-0.2365,-0.221,-0.2205,-0.2184,-0.1837,-0.1393,-0.0966,-0.0694,-0.0534,-0.0358,-0.0085,0.0123,0.0021,-0.0075,0.0091,0.0304,0.0411,0.0395,0.0331,0.0256,0,0,0,0,0,0,0,0,0,0,0,0,0,0,0,0,0,0,0,0,0,0,-0.2472,-0.2461,-0.2376,-0.2173,-0.1949,-0.1751,-0.1644,-0.1602,-0.1479,-0.1244,-0.095,-0.0699,-0.0518,-0.032,-0.008,0.0064,0.0011,0.0005,0.0149,0.031,0.0411,0.0438,0.0438,0.0427,0,0,0,0,0,0,0,0,0,0,0,0,0,0,0,0,0,0,0,0,0,0,-0.2045,-0.2056,-0.1981,-0.181,-0.1596,-0.1372,-0.1212,-0.1148,-0.1095,-0.0993,-0.0833,-0.0641,-0.0454,-0.0278,-0.0096,0.0037,0.0107,0.0166,0.0235,0.0315,0.04,0.0459,0.0497,0.0507,0,0,0,0,0,0,0,0,0,0,0,0,0,0,0,0,0,0,0,0,0,0,-0.157,-0.1623,-0.1602,-0.15,-0.1319,-0.1095,-0.0913,-0.0833,-0.0763,-0.0662,-0.0555,-0.0438,-0.0331,-0.0208,-0.0048,0.0139,0.0288,0.0352,0.0358,0.0363,0.04,0.0454,0.0518,0.055,0,0,0,0,0,0,0,0,0,0,0,0,0,0,0,0,0,0,0,0,0,0,-0.1073,-0.1191,-0.1233,-0.1191,-0.103,-0.0796,-0.0598,-0.0507,-0.0486,-0.0432,-0.0352,-0.0267,-0.0187,-0.0075,0.0107,0.0315,0.0491,0.0561,0.0534,0.047,0.0438,0.0464,0.0518,0.0561,0,0,0,0,0,0,0,0,0,0,0,0,0,0,0,0,0,0,0,0,0,0,-0.0571,-0.0742,-0.0833,-0.079,-0.0625,-0.0422,-0.0283,-0.0246,-0.0278,-0.0267,-0.0219,-0.0149,-0.0064,0.0075,0.0272,0.0507,0.0699,0.0769,0.071,0.0609,0.0545,0.0539,0.0555,0.0571,0,0,0,0,0,0,0,0,0,0,0,0,0,0,0,0,0,0,0,0,0,0,-0.0069,-0.0267,-0.0358,-0.031,-0.0182,-0.0085,-0.0075,-0.0107,-0.0144,-0.0128,-0.0075,0.0,0.0096,0.0235,0.0448,0.0694,0.087,0.0913,0.0833,0.0731,0.0683,0.0673,0.0662,0.0635,0,0,0,0,0,0,0,0,0,0,0,0,0,0,0,0,0,0,0,0,0,0.0539,0.0363,0.0166,0.0069,0.0107,0.0182,0.0171,0.0075,-0.0016,-0.0037,0.0005,0.0091,0.0182,0.0278,0.0427,0.0641,0.0865,0.1004,0.1004,0.0902,0.0801,0.0769,0.0774,0.0763,0.0731,0,0,0,0,0,0,0,0,0,0,0,0,0,0,0,0,0,0,0,0,0,0.0785,0.0646,0.0464,0.0352,0.0374,0.0443,0.0395,0.0235,0.0096,0.0069,0.0133,0.0251,0.0358,0.0464,0.0619,0.0833,0.1036,0.1143,0.1116,0.0972,0.0822,0.0763,0.0763,0.0758,0.0742,0,0,0,0,0,0,0,0,0,0,0,0,0,0,0,0,0,0,0,0,0,0,0.0758,0.0619,0.0497,0.0502,0.0593,0.0571,0.0395,0.0235,0.0187,0.0224,0.0368,0.047,0.0577,0.0742,0.0977,0.1196,0.1303,0.1265,0.1062,0.0812,0.0699,0.0673,0.0662,0.0678,0,0,0,0,0,0,0,0,0,0,0,0,0,0,0,0,0,0,0,0,0,0,0,0.063,0.0518,0,0,0,0,0,0,0.016,0.0448,0.0545,0.0614,0.0774,0.1041,0.1345,0.1511,0.1559,0,0,0,0,0,0,0,0,0,0,0,0,0,0,0,0,0,0,0,0,0,0,0,0,0,0,0,0,0,0,0,0,0,0,0,0,0,0,0,0,0,0.0796,0.1041,0,0,0,0,0,0,0,0,0,0,0,0,0,0,0,0,0,0,0,0,0,0,0,0,0,0,0,0,0,0,0,0,0,0,0,0,0,0,0,0,0,0,0,0,0,0,0,0,0,0,0,0,0,0,0,0,0,0,0,0,0,0,0,0,0,0,0,0,0,0,0,0,0,0,0,0,0,0,0,0,0,0,0,0,0,0,0,0,0,0,0,0,0,0,0,0,0,0,0,0,0,0,0,0,0,0,0,0,0,0,0,0,0,0,0,0,0,0,0,0,0,0,0,0,0,0,0,0,0,0,0,0,0,0,0,0,0,0,0,0,0,0,0,0,0,0,0,0,0,0,0,0,0,0,0,0,0,0,0,0,0,0,0,0,0,0,0,0,0,0,0,0,0,0,0,0,0,0,0,0,0,0,0,0,0,0,0,0,0,0,0,0,0,0,0,0,0,0,0,0,0,0,0,0,0,0,0,0,0,0,0,0,0,0,0,0,0,0,0,0,0,0,0,0,0,0,0,0,0,0,0,0,0,0,0,0,0,0,0,0,0,0,0,0,0,0,0,0,0,0,0,0,0,0,0,0,0,0,0,0,0,0,0,0,0,0,0,0,0,0,0,0,0,0,0,0,0,0,0,0,0,0,0,0,0,0,0,0,0,0,0,0,0,0,0,0,0,0,0,0,0,0,0,0,0,0,0,0,0,0,0,0,0,0,0,0,0,0,0,0,0,0,0,0,0,0,0,0,0,0,0,0,0,0,0,0,0,0,0,0,0,0,0,0,0,0,0,0,0,0,0,0,0,0,0,0,0,0,0,0,0,0,0,0,0,0,0,0,0,0,0,0,0,0,0,0,0,0,0,0,0,0,0,0,0,0,0,0,0,0,0,0,0,0,0,0,0,0,0,0,0,0,0,0,0,0,0,0,0,0,0,0,0,0,0,0,0,0,0,0,0,0,0,0,0,0,0,0,0,0,0,0,0,0,0,0,0,0,0,0,0,0,0,0,0,0,0,0,0,0,0,0,0,0,0,0,0,0,0,0,0,0,0,0,0,0,0,0,0,0,0,0,0,0,0,0,0,0,0,0,0,0,0,0,0,0,0,0,0,0,0,0,0,0,0,0,0,0,0,0,0,0,0,0,0,0,0,0,0,0,0,0,0,0,0,0,0,0,0,0,0,0,0,0,0,0,0,0,0,0,0,0,0,0,0,0,0,0,0,0,0,0,0,0,0,0,0,0,0,0,0,0,0,0,0,0,0,0,0,0,0]}]],[[{"header":{"parameterUnit":"kt","parameterCategory":2,"dx":1,"dy":1,"la1":29.46422004699707,"la2":30.564109802246094,"lo1":-89.4342041015625,"lo2":-87.934326171875,"nx":46,"ny":34,"refTime":"2022-09-26T00:00:00:Z","depth":"20","parameterNumber":2,"parameterNumberName":"U-component_of_CURRENTS"},"data":[0,0,0,0,0,0,0,0,0,0,0,0,0,0,0,0,0,0,0,-0.3145,-0.3588,-0.4421,-0.5211,-0.6199,-0.6978,-0.7117,-0.6871,-0.6685,-0.6642,-0.677,-0.7133,-0.772,-0.834,-0.8745,-0.8852,-0.8729,-0.8484,-0.8185,-0.7875,-0.7555,-0.7229,-0.693,-0.6706,-0.6583,-0.661,-0.6791,0,0,0,0,0,0,0,0,0,0,0,0,0,0,0,0,0,0,0,0,0,-0.3513,-0.4223,-0.4843,-0.5611,-0.6391,-0.6594,-0.6236,-0.5942,-0.5777,-0.5846,-0.6268,-0.6743,-0.7224,-0.7848,-0.8452,-0.8858,-0.906,-0.9028,-0.8836,-0.8548,-0.826,-0.811,-0.8163,-0.8436,-0.8852,0,0,0,0,0,0,0,0,0,0,0,0,0,0,0,0,0,0,0,0,0,0,-0.346,-0.3908,-0.4608,-0.5243,-0.6001,-0.6332,-0.6204,-0.6081,-0.6028,-0.6129,-0.637,-0.6685,-0.6962,-0.716,-0.7405,-0.7774,-0.8147,-0.8548,-0.8959,-0.9226,-0.9375,-0.9504,-0.9626,-0.9797,0,0,0,0,0,0,0,0,0,0,0,0,0,0,0,0,0,0,0,0,0,0,0,0,-0.3711,-0.4469,-0.5136,-0.5942,-0.6418,-0.661,-0.6754,-0.6818,-0.6909,-0.708,-0.732,-0.7603,-0.7961,-0.8308,-0.8532,-0.8543,-0.842,-0.8462,-0.8847,-0.9397,-0.9787,-0.9851,0,0,0,0,0,0,0,0,0,0,0,0,0,0,0,0,0,0,0,0,0,0,0,0,-0.3177,-0.3689,-0.4426,-0.5163,-0.6028,-0.6791,-0.7149,-0.7208,-0.7213,-0.7202,-0.725,-0.7341,-0.7432,-0.7565,-0.7816,-0.8206,-0.8575,-0.8793,-0.8884,-0.8943,-0.8932,-0.8809,0,0,0,0,0,0,0,0,0,0,0,0,0,0,0,0,0,0,0,0,0,0,0,0,0,-0.3001,-0.3679,-0.4309,-0.5243,-0.6145,-0.6749,-0.7165,-0.7395,-0.7491,-0.7512,-0.7512,-0.7453,-0.7411,-0.7485,-0.7549,-0.7517,-0.7469,-0.7517,-0.7576,-0.7512,-0.7384,0,0,0,0,0,0,0,0,0,0,0,0,0,0,0,0,0,0,0,0,0,0,0,0,0,-0.2686,-0.3065,-0.3502,-0.4202,-0.4955,-0.5649,-0.6199,-0.6487,-0.6679,-0.677,-0.6834,-0.6818,-0.685,-0.7058,-0.708,-0.6887,-0.6754,-0.6733,-0.6786,-0.6818,-0.6823,0,0,0,0,0,0,0,0,0,0,0,0,0,0,0,0,0,0,0,0,0,0,0,0,0,-0.2355,-0.268,-0.2969,-0.3401,-0.3988,-0.4565,-0.5067,-0.5473,-0.5761,-0.5932,-0.6097,-0.6188,-0.6257,-0.6428,-0.6471,-0.6225,-0.6071,-0.6273,-0.6418,-0.637,-0.6289,0,0,0,0,0,0,0,0,0,0,0,0,0,0,0,0,0,0,0,0,0,0,0,0,0,-0.2045,-0.2381,-0.2648,-0.3022,-0.3588,-0.41,-0.4512,-0.4896,-0.5216,-0.543,-0.5563,-0.5697,-0.5857,-0.6017,-0.5894,-0.5558,-0.5414,-0.5553,-0.5782,-0.5878,-0.5878,0,0,0,0,0,0,0,0,0,0,0,0,0,0,0,0,0,0,0,0,0,0,0,0,0,-0.1783,-0.213,-0.2419,-0.2782,-0.338,-0.3967,-0.4298,-0.4581,-0.488,-0.5061,-0.5104,-0.5174,-0.5318,-0.5419,-0.5254,-0.5029,-0.4992,-0.5019,-0.5104,-0.527,-0.5483,0,0,0,0,0,0,0,0,0,0,0,0,0,0,0,0,0,0,0,0,0,0,0,0,-0.1468,-0.1596,-0.1949,-0.2269,-0.267,-0.3203,-0.3812,-0.4239,-0.4426,-0.4512,-0.4592,-0.4709,-0.4869,-0.4981,-0.4971,-0.4784,-0.4634,-0.4693,-0.4784,-0.488,-0.4992,-0.5126,0,0,0,0,0,0,0,0,0,0,0,0,0,0,0,0,0,0,0,0,0,0,0,0,-0.1324,-0.1495,-0.1831,-0.2136,-0.2488,-0.2904,-0.331,-0.3668,-0.3956,-0.4132,-0.4287,-0.449,-0.4645,-0.4656,-0.4512,-0.4405,-0.4463,-0.4586,-0.4714,-0.4827,-0.4907,-0.4949,0,0,0,0,0,0,0,0,0,0,0,0,0,0,0,0,0,0,0,0,0,0,0,0,-0.1281,-0.1463,-0.1746,-0.1954,-0.2162,-0.2397,-0.2659,-0.2963,-0.3268,-0.3556,-0.3839,-0.4047,-0.4106,-0.4074,-0.4095,-0.4202,-0.4341,-0.4496,-0.4656,-0.4784,-0.4848,-0.4853,0,0,0,0,0,0,0,0,0,0,0,0,0,0,0,0,0,0,0,0,0,0,0,0,-0.1297,-0.1463,-0.1692,-0.1853,-0.2018,-0.2216,-0.2435,-0.2664,-0.2899,-0.3134,-0.3353,-0.3529,-0.3668,-0.3796,-0.393,-0.4084,-0.4266,-0.4469,-0.4645,-0.4752,-0.4784,-0.4778,0,0,0,0,0,0,0,0,0,0,0,0,0,0,0,0,0,0,0,0,0,0,0,0,-0.1361,-0.1532,-0.1783,-0.2024,-0.2264,-0.252,-0.2755,-0.2926,-0.3054,-0.3161,-0.3268,-0.339,-0.3534,-0.3705,-0.3887,-0.409,-0.4293,-0.4485,-0.4629,-0.4709,-0.4725,-0.4704,0,0,0,0,0,0,0,0,0,0,0,0,0,0,0,0,0,0,0,0,0,0,0,0,-0.1548,-0.1746,-0.2066,-0.2376,-0.26,-0.2755,-0.2872,-0.2979,-0.3086,-0.3203,-0.3326,-0.3454,-0.3599,-0.3759,-0.3935,-0.4111,-0.4261,-0.4367,-0.4437,-0.4512,-0.4565,-0.457,0,0,0,0,0,0,0,0,0,0,0,0,0,0,0,0,0,0,0,0,0,0,0,0,-0.1837,-0.2013,-0.2274,-0.2547,-0.275,-0.2872,-0.2963,-0.3049,-0.315,-0.3262,-0.338,-0.3486,-0.3588,-0.3684,-0.3753,-0.3796,-0.3828,-0.3908,-0.4004,-0.4052,-0.4084,-0.4116,0,0,0,0,0,0,0,0,0,0,0,0,0,0,0,0,0,0,0,0,0,0,0,0,0,-0.22,-0.2349,-0.2525,-0.268,-0.276,-0.2808,-0.2872,-0.2958,-0.3049,-0.3123,-0.3171,-0.3214,-0.33,-0.3444,-0.3615,-0.3785,0,0,0,0,0,0,0,0,0,0,0,0,0,0,0,0,0,0,0,0,0,0,0,0,0,0,0,0,0,0,0,0,0,0,0,0,0,0,-0.2979,-0.3033,-0.3091,0,0,0,0,0,0,0,0,0,0,0,0,0,0,0,0,0,0,0,0,0,0,0,0,0,0,0,0,0,0,0,0,0,0,0,0,0,0,0,0,0,0,0,0,0,0,0,0,0,0,0,0,0,0,0,0,0,0,0,0,0,0,0,0,0,0,0,0,0,0,0,0,0,0,0,0,0,0,0,0,0,0,0,0,0,0,0,0,0,0,0,0,0,0,0,0,0,0,0,0,0,0,0,0,0,0,0,0,0,0,0,0,0,0,0,0,0,0,0,0,0,0,0,0,0,0,0,0,0,0,0,0,0,0,0,0,0,0,0,0,0,0,0,0,0,0,0,0,0,0,0,0,0,0,0,0,0,0,0,0,0,0,0,0,0,0,0,0,0,0,0,0,0,0,0,0,0,0,0,0,0,0,0,0,0,0,0,0,0,0,0,0,0,0,0,0,0,0,0,0,0,0,0,0,0,0,0,0,0,0,0,0,0,0,0,0,0,0,0,0,0,0,0,0,0,0,0,0,0,0,0,0,0,0,0,0,0,0,0,0,0,0,0,0,0,0,0,0,0,0,0,0,0,0,0,0,0,0,0,0,0,0,0,0,0,0,0,0,0,0,0,0,0,0,0,0,0,0,0,0,0,0,0,0,0,0,0,0,0,0,0,0,0,0,0,0,0,0,0,0,0,0,0,0,0,0,0,0,0,0,0,0,0,0,0,0,0,0,0,0,0,0,0,0,0,0,0,0,0,0,0,0,0,0,0,0,0,0,0,0,0,0,0,0,0,0,0,0,0,0,0,0,0,0,0,0,0,0,0,0,0,0,0,0,0,0,0,0,0,0,0,0,0,0,0,0,0,0,0,0,0,0,0,0,0,0,0,0,0,0,0,0,0,0,0,0,0,0,0,0,0,0,0,0,0,0,0,0,0,0,0,0,0,0,0,0,0,0,0,0,0,0,0,0,0,0,0,0,0,0,0,0,0,0,0,0,0,0,0,0,0,0,0,0,0,0,0,0,0,0,0,0,0,0,0,0,0,0,0,0,0,0,0,0,0,0,0,0,0,0,0,0,0,0,0,0,0,0,0,0,0,0,0,0,0,0,0,0,0,0,0,0,0,0,0,0,0,0,0,0,0,0,0,0,0,0,0,0,0,0,0,0,0,0,0,0,0,0,0,0,0,0,0,0,0,0,0,0,0,0,0,0,0,0,0,0,0,0,0,0,0,0,0,0,0,0,0,0,0,0,0,0,0,0,0,0,0,0,0,0,0,0,0,0,0,0,0,0,0,0,0,0,0,0,0,0,0,0,0,0,0,0,0,0,0,0,0,0,0,0,0,0,0,0,0,0,0,0,0,0,0,0,0,0,0,0,0,0,0,0,0,0,0,0,0,0,0,0,0,0,0,0,0,0,0,0,0,0,0,0,0,0,0,0,0,0,0,0,0,0,0,0,0,0,0,0,0,0,0,0,0,0,0,0,0,0,0,0,0,0,0,0,0,0,0,0,0,0,0,0,0,0,0,0,0,0,0,0,0,0,0,0,0,0,0,0,0,0,0,0,0,0,0,0,0,0,0,0,0,0]}],[{"header":{"parameterUnit":"kt","parameterCategory":2,"dx":1,"dy":1,"la1":29.46422004699707,"la2":30.564109802246094,"lo1":-89.4342041015625,"lo2":-87.934326171875,"nx":46,"ny":34,"refTime":"2022-09-26T00:00:00:Z","depth":"20","parameterNumber":3,"parameterNumberName":"V-component_of_CURRENTS"},"data":[0,0,0,0,0,0,0,0,0,0,0,0,0,0,0,0,0,0,0,-0.41,-0.4159,-0.465,-0.519,-0.582,-0.6193,-0.5953,-0.5473,-0.4987,-0.4453,-0.3828,-0.3209,-0.2579,-0.1981,-0.1329,-0.0635,0.0043,0.0646,0.1073,0.1383,0.1666,0.1965,0.2189,0.2312,0.2371,0.2408,0.2477,0,0,0,0,0,0,0,0,0,0,0,0,0,0,0,0,0,0,0,0,0,-0.3962,-0.4496,-0.5147,-0.5836,-0.614,-0.5857,-0.5184,-0.4506,-0.3844,-0.3219,-0.2638,-0.2157,-0.1709,-0.1303,-0.0865,-0.0416,0.0016,0.0443,0.0838,0.1233,0.1596,0.1922,0.2216,0.2525,0.2846,0,0,0,0,0,0,0,0,0,0,0,0,0,0,0,0,0,0,0,0,0,0,-0.401,-0.4447,-0.519,-0.5862,-0.6145,-0.5526,-0.4405,-0.3518,-0.2771,-0.2098,-0.1548,-0.1196,-0.1014,-0.0897,-0.0763,-0.0571,-0.031,-0.0016,0.032,0.0715,0.1212,0.1735,0.221,0.2493,0,0,0,0,0,0,0,0,0,0,0,0,0,0,0,0,0,0,0,0,0,0,0,0,-0.4437,-0.5238,-0.5873,-0.5948,-0.4885,-0.3663,-0.2696,-0.1831,-0.1068,-0.0662,-0.0497,-0.0454,-0.0448,-0.0416,-0.0304,-0.0101,0.0192,0.0545,0.0977,0.1436,0.1773,0.1831,0,0,0,0,0,0,0,0,0,0,0,0,0,0,0,0,0,0,0,0,0,0,0,0,-0.3946,-0.4415,-0.5104,-0.5595,-0.5136,-0.3962,-0.2958,-0.204,-0.1239,-0.0689,-0.0352,-0.0198,-0.0208,-0.0203,-0.0085,0.0123,0.0374,0.0635,0.0913,0.1169,0.1276,0.1143,0,0,0,0,0,0,0,0,0,0,0,0,0,0,0,0,0,0,0,0,0,0,0,0,0,-0.3695,-0.433,-0.4778,-0.4736,-0.3935,-0.3022,-0.2146,-0.1388,-0.079,-0.0406,-0.0246,-0.0283,-0.0262,-0.0064,0.0176,0.0352,0.0534,0.0737,0.0844,0.0801,0.0619,0,0,0,0,0,0,0,0,0,0,0,0,0,0,0,0,0,0,0,0,0,0,0,0,0,-0.339,-0.3732,-0.4004,-0.4063,-0.3609,-0.2894,-0.2088,-0.1345,-0.0763,-0.0384,-0.023,-0.0235,-0.0192,-0.0043,0.0123,0.023,0.0363,0.055,0.063,0.0555,0.0379,0,0,0,0,0,0,0,0,0,0,0,0,0,0,0,0,0,0,0,0,0,0,0,0,0,-0.307,-0.33,-0.3412,-0.3502,-0.3262,-0.2723,-0.1981,-0.1271,-0.0694,-0.0315,-0.0139,-0.0096,-0.0011,0.0085,0.0128,0.0176,0.0299,0.0406,0.0438,0.0379,0.0192,0,0,0,0,0,0,0,0,0,0,0,0,0,0,0,0,0,0,0,0,0,0,0,0,0,-0.2782,-0.2926,-0.2931,-0.3065,-0.2958,-0.2451,-0.181,-0.1169,-0.0657,-0.0299,-0.0096,0.0037,0.0155,0.0192,0.0123,0.0176,0.0368,0.0432,0.0347,0.0214,0.0021,0,0,0,0,0,0,0,0,0,0,0,0,0,0,0,0,0,0,0,0,0,0,0,0,0,-0.2493,-0.2547,-0.2499,-0.2605,-0.2584,-0.2088,-0.1532,-0.0993,-0.0609,-0.0368,-0.0166,0.0064,0.0256,0.0203,0.0064,0.0155,0.0384,0.0507,0.0422,0.0262,0.0107,0,0,0,0,0,0,0,0,0,0,0,0,0,0,0,0,0,0,0,0,0,0,0,0,-0.2355,-0.2173,-0.2152,-0.2056,-0.2077,-0.2066,-0.173,-0.1287,-0.0844,-0.0582,-0.0422,-0.0235,0.0048,0.0278,0.0171,0.0053,0.0187,0.0395,0.0502,0.0481,0.0422,0.0347,0,0,0,0,0,0,0,0,0,0,0,0,0,0,0,0,0,0,0,0,0,0,0,0,-0.2029,-0.1831,-0.1757,-0.1612,-0.1522,-0.149,-0.1367,-0.1132,-0.0833,-0.0593,-0.04,-0.0198,0.0048,0.0214,0.0149,0.0128,0.0262,0.0411,0.0497,0.0523,0.0518,0.0507,0,0,0,0,0,0,0,0,0,0,0,0,0,0,0,0,0,0,0,0,0,0,0,0,-0.1692,-0.1516,-0.1415,-0.1233,-0.1095,-0.103,-0.0982,-0.0892,-0.0731,-0.0539,-0.0347,-0.0166,0.0021,0.0166,0.024,0.0288,0.0342,0.0411,0.0486,0.0545,0.0577,0.0587,0,0,0,0,0,0,0,0,0,0,0,0,0,0,0,0,0,0,0,0,0,0,0,0,-0.1361,-0.1244,-0.1148,-0.0956,-0.079,-0.0715,-0.0657,-0.0566,-0.0459,-0.0342,-0.0224,-0.0096,0.0075,0.0267,0.0411,0.047,0.0459,0.0448,0.0481,0.0534,0.0593,0.0625,0,0,0,0,0,0,0,0,0,0,0,0,0,0,0,0,0,0,0,0,0,0,0,0,-0.103,-0.0961,-0.0854,-0.0641,-0.0448,-0.0368,-0.0352,-0.0304,-0.023,-0.0149,-0.0069,0.0053,0.0235,0.0448,0.0614,0.0673,0.0635,0.0561,0.0523,0.0545,0.0593,0.063,0,0,0,0,0,0,0,0,0,0,0,0,0,0,0,0,0,0,0,0,0,0,0,0,-0.0641,-0.0555,-0.0411,-0.0224,-0.0096,-0.0075,-0.0112,-0.0117,-0.0075,-0.0011,0.0069,0.0203,0.04,0.0635,0.0822,0.0876,0.0806,0.0694,0.0619,0.0609,0.0619,0.063,0,0,0,0,0,0,0,0,0,0,0,0,0,0,0,0,0,0,0,0,0,0,0,0,-0.0176,-0.0069,0.0069,0.0144,0.0128,0.0075,0.0032,0.0043,0.0091,0.016,0.024,0.0374,0.0571,0.0796,0.095,0.0966,0.0876,0.0769,0.071,0.0694,0.0678,0.0657,0,0,0,0,0,0,0,0,0,0,0,0,0,0,0,0,0,0,0,0,0,0,0,0,0,0.0283,0.0374,0.0368,0.0267,0.0176,0.0155,0.0198,0.0278,0.0358,0.0438,0.0555,0.0731,0.0908,0.1014,0.0998,0.0892,0,0,0,0,0,0,0,0,0,0,0,0,0,0,0,0,0,0,0,0,0,0,0,0,0,0,0,0,0,0,0,0,0,0,0,0,0,0,0.0459,0.0555,0.0683,0,0,0,0,0,0,0,0,0,0,0,0,0,0,0,0,0,0,0,0,0,0,0,0,0,0,0,0,0,0,0,0,0,0,0,0,0,0,0,0,0,0,0,0,0,0,0,0,0,0,0,0,0,0,0,0,0,0,0,0,0,0,0,0,0,0,0,0,0,0,0,0,0,0,0,0,0,0,0,0,0,0,0,0,0,0,0,0,0,0,0,0,0,0,0,0,0,0,0,0,0,0,0,0,0,0,0,0,0,0,0,0,0,0,0,0,0,0,0,0,0,0,0,0,0,0,0,0,0,0,0,0,0,0,0,0,0,0,0,0,0,0,0,0,0,0,0,0,0,0,0,0,0,0,0,0,0,0,0,0,0,0,0,0,0,0,0,0,0,0,0,0,0,0,0,0,0,0,0,0,0,0,0,0,0,0,0,0,0,0,0,0,0,0,0,0,0,0,0,0,0,0,0,0,0,0,0,0,0,0,0,0,0,0,0,0,0,0,0,0,0,0,0,0,0,0,0,0,0,0,0,0,0,0,0,0,0,0,0,0,0,0,0,0,0,0,0,0,0,0,0,0,0,0,0,0,0,0,0,0,0,0,0,0,0,0,0,0,0,0,0,0,0,0,0,0,0,0,0,0,0,0,0,0,0,0,0,0,0,0,0,0,0,0,0,0,0,0,0,0,0,0,0,0,0,0,0,0,0,0,0,0,0,0,0,0,0,0,0,0,0,0,0,0,0,0,0,0,0,0,0,0,0,0,0,0,0,0,0,0,0,0,0,0,0,0,0,0,0,0,0,0,0,0,0,0,0,0,0,0,0,0,0,0,0,0,0,0,0,0,0,0,0,0,0,0,0,0,0,0,0,0,0,0,0,0,0,0,0,0,0,0,0,0,0,0,0,0,0,0,0,0,0,0,0,0,0,0,0,0,0,0,0,0,0,0,0,0,0,0,0,0,0,0,0,0,0,0,0,0,0,0,0,0,0,0,0,0,0,0,0,0,0,0,0,0,0,0,0,0,0,0,0,0,0,0,0,0,0,0,0,0,0,0,0,0,0,0,0,0,0,0,0,0,0,0,0,0,0,0,0,0,0,0,0,0,0,0,0,0,0,0,0,0,0,0,0,0,0,0,0,0,0,0,0,0,0,0,0,0,0,0,0,0,0,0,0,0,0,0,0,0,0,0,0,0,0,0,0,0,0,0,0,0,0,0,0,0,0,0,0,0,0,0,0,0,0,0,0,0,0,0,0,0,0,0,0,0,0,0,0,0,0,0,0,0,0,0,0,0,0,0,0,0,0,0,0,0,0,0,0,0,0,0,0,0,0,0,0,0,0,0,0,0,0,0,0,0,0,0,0,0,0,0,0,0,0,0,0,0,0,0,0,0,0,0,0,0,0,0,0,0,0,0,0,0,0,0,0,0,0,0,0,0,0,0,0,0,0,0,0,0,0,0,0,0,0,0,0,0,0,0,0,0,0,0,0,0,0,0,0,0,0,0,0,0,0,0,0,0,0,0,0,0,0,0,0,0,0,0,0,0,0,0,0,0,0,0,0,0,0,0,0,0,0,0,0,0,0,0]}]],[[{"header":{"parameterUnit":"kt","parameterCategory":2,"dx":1,"dy":1,"la1":29.46422004699707,"la2":30.564109802246094,"lo1":-89.4342041015625,"lo2":-87.934326171875,"nx":46,"ny":34,"refTime":"2022-09-26T00:00:00:Z","depth":"25","parameterNumber":2,"parameterNumberName":"U-component_of_CURRENTS"},"data":[0,0,0,0,0,0,0,0,0,0,0,0,0,0,0,0,0,0,0,0,0,-0.362,-0.4431,-0.5307,-0.6172,-0.6033,-0.5457,-0.5382,-0.5067,-0.4848,-0.5355,-0.622,-0.6818,-0.7122,-0.7459,-0.7592,-0.7379,-0.7042,-0.6663,-0.6199,-0.5697,-0.5312,-0.5115,-0.5029,-0.5029,-0.5152,0,0,0,0,0,0,0,0,0,0,0,0,0,0,0,0,0,0,0,0,0,0,0,-0.4084,-0.4939,-0.5798,-0.5814,-0.5248,-0.4565,-0.3865,-0.3679,-0.4052,-0.4426,-0.4757,-0.535,-0.6284,-0.7005,-0.709,-0.7032,-0.7016,-0.6845,-0.6717,-0.6823,-0.7053,-0.7389,-0.7784,0,0,0,0,0,0,0,0,0,0,0,0,0,0,0,0,0,0,0,0,0,0,0,0,-0.3812,-0.4869,-0.5756,-0.5964,-0.5478,-0.4837,-0.4293,-0.4074,-0.4175,-0.4373,-0.4522,-0.4725,-0.5077,-0.5323,-0.5494,-0.591,-0.646,-0.6903,-0.7149,-0.724,-0.7304,-0.7646,0,0,0,0,0,0,0,0,0,0,0,0,0,0,0,0,0,0,0,0,0,0,0,0,0,-0.3663,-0.4752,-0.5654,-0.6204,-0.6012,-0.5809,-0.583,-0.5761,-0.5702,-0.5857,-0.6177,-0.6487,-0.6626,-0.653,-0.6183,-0.5825,-0.5857,-0.6295,-0.6861,-0.7309,-0.7507,0,0,0,0,0,0,0,0,0,0,0,0,0,0,0,0,0,0,0,0,0,0,0,0,0,0,-0.3679,-0.48,-0.5649,-0.6177,-0.6418,-0.6551,-0.6615,-0.6604,-0.653,-0.6423,-0.6418,-0.6476,-0.6535,-0.6722,-0.693,-0.7021,-0.7016,-0.6914,-0.6791,-0.6695,0,0,0,0,0,0,0,0,0,0,0,0,0,0,0,0,0,0,0,0,0,0,0,0,0,0,-0.2974,-0.3716,-0.4698,-0.5366,-0.5611,-0.5793,-0.5905,-0.5948,-0.5974,-0.6092,-0.6418,-0.6722,-0.6695,-0.653,-0.6508,-0.6444,-0.6284,-0.6065,-0.5702,-0.5366,0,0,0,0,0,0,0,0,0,0,0,0,0,0,0,0,0,0,0,0,0,0,0,0,0,0,0,-0.2696,-0.3684,-0.4298,-0.4421,-0.4447,-0.4479,-0.4522,-0.464,-0.4875,-0.5425,-0.6049,-0.6193,-0.6017,-0.5996,-0.6081,-0.6172,-0.614,-0.59,-0.5601,0,0,0,0,0,0,0,0,0,0,0,0,0,0,0,0,0,0,0,0,0,0,0,0,0,0,0,-0.2306,-0.3006,-0.3583,-0.3759,-0.3615,-0.346,-0.346,-0.3615,-0.3956,-0.464,-0.5312,-0.5451,-0.5254,-0.5328,-0.5553,-0.5777,-0.5804,-0.5611,-0.5553,0,0,0,0,0,0,0,0,0,0,0,0,0,0,0,0,0,0,0,0,0,0,0,0,0,0,0,-0.2093,-0.2525,-0.3123,-0.3679,-0.3743,-0.3561,-0.3428,-0.3524,-0.3759,-0.4357,-0.5035,-0.4971,-0.4704,-0.4848,-0.504,-0.5179,-0.5222,-0.5126,-0.5088,0,0,0,0,0,0,0,0,0,0,0,0,0,0,0,0,0,0,0,0,0,0,0,0,0,0,-0.181,-0.1938,-0.2274,-0.2728,-0.3497,-0.394,-0.4015,-0.3914,-0.3892,-0.3972,-0.4234,-0.4501,-0.4405,-0.4319,-0.4533,-0.4661,-0.4704,-0.4746,-0.4848,-0.4997,0,0,0,0,0,0,0,0,0,0,0,0,0,0,0,0,0,0,0,0,0,0,0,0,0,0,-0.1666,-0.1869,-0.2285,-0.2707,-0.3059,-0.3465,-0.3828,-0.4063,-0.4132,-0.4202,-0.4223,-0.401,-0.386,-0.3983,-0.4213,-0.4367,-0.4453,-0.4512,-0.4586,-0.4725,0,0,0,0,0,0,0,0,0,0,0,0,0,0,0,0,0,0,0,0,0,0,0,0,0,0,0,-0.1799,-0.2173,-0.2616,-0.2953,-0.3139,-0.3268,-0.3476,-0.3684,-0.378,-0.3663,-0.3497,-0.3593,-0.3865,-0.409,-0.425,-0.4351,-0.4357,-0.4373,-0.4458,0,0,0,0,0,0,0,0,0,0,0,0,0,0,0,0,0,0,0,0,0,0,0,0,0,0,0,-0.1671,-0.1885,-0.2173,-0.2456,-0.2728,-0.2979,-0.3166,-0.33,-0.3364,-0.3396,-0.3481,-0.3641,-0.3833,-0.4015,-0.4175,-0.4245,-0.4202,-0.4191,-0.4245,0,0,0,0,0,0,0,0,0,0,0,0,0,0,0,0,0,0,0,0,0,0,0,0,0,0,0,-0.1612,-0.1735,-0.197,-0.2232,-0.2472,-0.2696,-0.2904,-0.3081,-0.3214,-0.3321,-0.3433,-0.3567,-0.3743,-0.394,-0.41,-0.4111,-0.4052,-0.4047,-0.4058,0,0,0,0,0,0,0,0,0,0,0,0,0,0,0,0,0,0,0,0,0,0,0,0,0,0,0,-0.1773,-0.1927,-0.2184,-0.2451,-0.2638,-0.276,-0.2851,-0.2931,-0.3017,-0.3113,-0.3225,-0.3369,-0.3561,-0.3737,-0.3844,-0.3919,-0.4004,-0.4015,-0.3978,0,0,0,0,0,0,0,0,0,0,0,0,0,0,0,0,0,0,0,0,0,0,0,0,0,0,0,-0.2072,-0.221,-0.2333,-0.2461,-0.2573,-0.267,-0.275,-0.2814,-0.2878,-0.2969,-0.3097,-0.3284,-0.3486,-0.3679,0,0,0,0,0,0,0,0,0,0,0,0,0,0,0,0,0,0,0,0,0,0,0,0,0,0,0,0,0,0,0,0,0,0,-0.2531,-0.26,-0.2664,-0.2734,-0.2814,-0.2899,-0.299,0,0,0,0,0,0,0,0,0,0,0,0,0,0,0,0,0,0,0,0,0,0,0,0,0,0,0,0,0,0,0,0,0,0,0,0,0,0,0,0,0,0,0,0,0,0,0,0,0,0,0,0,0,0,0,0,0,0,0,0,0,0,0,0,0,0,0,0,0,0,0,0,0,0,0,0,0,0,0,0,0,0,0,0,0,0,0,0,0,0,0,0,0,0,0,0,0,0,0,0,0,0,0,0,0,0,0,0,0,0,0,0,0,0,0,0,0,0,0,0,0,0,0,0,0,0,0,0,0,0,0,0,0,0,0,0,0,0,0,0,0,0,0,0,0,0,0,0,0,0,0,0,0,0,0,0,0,0,0,0,0,0,0,0,0,0,0,0,0,0,0,0,0,0,0,0,0,0,0,0,0,0,0,0,0,0,0,0,0,0,0,0,0,0,0,0,0,0,0,0,0,0,0,0,0,0,0,0,0,0,0,0,0,0,0,0,0,0,0,0,0,0,0,0,0,0,0,0,0,0,0,0,0,0,0,0,0,0,0,0,0,0,0,0,0,0,0,0,0,0,0,0,0,0,0,0,0,0,0,0,0,0,0,0,0,0,0,0,0,0,0,0,0,0,0,0,0,0,0,0,0,0,0,0,0,0,0,0,0,0,0,0,0,0,0,0,0,0,0,0,0,0,0,0,0,0,0,0,0,0,0,0,0,0,0,0,0,0,0,0,0,0,0,0,0,0,0,0,0,0,0,0,0,0,0,0,0,0,0,0,0,0,0,0,0,0,0,0,0,0,0,0,0,0,0,0,0,0,0,0,0,0,0,0,0,0,0,0,0,0,0,0,0,0,0,0,0,0,0,0,0,0,0,0,0,0,0,0,0,0,0,0,0,0,0,0,0,0,0,0,0,0,0,0,0,0,0,0,0,0,0,0,0,0,0,0,0,0,0,0,0,0,0,0,0,0,0,0,0,0,0,0,0,0,0,0,0,0,0,0,0,0,0,0,0,0,0,0,0,0,0,0,0,0,0,0,0,0,0,0,0,0,0,0,0,0,0,0,0,0,0,0,0,0,0,0,0,0,0,0,0,0,0,0,0,0,0,0,0,0,0,0,0,0,0,0,0,0,0,0,0,0,0,0,0,0,0,0,0,0,0,0,0,0,0,0,0,0,0,0,0,0,0,0,0,0,0,0,0,0,0,0,0,0,0,0,0,0,0,0,0,0,0,0,0,0,0,0,0,0,0,0,0,0,0,0,0,0,0,0,0,0,0,0,0,0,0,0,0,0,0,0,0,0,0,0,0,0,0,0,0,0,0,0,0,0,0,0,0,0,0,0,0,0,0,0,0,0,0,0,0,0,0,0,0,0,0,0,0,0,0,0,0,0,0,0,0,0,0,0,0,0,0,0,0,0,0,0,0,0,0,0,0,0,0,0,0,0,0,0,0,0,0,0,0,0,0,0,0,0,0,0,0,0,0,0,0,0,0,0,0,0,0,0,0,0,0,0,0,0,0,0,0,0,0,0,0,0,0,0,0,0,0,0,0,0,0,0,0,0,0,0,0,0,0,0,0,0,0,0,0,0,0,0,0,0,0,0,0,0,0,0,0,0,0,0,0,0,0,0,0,0,0,0,0,0,0,0,0,0,0,0,0,0,0,0,0,0,0,0,0,0,0,0,0,0,0,0,0,0,0,0,0,0,0,0,0,0,0,0,0,0,0,0,0,0,0,0,0,0,0,0,0,0,0,0,0,0,0,0,0,0,0,0,0,0,0,0,0,0,0,0]}],[{"header":{"parameterUnit":"kt","parameterCategory":2,"dx":1,"dy":1,"la1":29.46422004699707,"la2":30.564109802246094,"lo1":-89.4342041015625,"lo2":-87.934326171875,"nx":46,"ny":34,"refTime":"2022-09-26T00:00:00:Z","depth":"25","parameterNumber":3,"parameterNumberName":"V-component_of_CURRENTS"},"data":[0,0,0,0,0,0,0,0,0,0,0,0,0,0,0,0,0,0,0,0,0,-0.3849,-0.4506,-0.5291,-0.5916,-0.567,-0.5142,-0.4672,-0.4052,-0.3502,-0.2894,-0.2248,-0.166,-0.1073,-0.0459,0.0133,0.0699,0.1132,0.1463,0.1719,0.1938,0.213,0.2269,0.2349,0.2397,0.244,0,0,0,0,0,0,0,0,0,0,0,0,0,0,0,0,0,0,0,0,0,0,0,-0.4426,-0.5403,-0.5985,-0.5718,-0.5088,-0.4309,-0.3727,-0.3091,-0.2424,-0.1927,-0.15,-0.1121,-0.0763,-0.04,-0.0064,0.0278,0.0657,0.1052,0.1463,0.1885,0.2248,0.2579,0.2878,0,0,0,0,0,0,0,0,0,0,0,0,0,0,0,0,0,0,0,0,0,0,0,0,-0.441,-0.5585,-0.6038,-0.5425,-0.4357,-0.3545,-0.283,-0.2082,-0.1474,-0.1116,-0.0945,-0.0849,-0.0731,-0.0609,-0.0481,-0.0267,-0.0011,0.0342,0.0876,0.1426,0.1949,0.2371,0,0,0,0,0,0,0,0,0,0,0,0,0,0,0,0,0,0,0,0,0,0,0,0,0,-0.4415,-0.5569,-0.5788,-0.4832,-0.3588,-0.2696,-0.1741,-0.1009,-0.0593,-0.0427,-0.0304,-0.0304,-0.0299,-0.024,-0.0107,0.0085,0.0326,0.0699,0.1116,0.149,0.1741,0,0,0,0,0,0,0,0,0,0,0,0,0,0,0,0,0,0,0,0,0,0,0,0,0,0,-0.4405,-0.5355,-0.5045,-0.3882,-0.2931,-0.1954,-0.1159,-0.0555,-0.0182,0.0011,-0.0021,-0.0032,0.0107,0.0262,0.0438,0.0689,0.0977,0.1233,0.1345,0.1303,0,0,0,0,0,0,0,0,0,0,0,0,0,0,0,0,0,0,0,0,0,0,0,0,0,0,-0.37,-0.4415,-0.4581,-0.3876,-0.3017,-0.2168,-0.1393,-0.0774,-0.0379,-0.0187,-0.0139,-0.0043,0.0304,0.055,0.0571,0.0742,0.0977,0.1095,0.1062,0.0918,0,0,0,0,0,0,0,0,0,0,0,0,0,0,0,0,0,0,0,0,0,0,0,0,0,0,0,-0.3454,-0.3823,-0.3476,-0.2819,-0.2141,-0.1468,-0.0908,-0.0529,-0.0299,-0.0133,0.0048,0.0352,0.0475,0.0374,0.0529,0.0796,0.0902,0.0822,0.0641,0,0,0,0,0,0,0,0,0,0,0,0,0,0,0,0,0,0,0,0,0,0,0,0,0,0,0,-0.2899,-0.3262,-0.307,-0.2563,-0.1975,-0.141,-0.0929,-0.0577,-0.0336,-0.0112,0.0203,0.0427,0.0432,0.0352,0.0416,0.0577,0.0635,0.055,0.0358,0,0,0,0,0,0,0,0,0,0,0,0,0,0,0,0,0,0,0,0,0,0,0,0,0,0,0,-0.2515,-0.2819,-0.2675,-0.2301,-0.1703,-0.1207,-0.0812,-0.0518,-0.0251,0.0011,0.032,0.0411,0.0272,0.0304,0.0459,0.0545,0.0486,0.0331,0.0139,0,0,0,0,0,0,0,0,0,0,0,0,0,0,0,0,0,0,0,0,0,0,0,0,0,0,-0.2253,-0.2157,-0.2333,-0.2285,-0.1917,-0.1388,-0.0886,-0.0587,-0.0395,-0.016,0.0171,0.0432,0.0363,0.016,0.024,0.0454,0.0582,0.0518,0.0368,0.0219,0,0,0,0,0,0,0,0,0,0,0,0,0,0,0,0,0,0,0,0,0,0,0,0,0,0,-0.1911,-0.1783,-0.1847,-0.1874,-0.1554,-0.1132,-0.0673,-0.0448,-0.0288,-0.0096,0.0224,0.0454,0.0299,0.0219,0.0283,0.047,0.0566,0.0539,0.0481,0.0422,0,0,0,0,0,0,0,0,0,0,0,0,0,0,0,0,0,0,0,0,0,0,0,0,0,0,0,-0.1388,-0.1335,-0.1324,-0.1217,-0.0988,-0.0678,-0.0459,-0.0251,-0.0037,0.0192,0.0336,0.0299,0.0272,0.0368,0.0491,0.0566,0.0577,0.0561,0.055,0,0,0,0,0,0,0,0,0,0,0,0,0,0,0,0,0,0,0,0,0,0,0,0,0,0,0,-0.1052,-0.0924,-0.0892,-0.086,-0.0769,-0.0619,-0.0427,-0.023,-0.0043,0.0139,0.0299,0.0384,0.0411,0.0438,0.0486,0.0545,0.0582,0.0603,0.0614,0,0,0,0,0,0,0,0,0,0,0,0,0,0,0,0,0,0,0,0,0,0,0,0,0,0,0,-0.0796,-0.063,-0.0577,-0.0539,-0.0459,-0.0358,-0.024,-0.0117,0.0027,0.0203,0.0395,0.0534,0.0571,0.0539,0.0513,0.0523,0.0561,0.0603,0.0635,0,0,0,0,0,0,0,0,0,0,0,0,0,0,0,0,0,0,0,0,0,0,0,0,0,0,0,-0.0491,-0.0272,-0.0198,-0.0198,-0.0171,-0.0107,-0.0032,0.0053,0.0182,0.0363,0.0561,0.0705,0.0742,0.0689,0.0603,0.055,0.0555,0.0593,0.0619,0,0,0,0,0,0,0,0,0,0,0,0,0,0,0,0,0,0,0,0,0,0,0,0,0,0,0,-0.0085,0.0075,0.0117,0.008,0.0069,0.0096,0.0139,0.0208,0.0326,0.0502,0.0699,0.0849,0.0881,0.0812,0,0,0,0,0,0,0,0,0,0,0,0,0,0,0,0,0,0,0,0,0,0,0,0,0,0,0,0,0,0,0,0,0,0,0.0192,0.016,0.0176,0.0219,0.0278,0.0336,0.0438,0,0,0,0,0,0,0,0,0,0,0,0,0,0,0,0,0,0,0,0,0,0,0,0,0,0,0,0,0,0,0,0,0,0,0,0,0,0,0,0,0,0,0,0,0,0,0,0,0,0,0,0,0,0,0,0,0,0,0,0,0,0,0,0,0,0,0,0,0,0,0,0,0,0,0,0,0,0,0,0,0,0,0,0,0,0,0,0,0,0,0,0,0,0,0,0,0,0,0,0,0,0,0,0,0,0,0,0,0,0,0,0,0,0,0,0,0,0,0,0,0,0,0,0,0,0,0,0,0,0,0,0,0,0,0,0,0,0,0,0,0,0,0,0,0,0,0,0,0,0,0,0,0,0,0,0,0,0,0,0,0,0,0,0,0,0,0,0,0,0,0,0,0,0,0,0,0,0,0,0,0,0,0,0,0,0,0,0,0,0,0,0,0,0,0,0,0,0,0,0,0,0,0,0,0,0,0,0,0,0,0,0,0,0,0,0,0,0,0,0,0,0,0,0,0,0,0,0,0,0,0,0,0,0,0,0,0,0,0,0,0,0,0,0,0,0,0,0,0,0,0,0,0,0,0,0,0,0,0,0,0,0,0,0,0,0,0,0,0,0,0,0,0,0,0,0,0,0,0,0,0,0,0,0,0,0,0,0,0,0,0,0,0,0,0,0,0,0,0,0,0,0,0,0,0,0,0,0,0,0,0,0,0,0,0,0,0,0,0,0,0,0,0,0,0,0,0,0,0,0,0,0,0,0,0,0,0,0,0,0,0,0,0,0,0,0,0,0,0,0,0,0,0,0,0,0,0,0,0,0,0,0,0,0,0,0,0,0,0,0,0,0,0,0,0,0,0,0,0,0,0,0,0,0,0,0,0,0,0,0,0,0,0,0,0,0,0,0,0,0,0,0,0,0,0,0,0,0,0,0,0,0,0,0,0,0,0,0,0,0,0,0,0,0,0,0,0,0,0,0,0,0,0,0,0,0,0,0,0,0,0,0,0,0,0,0,0,0,0,0,0,0,0,0,0,0,0,0,0,0,0,0,0,0,0,0,0,0,0,0,0,0,0,0,0,0,0,0,0,0,0,0,0,0,0,0,0,0,0,0,0,0,0,0,0,0,0,0,0,0,0,0,0,0,0,0,0,0,0,0,0,0,0,0,0,0,0,0,0,0,0,0,0,0,0,0,0,0,0,0,0,0,0,0,0,0,0,0,0,0,0,0,0,0,0,0,0,0,0,0,0,0,0,0,0,0,0,0,0,0,0,0,0,0,0,0,0,0,0,0,0,0,0,0,0,0,0,0,0,0,0,0,0,0,0,0,0,0,0,0,0,0,0,0,0,0,0,0,0,0,0,0,0,0,0,0,0,0,0,0,0,0,0,0,0,0,0,0,0,0,0,0,0,0,0,0,0,0,0,0,0,0,0,0,0,0,0,0,0,0,0,0,0,0,0,0,0,0,0,0,0,0,0,0,0,0,0,0,0,0,0,0,0,0,0,0,0,0,0,0,0,0,0,0,0,0,0,0,0,0,0,0,0,0,0,0,0,0,0,0,0,0,0,0,0,0,0,0,0,0,0,0,0,0,0,0,0,0,0,0,0,0,0,0,0,0,0,0,0,0,0,0,0,0,0,0,0,0,0,0,0,0,0,0,0,0,0,0,0,0,0,0,0,0,0,0,0,0,0,0,0,0,0,0,0,0,0,0,0,0,0,0,0,0,0,0,0,0,0,0,0,0,0,0,0,0,0,0,0,0,0,0,0,0,0,0,0,0,0,0,0,0]}]]]